Wetterdaten: Montag, 27.02.2023
Datum Zeit Temp. 2m Temp +5 cm Feuchte A. Luftdruck Regen Wind Richtung Richtung Sonnenschein UV Solar Taupunkt Windchill Windben
27.02.2023 00:00 -4,3 C -6,1 C 78 % 1027,9 hPa 0,0 l/m 11,3 km/h (2 Bft) N-NO 22 0 min 0,0 UV-I 0 W/m -7,5 C -9,4 C 12,9 km/h (3 Bft)
27.02.2023 00:01 -4,3 C -6,1 C 78 % 1028,0 hPa 0,0 l/m 11,3 km/h (2 Bft) N-NO 22 0 min 0,0 UV-I 0 W/m -7,5 C -9,4 C 14,5 km/h (3 Bft)
27.02.2023 00:02 -4,3 C -6,1 C 78 % 1028,0 hPa 0,0 l/m 11,3 km/h (2 Bft) N-NO 22 0 min 0,0 UV-I 0 W/m -7,5 C -9,4 C 14,5 km/h (3 Bft)
27.02.2023 00:03 -4,3 C -6,1 C 78 % 1027,9 hPa 0,0 l/m 11,3 km/h (2 Bft) N-NO 22 0 min 0,0 UV-I 0 W/m -7,5 C -9,4 C 16,1 km/h (3 Bft)
27.02.2023 00:04 -4,3 C -6,1 C 78 % 1027,9 hPa 0,0 l/m 12,9 km/h (3 Bft) N-NO 22 0 min 0,0 UV-I 0 W/m -7,5 C -10,7 C 16,1 km/h (3 Bft)
27.02.2023 00:05 -4,3 C -6,1 C 78 % 1027,9 hPa 0,0 l/m 11,3 km/h (2 Bft) N-NO 22 0 min 0,0 UV-I 0 W/m -7,5 C -9,4 C 14,5 km/h (3 Bft)
27.02.2023 00:06 -4,3 C -6,1 C 78 % 1028,0 hPa 0,0 l/m 12,9 km/h (3 Bft) N-NO 22 0 min 0,0 UV-I 0 W/m -7,5 C -10,7 C 19,3 km/h (3 Bft)
27.02.2023 00:07 -4,3 C -6,1 C 78 % 1028,0 hPa 0,0 l/m 14,5 km/h (3 Bft) N-NO 22 0 min 0,0 UV-I 0 W/m -7,5 C -11,8 C 17,7 km/h (3 Bft)
27.02.2023 00:08 -4,3 C -6,1 C 78 % 1027,9 hPa 0,0 l/m 12,9 km/h (3 Bft) N-NO 22 0 min 0,0 UV-I 0 W/m -7,5 C -10,7 C 14,5 km/h (3 Bft)
27.02.2023 00:09 -4,3 C -6,1 C 78 % 1028,0 hPa 0,0 l/m 12,9 km/h (3 Bft) N-NO 22 0 min 0,0 UV-I 0 W/m -7,5 C -10,7 C 16,1 km/h (3 Bft)
27.02.2023 00:10 -4,3 C -6,1 C 78 % 1028,0 hPa 0,0 l/m 12,9 km/h (3 Bft) N-NO 22 0 min 0,0 UV-I 0 W/m -7,5 C -10,7 C 16,1 km/h (3 Bft)
27.02.2023 00:11 -4,3 C -6,1 C 78 % 1027,9 hPa 0,0 l/m 12,9 km/h (3 Bft) N-NO 22 0 min 0,0 UV-I 0 W/m -7,5 C -10,7 C 14,5 km/h (3 Bft)
27.02.2023 00:12 -4,3 C -6,1 C 78 % 1028,0 hPa 0,0 l/m 12,9 km/h (3 Bft) N-NO 22 0 min 0,0 UV-I 0 W/m -7,5 C -10,7 C 14,5 km/h (3 Bft)
27.02.2023 00:13 -4,4 C -6,1 C 78 % 1027,9 hPa 0,0 l/m 12,9 km/h (3 Bft) N-NO 22 0 min 0,0 UV-I 0 W/m -7,6 C -10,8 C 16,1 km/h (3 Bft)
27.02.2023 00:14 -4,4 C -6,1 C 78 % 1027,9 hPa 0,0 l/m 14,5 km/h (3 Bft) N-NO 22 0 min 0,0 UV-I 0 W/m -7,6 C -12,0 C 19,3 km/h (3 Bft)
27.02.2023 00:15 -4,4 C -6,1 C 78 % 1027,9 hPa 0,0 l/m 12,9 km/h (3 Bft) N-NO 22 0 min 0,0 UV-I 0 W/m -7,6 C -10,8 C 16,1 km/h (3 Bft)
27.02.2023 00:16 -4,4 C -6,1 C 78 % 1027,9 hPa 0,0 l/m 14,5 km/h (3 Bft) N-NO 22 0 min 0,0 UV-I 0 W/m -7,6 C -12,0 C 17,7 km/h (3 Bft)
27.02.2023 00:17 -4,4 C -6,1 C 78 % 1028,0 hPa 0,0 l/m 14,5 km/h (3 Bft) N-NO 22 0 min 0,0 UV-I 0 W/m -7,6 C -12,0 C 16,1 km/h (3 Bft)
27.02.2023 00:18 -4,3 C -6,1 C 78 % 1028,0 hPa 0,0 l/m 16,1 km/h (3 Bft) N 360 0 min 0,0 UV-I 0 W/m -7,5 C -12,9 C 20,9 km/h (4 Bft)
27.02.2023 00:19 -4,3 C -6,1 C 78 % 1027,9 hPa 0,0 l/m 14,5 km/h (3 Bft) N-NO 22 0 min 0,0 UV-I 0 W/m -7,5 C -11,8 C 20,9 km/h (4 Bft)
27.02.2023 00:20 -4,3 C -5,6 C 78 % 1027,9 hPa 0,0 l/m 12,9 km/h (3 Bft) N-NO 22 0 min 0,0 UV-I 0 W/m -7,5 C -10,7 C 14,5 km/h (3 Bft)
27.02.2023 00:21 -4,3 C -6,1 C 78 % 1027,9 hPa 0,0 l/m 11,3 km/h (2 Bft) N-NO 22 0 min 0,0 UV-I 0 W/m -7,5 C -9,4 C 16,1 km/h (3 Bft)
27.02.2023 00:22 -4,3 C -6,1 C 78 % 1027,9 hPa 0,0 l/m 12,9 km/h (3 Bft) N-NO 22 0 min 0,0 UV-I 0 W/m -7,5 C -10,7 C 17,7 km/h (3 Bft)
27.02.2023 00:23 -4,3 C -6,1 C 78 % 1027,9 hPa 0,0 l/m 16,1 km/h (3 Bft) N-NO 22 0 min 0,0 UV-I 0 W/m -7,5 C -12,9 C 22,5 km/h (4 Bft)
27.02.2023 00:24 -4,3 C -6,1 C 78 % 1027,9 hPa 0,0 l/m 14,5 km/h (3 Bft) N-NO 22 0 min 0,0 UV-I 0 W/m -7,5 C -11,8 C 22,5 km/h (4 Bft)
27.02.2023 00:25 -4,3 C -6,1 C 78 % 1028,0 hPa 0,0 l/m 17,7 km/h (3 Bft) N-NO 22 0 min 0,0 UV-I 0 W/m -7,5 C -13,9 C 20,9 km/h (4 Bft)
27.02.2023 00:26 -4,3 C -5,6 C 78 % 1027,9 hPa 0,0 l/m 14,5 km/h (3 Bft) N-NO 22 0 min 0,0 UV-I 0 W/m -7,5 C -11,8 C 19,3 km/h (3 Bft)
27.02.2023 00:27 -4,3 C -5,6 C 78 % 1027,9 hPa 0,0 l/m 16,1 km/h (3 Bft) N-NO 22 0 min 0,0 UV-I 0 W/m -7,5 C -12,9 C 19,3 km/h (3 Bft)
27.02.2023 00:28 -4,3 C -5,6 C 78 % 1027,9 hPa 0,0 l/m 17,7 km/h (3 Bft) N-NO 22 0 min 0,0 UV-I 0 W/m -7,5 C -13,9 C 20,9 km/h (4 Bft)
27.02.2023 00:29 -4,2 C -5,6 C 78 % 1027,9 hPa 0,0 l/m 16,1 km/h (3 Bft) N-NO 22 0 min 0,0 UV-I 0 W/m -7,4 C -12,8 C 20,9 km/h (4 Bft)
27.02.2023 00:30 -4,2 C -5,6 C 78 % 1027,8 hPa 0,0 l/m 14,5 km/h (3 Bft) N-NO 22 0 min 0,0 UV-I 0 W/m -7,4 C -11,7 C 19,3 km/h (3 Bft)
27.02.2023 00:31 -4,3 C -5,6 C 78 % 1027,9 hPa 0,0 l/m 11,3 km/h (2 Bft) N-NO 22 0 min 0,0 UV-I 0 W/m -7,5 C -9,4 C 16,1 km/h (3 Bft)
27.02.2023 00:32 -4,3 C -5,6 C 78 % 1027,9 hPa 0,0 l/m 11,3 km/h (2 Bft) N-NO 22 0 min 0,0 UV-I 0 W/m -7,5 C -9,4 C 16,1 km/h (3 Bft)
27.02.2023 00:33 -4,3 C -5,6 C 78 % 1027,9 hPa 0,0 l/m 12,9 km/h (3 Bft) N-NO 22 0 min 0,0 UV-I 0 W/m -7,5 C -10,7 C 17,7 km/h (3 Bft)
27.02.2023 00:34 -4,4 C -5,6 C 78 % 1027,9 hPa 0,0 l/m 11,3 km/h (2 Bft) N-NO 22 0 min 0,0 UV-I 0 W/m -7,6 C -9,5 C 14,5 km/h (3 Bft)
27.02.2023 00:35 -4,4 C -6,1 C 78 % 1027,8 hPa 0,0 l/m 11,3 km/h (2 Bft) N-NO 22 0 min 0,0 UV-I 0 W/m -7,6 C -9,5 C 14,5 km/h (3 Bft)
27.02.2023 00:36 -4,5 C -6,1 C 78 % 1027,9 hPa 0,0 l/m 11,3 km/h (2 Bft) N-NO 22 0 min 0,0 UV-I 0 W/m -7,7 C -9,6 C 16,1 km/h (3 Bft)
27.02.2023 00:37 -4,6 C -6,1 C 78 % 1027,9 hPa 0,0 l/m 16,1 km/h (3 Bft) N-NO 22 0 min 0,0 UV-I 0 W/m -7,8 C -13,3 C 19,3 km/h (3 Bft)
27.02.2023 00:38 -4,6 C -6,1 C 78 % 1027,8 hPa 0,0 l/m 11,3 km/h (2 Bft) N-NO 22 0 min 0,0 UV-I 0 W/m -7,8 C -9,7 C 16,1 km/h (3 Bft)
27.02.2023 00:39 -4,6 C -6,1 C 79 % 1027,8 hPa 0,0 l/m 12,9 km/h (3 Bft) N-NO 22 0 min 0,0 UV-I 0 W/m -7,7 C -11,0 C 16,1 km/h (3 Bft)
27.02.2023 00:40 -4,6 C -6,1 C 79 % 1027,9 hPa 0,0 l/m 12,9 km/h (3 Bft) N 360 0 min 0,0 UV-I 0 W/m -7,7 C -11,0 C 16,1 km/h (3 Bft)
27.02.2023 00:41 -4,6 C -6,1 C 79 % 1027,8 hPa 0,0 l/m 12,9 km/h (3 Bft) N-NO 22 0 min 0,0 UV-I 0 W/m -7,7 C -11,0 C 14,5 km/h (3 Bft)
27.02.2023 00:42 -4,6 C -6,1 C 79 % 1027,8 hPa 0,0 l/m 11,3 km/h (2 Bft) N-NO 22 0 min 0,0 UV-I 0 W/m -7,7 C -9,7 C 16,1 km/h (3 Bft)
27.02.2023 00:43 -4,6 C -6,1 C 79 % 1027,8 hPa 0,0 l/m 14,5 km/h (3 Bft) N-NO 22 0 min 0,0 UV-I 0 W/m -7,7 C -12,2 C 20,9 km/h (4 Bft)
27.02.2023 00:44 -4,5 C -6,1 C 79 % 1027,8 hPa 0,0 l/m 14,5 km/h (3 Bft) N-NO 22 0 min 0,0 UV-I 0 W/m -7,6 C -12,1 C 17,7 km/h (3 Bft)
27.02.2023 00:45 -4,5 C -6,1 C 79 % 1027,9 hPa 0,0 l/m 16,1 km/h (3 Bft) N-NO 22 0 min 0,0 UV-I 0 W/m -7,6 C -13,2 C 19,3 km/h (3 Bft)
27.02.2023 00:46 -4,4 C -6,1 C 79 % 1027,8 hPa 0,0 l/m 16,1 km/h (3 Bft) N-NO 22 0 min 0,0 UV-I 0 W/m -7,5 C -13,0 C 22,5 km/h (4 Bft)
27.02.2023 00:47 -4,4 C -6,1 C 79 % 1027,9 hPa 0,0 l/m 16,1 km/h (3 Bft) N-NO 22 0 min 0,0 UV-I 0 W/m -7,5 C -13,0 C 19,3 km/h (3 Bft)
27.02.2023 00:48 -4,4 C -6,1 C 79 % 1027,8 hPa 0,0 l/m 16,1 km/h (3 Bft) N-NO 22 0 min 0,0 UV-I 0 W/m -7,5 C -13,0 C 24,1 km/h (4 Bft)
27.02.2023 00:49 -4,3 C -6,1 C 79 % 1027,8 hPa 0,0 l/m 16,1 km/h (3 Bft) N-NO 22 0 min 0,0 UV-I 0 W/m -7,4 C -12,9 C 20,9 km/h (4 Bft)
27.02.2023 00:50 -4,3 C -5,6 C 79 % 1027,9 hPa 0,0 l/m 14,5 km/h (3 Bft) N-NO 22 0 min 0,0 UV-I 0 W/m -7,4 C -11,8 C 24,1 km/h (4 Bft)
27.02.2023 00:51 -4,3 C -5,6 C 79 % 1027,9 hPa 0,0 l/m 19,3 km/h (3 Bft) N-NO 22 0 min 0,0 UV-I 0 W/m -7,4 C -14,8 C 22,5 km/h (4 Bft)
27.02.2023 00:52 -4,3 C -5,6 C 79 % 1027,7 hPa 0,0 l/m 19,3 km/h (3 Bft) N-NO 22 0 min 0,0 UV-I 0 W/m -7,4 C -14,8 C 22,5 km/h (4 Bft)
27.02.2023 00:53 -4,3 C -5,6 C 79 % 1027,7 hPa 0,0 l/m 12,9 km/h (3 Bft) N-NO 22 0 min 0,0 UV-I 0 W/m -7,4 C -10,7 C 19,3 km/h (3 Bft)
27.02.2023 00:54 -4,3 C -5,6 C 79 % 1027,8 hPa 0,0 l/m 11,3 km/h (2 Bft) N-NO 22 0 min 0,0 UV-I 0 W/m -7,4 C -9,4 C 22,5 km/h (4 Bft)
27.02.2023 00:55 -4,3 C -5,6 C 79 % 1027,8 hPa 0,0 l/m 14,5 km/h (3 Bft) N-NO 22 0 min 0,0 UV-I 0 W/m -7,4 C -11,8 C 19,3 km/h (3 Bft)
27.02.2023 00:56 -4,3 C -5,6 C 79 % 1027,7 hPa 0,0 l/m 12,9 km/h (3 Bft) N-NO 22 0 min 0,0 UV-I 0 W/m -7,4 C -10,7 C 17,7 km/h (3 Bft)
27.02.2023 00:57 -4,3 C -5,6 C 79 % 1027,8 hPa 0,0 l/m 12,9 km/h (3 Bft) N-NO 22 0 min 0,0 UV-I 0 W/m -7,4 C -10,7 C 19,3 km/h (3 Bft)
27.02.2023 00:58 -4,3 C -6,1 C 79 % 1027,7 hPa 0,0 l/m 14,5 km/h (3 Bft) N-NO 22 0 min 0,0 UV-I 0 W/m -7,4 C -11,8 C 19,3 km/h (3 Bft)
27.02.2023 00:59 -4,3 C -6,1 C 79 % 1027,8 hPa 0,0 l/m 14,5 km/h (3 Bft) N-NO 22 0 min 0,0 UV-I 0 W/m -7,4 C -11,8 C 19,3 km/h (3 Bft)
27.02.2023 01:00 -4,3 C -5,6 C 79 % 1027,9 hPa 0,0 l/m 12,9 km/h (3 Bft) N-NO 22 0 min 0,0 UV-I 0 W/m -7,4 C -10,7 C 20,9 km/h (4 Bft)
27.02.2023 01:01 -4,3 C -6,1 C 79 % 1027,8 hPa 0,0 l/m 16,1 km/h (3 Bft) N-NO 22 0 min 0,0 UV-I 0 W/m -7,4 C -12,9 C 20,9 km/h (4 Bft)
27.02.2023 01:02 -4,3 C -5,6 C 79 % 1027,9 hPa 0,0 l/m 19,3 km/h (3 Bft) N-NO 22 0 min 0,0 UV-I 0 W/m -7,4 C -14,8 C 27,4 km/h (4 Bft)
27.02.2023 01:03 -4,3 C -5,6 C 79 % 1027,8 hPa 0,0 l/m 16,1 km/h (3 Bft) N-NO 22 0 min 0,0 UV-I 0 W/m -7,4 C -12,9 C 27,4 km/h (4 Bft)
27.02.2023 01:04 -4,3 C -5,6 C 79 % 1027,7 hPa 0,0 l/m 12,9 km/h (3 Bft) N-NO 22 0 min 0,0 UV-I 0 W/m -7,4 C -10,7 C 20,9 km/h (4 Bft)
27.02.2023 01:05 -4,2 C -5,6 C 79 % 1027,9 hPa 0,0 l/m 12,9 km/h (3 Bft) N-NO 22 0 min 0,0 UV-I 0 W/m -7,3 C -10,6 C 19,3 km/h (3 Bft)
27.02.2023 01:06 -4,2 C -5,6 C 79 % 1027,8 hPa 0,0 l/m 17,7 km/h (3 Bft) N-NO 22 0 min 0,0 UV-I 0 W/m -7,3 C -13,8 C 25,7 km/h (4 Bft)
27.02.2023 01:07 -4,2 C -5,6 C 79 % 1027,9 hPa 0,0 l/m 16,1 km/h (3 Bft) N-NO 22 0 min 0,0 UV-I 0 W/m -7,3 C -12,8 C 19,3 km/h (3 Bft)
27.02.2023 01:08 -4,2 C -5,6 C 79 % 1027,8 hPa 0,0 l/m 14,5 km/h (3 Bft) N-NO 22 0 min 0,0 UV-I 0 W/m -7,3 C -11,7 C 19,3 km/h (3 Bft)
27.02.2023 01:09 -4,2 C -5,6 C 79 % 1027,8 hPa 0,0 l/m 19,3 km/h (3 Bft) N-NO 22 0 min 0,0 UV-I 0 W/m -7,3 C -14,7 C 24,1 km/h (4 Bft)
27.02.2023 01:10 -4,2 C -5,6 C 79 % 1027,8 hPa 0,0 l/m 14,5 km/h (3 Bft) N-NO 22 0 min 0,0 UV-I 0 W/m -7,3 C -11,7 C 17,7 km/h (3 Bft)
27.02.2023 01:11 -4,2 C -5,6 C 79 % 1027,8 hPa 0,0 l/m 19,3 km/h (3 Bft) N-NO 22 0 min 0,0 UV-I 0 W/m -7,3 C -14,7 C 20,9 km/h (4 Bft)
27.02.2023 01:12 -4,2 C -5,6 C 79 % 1027,8 hPa 0,0 l/m 16,1 km/h (3 Bft) N-NO 22 0 min 0,0 UV-I 0 W/m -7,3 C -12,8 C 19,3 km/h (3 Bft)
27.02.2023 01:13 -4,2 C -5,6 C 79 % 1027,8 hPa 0,0 l/m 16,1 km/h (3 Bft) N-NO 22 0 min 0,0 UV-I 0 W/m -7,3 C -12,8 C 22,5 km/h (4 Bft)
27.02.2023 01:14 -4,2 C -5,6 C 79 % 1027,8 hPa 0,0 l/m 16,1 km/h (3 Bft) N-NO 22 0 min 0,0 UV-I 0 W/m -7,3 C -12,8 C 20,9 km/h (4 Bft)
27.02.2023 01:15 -4,1 C -5,6 C 79 % 1027,8 hPa 0,0 l/m 17,7 km/h (3 Bft) N-NO 22 0 min 0,0 UV-I 0 W/m -7,2 C -13,7 C 20,9 km/h (4 Bft)
27.02.2023 01:16 -4,2 C -5,6 C 79 % 1027,8 hPa 0,0 l/m 17,7 km/h (3 Bft) N-NO 22 0 min 0,0 UV-I 0 W/m -7,3 C -13,8 C 20,9 km/h (4 Bft)
27.02.2023 01:17 -4,2 C -5,6 C 79 % 1027,8 hPa 0,0 l/m 14,5 km/h (3 Bft) N-NO 22 0 min 0,0 UV-I 0 W/m -7,3 C -11,7 C 19,3 km/h (3 Bft)
27.02.2023 01:18 -4,2 C -5,6 C 79 % 1027,8 hPa 0,0 l/m 16,1 km/h (3 Bft) N-NO 22 0 min 0,0 UV-I 0 W/m -7,3 C -12,8 C 17,7 km/h (3 Bft)
27.02.2023 01:19 -4,2 C -5,6 C 79 % 1028,0 hPa 0,0 l/m 19,3 km/h (3 Bft) N-NO 22 0 min 0,0 UV-I 0 W/m -7,3 C -14,7 C 24,1 km/h (4 Bft)
27.02.2023 01:20 -4,2 C -5,6 C 79 % 1027,9 hPa 0,0 l/m 16,1 km/h (3 Bft) N-NO 22 0 min 0,0 UV-I 0 W/m -7,3 C -12,8 C 19,3 km/h (3 Bft)
27.02.2023 01:21 -4,1 C -5,6 C 79 % 1027,8 hPa 0,0 l/m 14,5 km/h (3 Bft) N-NO 22 0 min 0,0 UV-I 0 W/m -7,2 C -11,6 C 20,9 km/h (4 Bft)
27.02.2023 01:22 -4,1 C -5,6 C 79 % 1027,8 hPa 0,0 l/m 16,1 km/h (3 Bft) N-NO 22 0 min 0,0 UV-I 0 W/m -7,2 C -12,7 C 22,5 km/h (4 Bft)
27.02.2023 01:23 -4,1 C -5,6 C 79 % 1027,8 hPa 0,0 l/m 14,5 km/h (3 Bft) N-NO 22 0 min 0,0 UV-I 0 W/m -7,2 C -11,6 C 19,3 km/h (3 Bft)
27.02.2023 01:24 -4,1 C -5,6 C 79 % 1027,8 hPa 0,0 l/m 16,1 km/h (3 Bft) N-NO 22 0 min 0,0 UV-I 0 W/m -7,2 C -12,7 C 22,5 km/h (4 Bft)
27.02.2023 01:25 -4,1 C -5,6 C 79 % 1027,9 hPa 0,0 l/m 16,1 km/h (3 Bft) N-NO 22 0 min 0,0 UV-I 0 W/m -7,2 C -12,7 C 22,5 km/h (4 Bft)
27.02.2023 01:26 -4,2 C -5,6 C 79 % 1027,8 hPa 0,0 l/m 16,1 km/h (3 Bft) N-NO 22 0 min 0,0 UV-I 0 W/m -7,3 C -12,8 C 20,9 km/h (4 Bft)
27.02.2023 01:27 -4,1 C -5,6 C 79 % 1027,8 hPa 0,0 l/m 16,1 km/h (3 Bft) N-NO 22 0 min 0,0 UV-I 0 W/m -7,2 C -12,7 C 19,3 km/h (3 Bft)
27.02.2023 01:28 -4,1 C -5,6 C 79 % 1027,8 hPa 0,0 l/m 17,7 km/h (3 Bft) N-NO 22 0 min 0,0 UV-I 0 W/m -7,2 C -13,7 C 20,9 km/h (4 Bft)
27.02.2023 01:29 -4,1 C -5,6 C 79 % 1027,8 hPa 0,0 l/m 14,5 km/h (3 Bft) N-NO 22 0 min 0,0 UV-I 0 W/m -7,2 C -11,6 C 19,3 km/h (3 Bft)
27.02.2023 01:30 -4,1 C -5,6 C 79 % 1027,9 hPa 0,0 l/m 16,1 km/h (3 Bft) N-NO 22 0 min 0,0 UV-I 0 W/m -7,2 C -12,7 C 19,3 km/h (3 Bft)
27.02.2023 01:31 -4,1 C -5,6 C 79 % 1027,8 hPa 0,0 l/m 14,5 km/h (3 Bft) N-NO 22 0 min 0,0 UV-I 0 W/m -7,2 C -11,6 C 17,7 km/h (3 Bft)
27.02.2023 01:32 -4,1 C -5,6 C 79 % 1027,8 hPa 0,0 l/m 17,7 km/h (3 Bft) N 360 0 min 0,0 UV-I 0 W/m -7,2 C -13,7 C 20,9 km/h (4 Bft)
27.02.2023 01:33 -4,1 C -5,6 C 79 % 1027,8 hPa 0,0 l/m 12,9 km/h (3 Bft) N-NO 22 0 min 0,0 UV-I 0 W/m -7,2 C -10,4 C 19,3 km/h (3 Bft)
27.02.2023 01:34 -4,1 C -5,6 C 79 % 1027,7 hPa 0,0 l/m 17,7 km/h (3 Bft) N-NO 22 0 min 0,0 UV-I 0 W/m -7,2 C -13,7 C 20,9 km/h (4 Bft)
27.02.2023 01:35 -4,1 C -5,6 C 79 % 1027,8 hPa 0,0 l/m 14,5 km/h (3 Bft) N-NO 22 0 min 0,0 UV-I 0 W/m -7,2 C -11,6 C 17,7 km/h (3 Bft)
27.02.2023 01:36 -4,2 C -5,6 C 79 % 1027,8 hPa 0,0 l/m 17,7 km/h (3 Bft) N-NO 22 0 min 0,0 UV-I 0 W/m -7,3 C -13,8 C 20,9 km/h (4 Bft)
27.02.2023 01:37 -4,2 C -5,6 C 80 % 1027,9 hPa 0,0 l/m 16,1 km/h (3 Bft) N-NO 22 0 min 0,0 UV-I 0 W/m -7,1 C -12,8 C 20,9 km/h (4 Bft)
27.02.2023 01:38 -4,2 C -5,6 C 80 % 1027,8 hPa 0,0 l/m 17,7 km/h (3 Bft) N-NO 22 0 min 0,0 UV-I 0 W/m -7,1 C -13,8 C 22,5 km/h (4 Bft)
27.02.2023 01:39 -4,1 C -5,6 C 80 % 1027,8 hPa 0,0 l/m 19,3 km/h (3 Bft) N-NO 22 0 min 0,0 UV-I 0 W/m -7,0 C -14,6 C 25,7 km/h (4 Bft)
27.02.2023 01:40 -4,1 C -5,6 C 80 % 1027,8 hPa 0,0 l/m 14,5 km/h (3 Bft) N-NO 22 0 min 0,0 UV-I 0 W/m -7,0 C -11,6 C 17,7 km/h (3 Bft)
27.02.2023 01:41 -4,1 C -5,6 C 80 % 1027,8 hPa 0,0 l/m 16,1 km/h (3 Bft) N-NO 22 0 min 0,0 UV-I 0 W/m -7,0 C -12,7 C 20,9 km/h (4 Bft)
27.02.2023 01:42 -4,1 C -5,6 C 80 % 1027,8 hPa 0,0 l/m 16,1 km/h (3 Bft) N-NO 22 0 min 0,0 UV-I 0 W/m -7,0 C -12,7 C 20,9 km/h (4 Bft)
27.02.2023 01:43 -4,1 C -5,6 C 80 % 1028,2 hPa 0,0 l/m 19,3 km/h (3 Bft) N-NO 22 0 min 0,0 UV-I 0 W/m -7,0 C -14,6 C 27,4 km/h (4 Bft)
27.02.2023 01:44 -4,1 C -5,6 C 80 % 1027,7 hPa 0,0 l/m 17,7 km/h (3 Bft) N 360 0 min 0,0 UV-I 0 W/m -7,0 C -13,7 C 25,7 km/h (4 Bft)
27.02.2023 01:45 -4,1 C -5,6 C 80 % 1027,8 hPa 0,0 l/m 19,3 km/h (3 Bft) N-NO 22 0 min 0,0 UV-I 0 W/m -7,0 C -14,6 C 24,1 km/h (4 Bft)
27.02.2023 01:46 -4,1 C -5,6 C 80 % 1027,8 hPa 0,0 l/m 14,5 km/h (3 Bft) N-NO 22 0 min 0,0 UV-I 0 W/m -7,0 C -11,6 C 20,9 km/h (4 Bft)
27.02.2023 01:47 -4,1 C -5,6 C 80 % 1027,8 hPa 0,0 l/m 17,7 km/h (3 Bft) N-NO 22 0 min 0,0 UV-I 0 W/m -7,0 C -13,7 C 25,7 km/h (4 Bft)
27.02.2023 01:48 -4,1 C -5,6 C 80 % 1027,8 hPa 0,0 l/m 19,3 km/h (3 Bft) N-NO 22 0 min 0,0 UV-I 0 W/m -7,0 C -14,6 C 24,1 km/h (4 Bft)
27.02.2023 01:49 -4,1 C -5,6 C 80 % 1027,8 hPa 0,0 l/m 20,9 km/h (4 Bft) N-NO 22 0 min 0,0 UV-I 0 W/m -7,0 C -15,4 C 27,4 km/h (4 Bft)
27.02.2023 01:50 -4,1 C -5,6 C 80 % 1027,8 hPa 0,0 l/m 12,9 km/h (3 Bft) N-NO 22 0 min 0,0 UV-I 0 W/m -7,0 C -10,4 C 17,7 km/h (3 Bft)
27.02.2023 01:51 -4,1 C -5,6 C 80 % 1027,9 hPa 0,0 l/m 16,1 km/h (3 Bft) N-NO 22 0 min 0,0 UV-I 0 W/m -7,0 C -12,7 C 19,3 km/h (3 Bft)
27.02.2023 01:52 -4,1 C -5,6 C 80 % 1027,9 hPa 0,0 l/m 14,5 km/h (3 Bft) N-NO 22 0 min 0,0 UV-I 0 W/m -7,0 C -11,6 C 17,7 km/h (3 Bft)
27.02.2023 01:53 -4,1 C -5,6 C 80 % 1027,8 hPa 0,0 l/m 17,7 km/h (3 Bft) N-NO 22 0 min 0,0 UV-I 0 W/m -7,0 C -13,7 C 20,9 km/h (4 Bft)
27.02.2023 01:54 -4,1 C -5,6 C 80 % 1027,8 hPa 0,0 l/m 12,9 km/h (3 Bft) N-NO 22 0 min 0,0 UV-I 0 W/m -7,0 C -10,4 C 17,7 km/h (3 Bft)
27.02.2023 01:55 -4,1 C -5,6 C 80 % 1027,8 hPa 0,0 l/m 12,9 km/h (3 Bft) N-NO 22 0 min 0,0 UV-I 0 W/m -7,0 C -10,4 C 17,7 km/h (3 Bft)
27.02.2023 01:56 -4,2 C -5,6 C 80 % 1027,8 hPa 0,0 l/m 17,7 km/h (3 Bft) N-NO 22 0 min 0,0 UV-I 0 W/m -7,1 C -13,8 C 24,1 km/h (4 Bft)
27.02.2023 01:57 -4,2 C -5,6 C 80 % 1027,8 hPa 0,0 l/m 17,7 km/h (3 Bft) N-NO 22 0 min 0,0 UV-I 0 W/m -7,1 C -13,8 C 22,5 km/h (4 Bft)
27.02.2023 01:58 -4,2 C -5,6 C 80 % 1027,9 hPa 0,0 l/m 14,5 km/h (3 Bft) N-NO 22 0 min 0,0 UV-I 0 W/m -7,1 C -11,7 C 20,9 km/h (4 Bft)
27.02.2023 01:59 -4,2 C -5,6 C 80 % 1027,8 hPa 0,0 l/m 16,1 km/h (3 Bft) N-NO 22 0 min 0,0 UV-I 0 W/m -7,1 C -12,8 C 19,3 km/h (3 Bft)
27.02.2023 02:00 -4,2 C -5,6 C 80 % 1027,9 hPa 0,0 l/m 14,5 km/h (3 Bft) N-NO 22 0 min 0,0 UV-I 0 W/m -7,1 C -11,7 C 19,3 km/h (3 Bft)
27.02.2023 02:01 -4,2 C -5,6 C 80 % 1027,9 hPa 0,0 l/m 22,5 km/h (4 Bft) N-NO 22 0 min 0,0 UV-I 0 W/m -7,1 C -16,3 C 30,6 km/h (5 Bft)
27.02.2023 02:02 -4,2 C -5,6 C 80 % 1027,9 hPa 0,0 l/m 16,1 km/h (3 Bft) N-NO 22 0 min 0,0 UV-I 0 W/m -7,1 C -12,8 C 30,6 km/h (5 Bft)
27.02.2023 02:03 -4,2 C -5,6 C 80 % 1027,9 hPa 0,0 l/m 16,1 km/h (3 Bft) N-NO 22 0 min 0,0 UV-I 0 W/m -7,1 C -12,8 C 20,9 km/h (4 Bft)
27.02.2023 02:04 -4,2 C -5,6 C 80 % 1027,9 hPa 0,0 l/m 19,3 km/h (3 Bft) N 360 0 min 0,0 UV-I 0 W/m -7,1 C -14,7 C 24,1 km/h (4 Bft)
27.02.2023 02:05 -4,2 C -5,6 C 80 % 1027,9 hPa 0,0 l/m 16,1 km/h (3 Bft) N-NO 22 0 min 0,0 UV-I 0 W/m -7,1 C -12,8 C 22,5 km/h (4 Bft)
27.02.2023 02:06 -4,2 C -5,6 C 80 % 1027,9 hPa 0,0 l/m 17,7 km/h (3 Bft) N-NO 22 0 min 0,0 UV-I 0 W/m -7,1 C -13,8 C 24,1 km/h (4 Bft)
27.02.2023 02:07 -4,2 C -5,6 C 80 % 1027,9 hPa 0,0 l/m 14,5 km/h (3 Bft) N-NO 22 0 min 0,0 UV-I 0 W/m -7,1 C -11,7 C 20,9 km/h (4 Bft)
27.02.2023 02:08 -4,2 C -5,6 C 80 % 1027,8 hPa 0,0 l/m 16,1 km/h (3 Bft) N-NO 22 0 min 0,0 UV-I 0 W/m -7,1 C -12,8 C 20,9 km/h (4 Bft)
27.02.2023 02:09 -4,3 C -5,6 C 80 % 1027,9 hPa 0,0 l/m 14,5 km/h (3 Bft) N-NO 22 0 min 0,0 UV-I 0 W/m -7,2 C -11,8 C 20,9 km/h (4 Bft)
27.02.2023 02:10 -4,3 C -5,6 C 81 % 1027,9 hPa 0,0 l/m 14,5 km/h (3 Bft) N-NO 22 0 min 0,0 UV-I 0 W/m -7,1 C -11,8 C 19,3 km/h (3 Bft)
27.02.2023 02:11 -4,3 C -5,6 C 81 % 1027,8 hPa 0,0 l/m 19,3 km/h (3 Bft) N-NO 22 0 min 0,0 UV-I 0 W/m -7,1 C -14,8 C 20,9 km/h (4 Bft)
27.02.2023 02:12 -4,3 C -5,6 C 81 % 1027,8 hPa 0,0 l/m 16,1 km/h (3 Bft) N-NO 22 0 min 0,0 UV-I 0 W/m -7,1 C -12,9 C 22,5 km/h (4 Bft)
27.02.2023 02:13 -4,2 C -5,6 C 81 % 1027,8 hPa 0,0 l/m 16,1 km/h (3 Bft) N-NO 22 0 min 0,0 UV-I 0 W/m -7,0 C -12,8 C 22,5 km/h (4 Bft)
27.02.2023 02:14 -4,2 C -5,6 C 81 % 1027,8 hPa 0,0 l/m 16,1 km/h (3 Bft) N-NO 22 0 min 0,0 UV-I 0 W/m -7,0 C -12,8 C 20,9 km/h (4 Bft)
27.02.2023 02:15 -4,2 C -5,6 C 81 % 1027,8 hPa 0,0 l/m 16,1 km/h (3 Bft) N-NO 22 0 min 0,0 UV-I 0 W/m -7,0 C -12,8 C 20,9 km/h (4 Bft)
27.02.2023 02:16 -4,2 C -5,6 C 81 % 1027,8 hPa 0,0 l/m 17,7 km/h (3 Bft) N-NO 22 0 min 0,0 UV-I 0 W/m -7,0 C -13,8 C 20,9 km/h (4 Bft)
27.02.2023 02:17 -4,2 C -5,6 C 81 % 1027,9 hPa 0,0 l/m 16,1 km/h (3 Bft) N 360 0 min 0,0 UV-I 0 W/m -7,0 C -12,8 C 22,5 km/h (4 Bft)
27.02.2023 02:18 -4,2 C -5,6 C 81 % 1027,8 hPa 0,0 l/m 20,9 km/h (4 Bft) N-NO 22 0 min 0,0 UV-I 0 W/m -7,0 C -15,5 C 27,4 km/h (4 Bft)
27.02.2023 02:19 -4,2 C -5,6 C 81 % 1027,8 hPa 0,0 l/m 17,7 km/h (3 Bft) N-NO 22 0 min 0,0 UV-I 0 W/m -7,0 C -13,8 C 22,5 km/h (4 Bft)
27.02.2023 02:20 -4,2 C -5,6 C 81 % 1027,8 hPa 0,0 l/m 17,7 km/h (3 Bft) N-NO 22 0 min 0,0 UV-I 0 W/m -7,0 C -13,8 C 22,5 km/h (4 Bft)
27.02.2023 02:21 -4,2 C -5,6 C 81 % 1027,9 hPa 0,0 l/m 17,7 km/h (3 Bft) N-NO 22 0 min 0,0 UV-I 0 W/m -7,0 C -13,8 C 22,5 km/h (4 Bft)
27.02.2023 02:22 -4,2 C -5,6 C 81 % 1027,9 hPa 0,0 l/m 20,9 km/h (4 Bft) N-NO 22 0 min 0,0 UV-I 0 W/m -7,0 C -15,5 C 27,4 km/h (4 Bft)
27.02.2023 02:23 -4,2 C -5,6 C 81 % 1027,9 hPa 0,0 l/m 17,7 km/h (3 Bft) N-NO 22 0 min 0,0 UV-I 0 W/m -7,0 C -13,8 C 24,1 km/h (4 Bft)
27.02.2023 02:24 -4,2 C -5,6 C 81 % 1027,9 hPa 0,0 l/m 16,1 km/h (3 Bft) N-NO 22 0 min 0,0 UV-I 0 W/m -7,0 C -12,8 C 19,3 km/h (3 Bft)
27.02.2023 02:25 -4,2 C -5,6 C 81 % 1027,9 hPa 0,0 l/m 14,5 km/h (3 Bft) N 360 0 min 0,0 UV-I 0 W/m -7,0 C -11,7 C 22,5 km/h (4 Bft)
27.02.2023 02:26 -4,2 C -5,6 C 81 % 1027,9 hPa 0,0 l/m 19,3 km/h (3 Bft) N-NO 22 0 min 0,0 UV-I 0 W/m -7,0 C -14,7 C 24,1 km/h (4 Bft)
27.02.2023 02:27 -4,2 C -5,6 C 81 % 1027,9 hPa 0,0 l/m 17,7 km/h (3 Bft) N-NO 22 0 min 0,0 UV-I 0 W/m -7,0 C -13,8 C 25,7 km/h (4 Bft)
27.02.2023 02:28 -4,2 C -5,6 C 81 % 1027,8 hPa 0,0 l/m 12,9 km/h (3 Bft) N-NO 22 0 min 0,0 UV-I 0 W/m -7,0 C -10,6 C 19,3 km/h (3 Bft)
27.02.2023 02:29 -4,2 C -5,6 C 81 % 1027,9 hPa 0,0 l/m 17,7 km/h (3 Bft) N-NO 22 0 min 0,0 UV-I 0 W/m -7,0 C -13,8 C 24,1 km/h (4 Bft)
27.02.2023 02:30 -4,2 C -5,6 C 81 % 1027,8 hPa 0,0 l/m 17,7 km/h (3 Bft) N-NO 22 0 min 0,0 UV-I 0 W/m -7,0 C -13,8 C 25,7 km/h (4 Bft)
27.02.2023 02:31 -4,2 C -5,6 C 81 % 1027,9 hPa 0,0 l/m 16,1 km/h (3 Bft) N-NO 22 0 min 0,0 UV-I 0 W/m -7,0 C -12,8 C 22,5 km/h (4 Bft)
27.02.2023 02:32 -4,2 C -5,6 C 81 % 1027,8 hPa 0,0 l/m 16,1 km/h (3 Bft) N-NO 22 0 min 0,0 UV-I 0 W/m -7,0 C -12,8 C 24,1 km/h (4 Bft)
27.02.2023 02:33 -4,2 C -5,6 C 81 % 1027,9 hPa 0,0 l/m 17,7 km/h (3 Bft) N-NO 22 0 min 0,0 UV-I 0 W/m -7,0 C -13,8 C 22,5 km/h (4 Bft)
27.02.2023 02:34 -4,2 C -5,6 C 81 % 1027,8 hPa 0,0 l/m 17,7 km/h (3 Bft) N 360 0 min 0,0 UV-I 0 W/m -7,0 C -13,8 C 25,7 km/h (4 Bft)
27.02.2023 02:35 -4,3 C -5,6 C 81 % 1027,8 hPa 0,0 l/m 20,9 km/h (4 Bft) N-NO 22 0 min 0,0 UV-I 0 W/m -7,1 C -15,7 C 29,0 km/h (5 Bft)
27.02.2023 02:36 -4,2 C -5,6 C 81 % 1027,9 hPa 0,0 l/m 16,1 km/h (3 Bft) N 360 0 min 0,0 UV-I 0 W/m -7,0 C -12,8 C 20,9 km/h (4 Bft)
27.02.2023 02:37 -4,2 C -5,6 C 81 % 1027,9 hPa 0,0 l/m 16,1 km/h (3 Bft) N-NO 22 0 min 0,0 UV-I 0 W/m -7,0 C -12,8 C 20,9 km/h (4 Bft)
27.02.2023 02:38 -4,2 C -5,6 C 81 % 1027,8 hPa 0,0 l/m 14,5 km/h (3 Bft) N-NO 22 0 min 0,0 UV-I 0 W/m -7,0 C -11,7 C 20,9 km/h (4 Bft)
27.02.2023 02:39 -4,3 C -5,6 C 81 % 1027,8 hPa 0,0 l/m 16,1 km/h (3 Bft) N-NO 22 0 min 0,0 UV-I 0 W/m -7,1 C -12,9 C 20,9 km/h (4 Bft)
27.02.2023 02:40 -4,3 C -5,6 C 81 % 1027,8 hPa 0,0 l/m 19,3 km/h (3 Bft) N-NO 22 0 min 0,0 UV-I 0 W/m -7,1 C -14,8 C 24,1 km/h (4 Bft)
27.02.2023 02:41 -4,3 C -5,6 C 81 % 1027,8 hPa 0,0 l/m 19,3 km/h (3 Bft) N-NO 22 0 min 0,0 UV-I 0 W/m -7,1 C -14,8 C 22,5 km/h (4 Bft)
27.02.2023 02:42 -4,3 C -5,6 C 81 % 1027,8 hPa 0,0 l/m 14,5 km/h (3 Bft) N 360 0 min 0,0 UV-I 0 W/m -7,1 C -11,8 C 19,3 km/h (3 Bft)
27.02.2023 02:43 -4,3 C -5,6 C 81 % 1027,8 hPa 0,0 l/m 16,1 km/h (3 Bft) N-NO 22 0 min 0,0 UV-I 0 W/m -7,1 C -12,9 C 20,9 km/h (4 Bft)
27.02.2023 02:44 -4,3 C -5,6 C 81 % 1027,8 hPa 0,0 l/m 14,5 km/h (3 Bft) N-NO 22 0 min 0,0 UV-I 0 W/m -7,1 C -11,8 C 19,3 km/h (3 Bft)
27.02.2023 02:45 -4,3 C -5,6 C 81 % 1027,7 hPa 0,0 l/m 19,3 km/h (3 Bft) N-NO 22 0 min 0,0 UV-I 0 W/m -7,1 C -14,8 C 25,7 km/h (4 Bft)
27.02.2023 02:46 -4,3 C -5,6 C 81 % 1027,7 hPa 0,0 l/m 14,5 km/h (3 Bft) N 360 0 min 0,0 UV-I 0 W/m -7,1 C -11,8 C 24,1 km/h (4 Bft)
27.02.2023 02:47 -4,3 C -5,6 C 81 % 1027,7 hPa 0,0 l/m 16,1 km/h (3 Bft) N-NO 22 0 min 0,0 UV-I 0 W/m -7,1 C -12,9 C 19,3 km/h (3 Bft)
27.02.2023 02:48 -4,3 C -5,6 C 81 % 1027,7 hPa 0,0 l/m 17,7 km/h (3 Bft) N-NO 22 0 min 0,0 UV-I 0 W/m -7,1 C -13,9 C 24,1 km/h (4 Bft)
27.02.2023 02:49 -4,3 C -5,6 C 81 % 1027,8 hPa 0,0 l/m 20,9 km/h (4 Bft) N-NO 22 0 min 0,0 UV-I 0 W/m -7,1 C -15,7 C 24,1 km/h (4 Bft)
27.02.2023 02:50 -4,3 C -5,6 C 81 % 1027,7 hPa 0,0 l/m 16,1 km/h (3 Bft) N-NO 22 0 min 0,0 UV-I 0 W/m -7,1 C -12,9 C 20,9 km/h (4 Bft)
27.02.2023 02:51 -4,3 C -5,6 C 81 % 1027,7 hPa 0,0 l/m 17,7 km/h (3 Bft) N-NO 22 0 min 0,0 UV-I 0 W/m -7,1 C -13,9 C 22,5 km/h (4 Bft)
27.02.2023 02:52 -4,3 C -5,6 C 81 % 1027,7 hPa 0,0 l/m 17,7 km/h (3 Bft) N-NO 22 0 min 0,0 UV-I 0 W/m -7,1 C -13,9 C 20,9 km/h (4 Bft)
27.02.2023 02:53 -4,2 C -5,6 C 81 % 1027,7 hPa 0,0 l/m 16,1 km/h (3 Bft) N-NO 22 0 min 0,0 UV-I 0 W/m -7,0 C -12,8 C 24,1 km/h (4 Bft)
27.02.2023 02:54 -4,3 C -5,6 C 81 % 1027,7 hPa 0,0 l/m 16,1 km/h (3 Bft) N-NO 22 0 min 0,0 UV-I 0 W/m -7,1 C -12,9 C 20,9 km/h (4 Bft)
27.02.2023 02:55 -4,2 C -5,6 C 81 % 1027,8 hPa 0,0 l/m 16,1 km/h (3 Bft) N-NO 22 0 min 0,0 UV-I 0 W/m -7,0 C -12,8 C 22,5 km/h (4 Bft)
27.02.2023 02:56 -4,3 C -5,6 C 81 % 1027,7 hPa 0,0 l/m 12,9 km/h (3 Bft) N-NO 22 0 min 0,0 UV-I 0 W/m -7,1 C -10,7 C 20,9 km/h (4 Bft)
27.02.2023 02:57 -4,3 C -5,6 C 81 % 1027,7 hPa 0,0 l/m 16,1 km/h (3 Bft) N-NO 22 0 min 0,0 UV-I 0 W/m -7,1 C -12,9 C 24,1 km/h (4 Bft)
27.02.2023 02:58 -4,3 C -5,6 C 81 % 1027,7 hPa 0,0 l/m 19,3 km/h (3 Bft) N-NO 22 0 min 0,0 UV-I 0 W/m -7,1 C -14,8 C 27,4 km/h (4 Bft)
27.02.2023 02:59 -4,3 C -5,6 C 81 % 1027,8 hPa 0,0 l/m 17,7 km/h (3 Bft) N-NO 22 0 min 0,0 UV-I 0 W/m -7,1 C -13,9 C 25,7 km/h (4 Bft)
27.02.2023 03:00 -4,3 C -5,6 C 81 % 1027,6 hPa 0,0 l/m 16,1 km/h (3 Bft) N-NO 22 0 min 0,0 UV-I 0 W/m -7,1 C -12,9 C 25,7 km/h (4 Bft)
27.02.2023 03:01 -4,3 C -5,6 C 81 % 1027,8 hPa 0,0 l/m 16,1 km/h (3 Bft) N-NO 22 0 min 0,0 UV-I 0 W/m -7,1 C -12,9 C 20,9 km/h (4 Bft)
27.02.2023 03:02 -4,3 C -5,6 C 81 % 1027,8 hPa 0,0 l/m 14,5 km/h (3 Bft) N-NO 22 0 min 0,0 UV-I 0 W/m -7,1 C -11,8 C 19,3 km/h (3 Bft)
27.02.2023 03:03 -4,3 C -5,6 C 81 % 1027,8 hPa 0,0 l/m 17,7 km/h (3 Bft) N-NO 22 0 min 0,0 UV-I 0 W/m -7,1 C -13,9 C 20,9 km/h (4 Bft)
27.02.2023 03:04 -4,3 C -5,6 C 81 % 1027,7 hPa 0,0 l/m 16,1 km/h (3 Bft) N-NO 22 0 min 0,0 UV-I 0 W/m -7,1 C -12,9 C 20,9 km/h (4 Bft)
27.02.2023 03:05 -4,4 C -5,6 C 81 % 1027,8 hPa 0,0 l/m 16,1 km/h (3 Bft) N-NO 22 0 min 0,0 UV-I 0 W/m -7,2 C -13,0 C 22,5 km/h (4 Bft)
27.02.2023 03:06 -4,3 C -5,6 C 81 % 1027,7 hPa 0,0 l/m 20,9 km/h (4 Bft) N-NO 22 0 min 0,0 UV-I 0 W/m -7,1 C -15,7 C 25,7 km/h (4 Bft)
27.02.2023 03:07 -4,3 C -5,6 C 81 % 1027,8 hPa 0,0 l/m 17,7 km/h (3 Bft) N-NO 22 0 min 0,0 UV-I 0 W/m -7,1 C -13,9 C 20,9 km/h (4 Bft)
27.02.2023 03:08 -4,3 C -5,6 C 81 % 1027,8 hPa 0,0 l/m 19,3 km/h (3 Bft) N-NO 22 0 min 0,0 UV-I 0 W/m -7,1 C -14,8 C 24,1 km/h (4 Bft)
27.02.2023 03:09 -4,4 C -5,6 C 81 % 1027,7 hPa 0,0 l/m 19,3 km/h (3 Bft) N-NO 22 0 min 0,0 UV-I 0 W/m -7,2 C -14,9 C 24,1 km/h (4 Bft)
27.02.2023 03:10 -4,3 C -5,6 C 81 % 1027,7 hPa 0,0 l/m 20,9 km/h (4 Bft) N-NO 22 0 min 0,0 UV-I 0 W/m -7,1 C -15,7 C 29,0 km/h (5 Bft)
27.02.2023 03:11 -4,3 C -5,6 C 81 % 1027,7 hPa 0,0 l/m 20,9 km/h (4 Bft) N-NO 22 0 min 0,0 UV-I 0 W/m -7,1 C -15,7 C 25,7 km/h (4 Bft)
27.02.2023 03:12 -4,3 C -5,6 C 81 % 1027,7 hPa 0,0 l/m 19,3 km/h (3 Bft) N-NO 22 0 min 0,0 UV-I 0 W/m -7,1 C -14,8 C 25,7 km/h (4 Bft)
27.02.2023 03:13 -4,3 C -5,6 C 81 % 1027,7 hPa 0,0 l/m 19,3 km/h (3 Bft) N-NO 22 0 min 0,0 UV-I 0 W/m -7,1 C -14,8 C 24,1 km/h (4 Bft)
27.02.2023 03:14 -4,3 C -5,6 C 81 % 1027,7 hPa 0,0 l/m 17,7 km/h (3 Bft) N-NO 22 0 min 0,0 UV-I 0 W/m -7,1 C -13,9 C 19,3 km/h (3 Bft)
27.02.2023 03:15 -4,3 C -5,6 C 81 % 1027,8 hPa 0,0 l/m 17,7 km/h (3 Bft) N-NO 22 0 min 0,0 UV-I 0 W/m -7,1 C -13,9 C 20,9 km/h (4 Bft)
27.02.2023 03:16 -4,3 C -5,6 C 81 % 1027,7 hPa 0,0 l/m 16,1 km/h (3 Bft) N-NO 22 0 min 0,0 UV-I 0 W/m -7,1 C -12,9 C 20,9 km/h (4 Bft)
27.02.2023 03:17 -4,4 C -5,6 C 81 % 1027,7 hPa 0,0 l/m 16,1 km/h (3 Bft) N-NO 22 0 min 0,0 UV-I 0 W/m -7,2 C -13,0 C 19,3 km/h (3 Bft)
27.02.2023 03:18 -4,4 C -6,1 C 81 % 1027,6 hPa 0,0 l/m 12,9 km/h (3 Bft) N-NO 22 0 min 0,0 UV-I 0 W/m -7,2 C -10,8 C 19,3 km/h (3 Bft)
27.02.2023 03:19 -4,4 C -6,1 C 81 % 1027,7 hPa 0,0 l/m 14,5 km/h (3 Bft) N-NO 22 0 min 0,0 UV-I 0 W/m -7,2 C -12,0 C 17,7 km/h (3 Bft)
27.02.2023 03:20 -4,4 C -6,1 C 81 % 1027,6 hPa 0,0 l/m 16,1 km/h (3 Bft) N-NO 22 0 min 0,0 UV-I 0 W/m -7,2 C -13,0 C 19,3 km/h (3 Bft)
27.02.2023 03:21 -4,4 C -5,6 C 81 % 1027,7 hPa 0,0 l/m 16,1 km/h (3 Bft) N-NO 22 0 min 0,0 UV-I 0 W/m -7,2 C -13,0 C 20,9 km/h (4 Bft)
27.02.2023 03:22 -4,4 C -5,6 C 81 % 1027,7 hPa 0,0 l/m 17,7 km/h (3 Bft) N-NO 22 0 min 0,0 UV-I 0 W/m -7,2 C -14,0 C 24,1 km/h (4 Bft)
27.02.2023 03:23 -4,5 C -5,6 C 81 % 1027,7 hPa 0,0 l/m 16,1 km/h (3 Bft) N-NO 22 0 min 0,0 UV-I 0 W/m -7,3 C -13,2 C 19,3 km/h (3 Bft)
27.02.2023 03:24 -4,5 C -6,1 C 81 % 1027,6 hPa 0,0 l/m 16,1 km/h (3 Bft) N-NO 22 0 min 0,0 UV-I 0 W/m -7,3 C -13,2 C 20,9 km/h (4 Bft)
27.02.2023 03:25 -4,5 C -6,1 C 81 % 1027,7 hPa 0,0 l/m 14,5 km/h (3 Bft) N-NO 22 0 min 0,0 UV-I 0 W/m -7,3 C -12,1 C 17,7 km/h (3 Bft)
27.02.2023 03:26 -4,5 C -6,1 C 81 % 1027,7 hPa 0,0 l/m 14,5 km/h (3 Bft) N-NO 22 0 min 0,0 UV-I 0 W/m -7,3 C -12,1 C 20,9 km/h (4 Bft)
27.02.2023 03:27 -4,6 C -6,1 C 81 % 1027,7 hPa 0,0 l/m 20,9 km/h (4 Bft) N-NO 22 0 min 0,0 UV-I 0 W/m -7,4 C -16,0 C 27,4 km/h (4 Bft)
27.02.2023 03:28 -4,6 C -6,1 C 82 % 1027,6 hPa 0,0 l/m 17,7 km/h (3 Bft) N-NO 22 0 min 0,0 UV-I 0 W/m -7,2 C -14,3 C 20,9 km/h (4 Bft)
27.02.2023 03:29 -4,5 C -6,1 C 82 % 1027,7 hPa 0,0 l/m 16,1 km/h (3 Bft) N-NO 22 0 min 0,0 UV-I 0 W/m -7,1 C -13,2 C 19,3 km/h (3 Bft)
27.02.2023 03:30 -4,6 C -5,6 C 82 % 1027,7 hPa 0,0 l/m 17,7 km/h (3 Bft) N-NO 22 0 min 0,0 UV-I 0 W/m -7,2 C -14,3 C 24,1 km/h (4 Bft)
27.02.2023 03:31 -4,5 C -5,6 C 82 % 1027,7 hPa 0,0 l/m 17,7 km/h (3 Bft) N-NO 22 0 min 0,0 UV-I 0 W/m -7,1 C -14,2 C 22,5 km/h (4 Bft)
27.02.2023 03:32 -4,5 C -5,6 C 82 % 1027,7 hPa 0,0 l/m 14,5 km/h (3 Bft) N-NO 22 0 min 0,0 UV-I 0 W/m -7,1 C -12,1 C 17,7 km/h (3 Bft)
27.02.2023 03:33 -4,5 C -5,6 C 82 % 1027,7 hPa 0,0 l/m 16,1 km/h (3 Bft) N-NO 22 0 min 0,0 UV-I 0 W/m -7,1 C -13,2 C 20,9 km/h (4 Bft)
27.02.2023 03:34 -4,5 C -5,6 C 82 % 1027,7 hPa 0,0 l/m 14,5 km/h (3 Bft) N-NO 22 0 min 0,0 UV-I 0 W/m -7,1 C -12,1 C 19,3 km/h (3 Bft)
27.02.2023 03:35 -4,5 C -6,1 C 82 % 1027,7 hPa 0,0 l/m 17,7 km/h (3 Bft) N-NO 22 0 min 0,0 UV-I 0 W/m -7,1 C -14,2 C 19,3 km/h (3 Bft)
27.02.2023 03:36 -4,5 C -6,1 C 82 % 1027,7 hPa 0,0 l/m 16,1 km/h (3 Bft) N-NO 22 0 min 0,0 UV-I 0 W/m -7,1 C -13,2 C 20,9 km/h (4 Bft)
27.02.2023 03:37 -4,5 C -6,1 C 82 % 1027,7 hPa 0,0 l/m 16,1 km/h (3 Bft) N-NO 22 0 min 0,0 UV-I 0 W/m -7,1 C -13,2 C 19,3 km/h (3 Bft)
27.02.2023 03:38 -4,6 C -6,1 C 82 % 1027,8 hPa 0,0 l/m 17,7 km/h (3 Bft) N-NO 22 0 min 0,0 UV-I 0 W/m -7,2 C -14,3 C 22,5 km/h (4 Bft)
27.02.2023 03:39 -4,6 C -6,1 C 82 % 1027,7 hPa 0,0 l/m 16,1 km/h (3 Bft) N-NO 22 0 min 0,0 UV-I 0 W/m -7,2 C -13,3 C 19,3 km/h (3 Bft)
27.02.2023 03:40 -4,6 C -6,1 C 82 % 1027,6 hPa 0,0 l/m 19,3 km/h (3 Bft) N-NO 22 0 min 0,0 UV-I 0 W/m -7,2 C -15,2 C 20,9 km/h (4 Bft)
27.02.2023 03:41 -4,6 C -6,1 C 82 % 1027,7 hPa 0,0 l/m 16,1 km/h (3 Bft) N-NO 22 0 min 0,0 UV-I 0 W/m -7,2 C -13,3 C 19,3 km/h (3 Bft)
27.02.2023 03:42 -4,6 C -6,1 C 82 % 1027,7 hPa 0,0 l/m 17,7 km/h (3 Bft) N-NO 22 0 min 0,0 UV-I 0 W/m -7,2 C -14,3 C 22,5 km/h (4 Bft)
27.02.2023 03:43 -4,6 C -6,1 C 82 % 1027,7 hPa 0,0 l/m 17,7 km/h (3 Bft) N-NO 22 0 min 0,0 UV-I 0 W/m -7,2 C -14,3 C 20,9 km/h (4 Bft)
27.02.2023 03:44 -4,6 C -6,1 C 82 % 1027,7 hPa 0,0 l/m 19,3 km/h (3 Bft) N-NO 22 0 min 0,0 UV-I 0 W/m -7,2 C -15,2 C 24,1 km/h (4 Bft)
27.02.2023 03:45 -4,6 C -6,1 C 82 % 1027,7 hPa 0,0 l/m 17,7 km/h (3 Bft) N-NO 22 0 min 0,0 UV-I 0 W/m -7,2 C -14,3 C 24,1 km/h (4 Bft)
27.02.2023 03:46 -4,6 C -5,6 C 82 % 1027,7 hPa 0,0 l/m 14,5 km/h (3 Bft) N-NO 22 0 min 0,0 UV-I 0 W/m -7,2 C -12,2 C 19,3 km/h (3 Bft)
27.02.2023 03:47 -4,6 C -5,6 C 82 % 1027,8 hPa 0,0 l/m 16,1 km/h (3 Bft) N-NO 22 0 min 0,0 UV-I 0 W/m -7,2 C -13,3 C 19,3 km/h (3 Bft)
27.02.2023 03:48 -4,6 C -6,1 C 82 % 1027,9 hPa 0,0 l/m 14,5 km/h (3 Bft) N-NO 22 0 min 0,0 UV-I 0 W/m -7,2 C -12,2 C 17,7 km/h (3 Bft)
27.02.2023 03:49 -4,6 C -6,1 C 82 % 1027,7 hPa 0,0 l/m 14,5 km/h (3 Bft) N-NO 22 0 min 0,0 UV-I 0 W/m -7,2 C -12,2 C 19,3 km/h (3 Bft)
27.02.2023 03:50 -4,6 C -6,1 C 82 % 1027,8 hPa 0,0 l/m 14,5 km/h (3 Bft) N-NO 22 0 min 0,0 UV-I 0 W/m -7,2 C -12,2 C 19,3 km/h (3 Bft)
27.02.2023 03:51 -4,6 C -6,1 C 82 % 1027,7 hPa 0,0 l/m 14,5 km/h (3 Bft) N-NO 22 0 min 0,0 UV-I 0 W/m -7,2 C -12,2 C 20,9 km/h (4 Bft)
27.02.2023 03:52 -4,6 C -6,1 C 82 % 1027,8 hPa 0,0 l/m 17,7 km/h (3 Bft) N-NO 22 0 min 0,0 UV-I 0 W/m -7,2 C -14,3 C 22,5 km/h (4 Bft)
27.02.2023 03:53 -4,6 C -6,1 C 82 % 1027,8 hPa 0,0 l/m 16,1 km/h (3 Bft) N-NO 22 0 min 0,0 UV-I 0 W/m -7,2 C -13,3 C 22,5 km/h (4 Bft)
27.02.2023 03:54 -4,6 C -5,6 C 82 % 1027,7 hPa 0,0 l/m 17,7 km/h (3 Bft) N-NO 22 0 min 0,0 UV-I 0 W/m -7,2 C -14,3 C 22,5 km/h (4 Bft)
27.02.2023 03:55 -4,6 C -5,6 C 82 % 1027,8 hPa 0,0 l/m 16,1 km/h (3 Bft) N-NO 22 0 min 0,0 UV-I 0 W/m -7,2 C -13,3 C 19,3 km/h (3 Bft)
27.02.2023 03:56 -4,6 C -6,1 C 82 % 1027,8 hPa 0,0 l/m 12,9 km/h (3 Bft) NO 45 0 min 0,0 UV-I 0 W/m -7,2 C -11,0 C 16,1 km/h (3 Bft)
27.02.2023 03:57 -4,6 C -6,1 C 82 % 1027,8 hPa 0,0 l/m 12,9 km/h (3 Bft) N-NO 22 0 min 0,0 UV-I 0 W/m -7,2 C -11,0 C 19,3 km/h (3 Bft)
27.02.2023 03:58 -4,6 C -6,1 C 82 % 1027,8 hPa 0,0 l/m 16,1 km/h (3 Bft) N-NO 22 0 min 0,0 UV-I 0 W/m -7,2 C -13,3 C 20,9 km/h (4 Bft)
27.02.2023 03:59 -4,6 C -6,1 C 82 % 1027,8 hPa 0,0 l/m 12,9 km/h (3 Bft) NO 45 0 min 0,0 UV-I 0 W/m -7,2 C -11,0 C 20,9 km/h (4 Bft)
27.02.2023 04:00 -4,5 C -6,1 C 82 % 1027,7 hPa 0,0 l/m 11,3 km/h (2 Bft) N-NO 22 0 min 0,0 UV-I 0 W/m -7,1 C -9,6 C 14,5 km/h (3 Bft)
27.02.2023 04:01 -4,6 C -6,1 C 82 % 1027,8 hPa 0,0 l/m 12,9 km/h (3 Bft) N-NO 22 0 min 0,0 UV-I 0 W/m -7,2 C -11,0 C 17,7 km/h (3 Bft)
27.02.2023 04:02 -4,6 C -6,1 C 82 % 1027,8 hPa 0,0 l/m 12,9 km/h (3 Bft) N-NO 22 0 min 0,0 UV-I 0 W/m -7,2 C -11,0 C 17,7 km/h (3 Bft)
27.02.2023 04:03 -4,6 C -6,1 C 82 % 1027,8 hPa 0,0 l/m 11,3 km/h (2 Bft) N-NO 22 0 min 0,0 UV-I 0 W/m -7,2 C -9,7 C 14,5 km/h (3 Bft)
27.02.2023 04:04 -4,6 C -6,1 C 82 % 1027,9 hPa 0,0 l/m 12,9 km/h (3 Bft) NO 45 0 min 0,0 UV-I 0 W/m -7,2 C -11,0 C 17,7 km/h (3 Bft)
27.02.2023 04:05 -4,6 C -6,1 C 82 % 1027,8 hPa 0,0 l/m 9,7 km/h (2 Bft) N-NO 22 0 min 0,0 UV-I 0 W/m -7,2 C -8,2 C 14,5 km/h (3 Bft)
27.02.2023 04:06 -4,6 C -6,1 C 82 % 1027,9 hPa 0,0 l/m 9,7 km/h (2 Bft) NO 45 0 min 0,0 UV-I 0 W/m -7,2 C -8,2 C 14,5 km/h (3 Bft)
27.02.2023 04:07 -4,6 C -6,1 C 82 % 1027,9 hPa 0,0 l/m 14,5 km/h (3 Bft) NO 45 0 min 0,0 UV-I 0 W/m -7,2 C -12,2 C 17,7 km/h (3 Bft)
27.02.2023 04:08 -4,6 C -6,1 C 82 % 1027,8 hPa 0,0 l/m 9,7 km/h (2 Bft) NO 45 0 min 0,0 UV-I 0 W/m -7,2 C -8,2 C 14,5 km/h (3 Bft)
27.02.2023 04:09 -4,6 C -6,1 C 82 % 1027,9 hPa 0,0 l/m 9,7 km/h (2 Bft) NO 45 0 min 0,0 UV-I 0 W/m -7,2 C -8,2 C 14,5 km/h (3 Bft)
27.02.2023 04:10 -4,7 C -6,1 C 82 % 1027,9 hPa 0,0 l/m 9,7 km/h (2 Bft) N-NO 22 0 min 0,0 UV-I 0 W/m -7,3 C -8,4 C 12,9 km/h (3 Bft)
27.02.2023 04:11 -4,7 C -6,7 C 82 % 1027,9 hPa 0,0 l/m 11,3 km/h (2 Bft) NO 45 0 min 0,0 UV-I 0 W/m -7,3 C -9,8 C 16,1 km/h (3 Bft)
27.02.2023 04:12 -4,7 C -6,7 C 82 % 1027,9 hPa 0,0 l/m 9,7 km/h (2 Bft) NO 45 0 min 0,0 UV-I 0 W/m -7,3 C -8,4 C 14,5 km/h (3 Bft)
27.02.2023 04:13 -4,7 C -6,7 C 82 % 1027,8 hPa 0,0 l/m 9,7 km/h (2 Bft) NO 45 0 min 0,0 UV-I 0 W/m -7,3 C -8,4 C 14,5 km/h (3 Bft)
27.02.2023 04:14 -4,8 C -6,7 C 82 % 1027,8 hPa 0,0 l/m 9,7 km/h (2 Bft) N-NO 22 0 min 0,0 UV-I 0 W/m -7,4 C -8,5 C 14,5 km/h (3 Bft)
27.02.2023 04:15 -4,8 C -6,7 C 82 % 1027,8 hPa 0,0 l/m 12,9 km/h (3 Bft) N-NO 22 0 min 0,0 UV-I 0 W/m -7,4 C -11,3 C 17,7 km/h (3 Bft)
27.02.2023 04:16 -4,8 C -6,7 C 82 % 1027,9 hPa 0,0 l/m 9,7 km/h (2 Bft) N-NO 22 0 min 0,0 UV-I 0 W/m -7,4 C -8,5 C 12,9 km/h (3 Bft)
27.02.2023 04:17 -4,8 C -6,7 C 82 % 1027,8 hPa 0,0 l/m 6,4 km/h (2 Bft) NO 45 0 min 0,0 UV-I 0 W/m -7,4 C -4,7 C 11,3 km/h (2 Bft)
27.02.2023 04:18 -4,8 C -6,7 C 82 % 1027,9 hPa 0,0 l/m 9,7 km/h (2 Bft) N-NO 22 0 min 0,0 UV-I 0 W/m -7,4 C -8,5 C 16,1 km/h (3 Bft)
27.02.2023 04:19 -4,8 C -6,7 C 82 % 1027,9 hPa 0,0 l/m 12,9 km/h (3 Bft) N-NO 22 0 min 0,0 UV-I 0 W/m -7,4 C -11,3 C 19,3 km/h (3 Bft)
27.02.2023 04:20 -4,8 C -6,7 C 82 % 1027,8 hPa 0,0 l/m 12,9 km/h (3 Bft) N-NO 22 0 min 0,0 UV-I 0 W/m -7,4 C -11,3 C 17,7 km/h (3 Bft)
27.02.2023 04:21 -4,8 C -6,7 C 82 % 1027,8 hPa 0,0 l/m 16,1 km/h (3 Bft) N-NO 22 0 min 0,0 UV-I 0 W/m -7,4 C -13,5 C 20,9 km/h (4 Bft)
27.02.2023 04:22 -4,9 C -6,7 C 82 % 1027,8 hPa 0,0 l/m 11,3 km/h (2 Bft) N-NO 22 0 min 0,0 UV-I 0 W/m -7,5 C -10,0 C 14,5 km/h (3 Bft)
27.02.2023 04:23 -4,8 C -6,7 C 82 % 1027,8 hPa 0,0 l/m 14,5 km/h (3 Bft) N-NO 22 0 min 0,0 UV-I 0 W/m -7,4 C -12,4 C 19,3 km/h (3 Bft)
27.02.2023 04:24 -4,8 C -6,7 C 82 % 1027,9 hPa 0,0 l/m 11,3 km/h (2 Bft) N-NO 22 0 min 0,0 UV-I 0 W/m -7,4 C -9,9 C 14,5 km/h (3 Bft)
27.02.2023 04:25 -4,8 C -6,7 C 82 % 1027,8 hPa 0,0 l/m 16,1 km/h (3 Bft) N-NO 22 0 min 0,0 UV-I 0 W/m -7,4 C -13,5 C 25,7 km/h (4 Bft)
27.02.2023 04:26 -4,8 C -6,1 C 82 % 1027,8 hPa 0,0 l/m 16,1 km/h (3 Bft) N-NO 22 0 min 0,0 UV-I 0 W/m -7,4 C -13,5 C 19,3 km/h (3 Bft)
27.02.2023 04:27 -4,8 C -6,7 C 82 % 1027,8 hPa 0,0 l/m 14,5 km/h (3 Bft) N-NO 22 0 min 0,0 UV-I 0 W/m -7,4 C -12,4 C 17,7 km/h (3 Bft)
27.02.2023 04:28 -4,8 C -6,1 C 82 % 1027,9 hPa 0,0 l/m 12,9 km/h (3 Bft) N-NO 22 0 min 0,0 UV-I 0 W/m -7,4 C -11,3 C 16,1 km/h (3 Bft)
27.02.2023 04:29 -4,8 C -6,1 C 82 % 1027,9 hPa 0,0 l/m 11,3 km/h (2 Bft) N-NO 22 0 min 0,0 UV-I 0 W/m -7,4 C -9,9 C 14,5 km/h (3 Bft)
27.02.2023 04:30 -4,8 C -6,1 C 82 % 1027,9 hPa 0,0 l/m 11,3 km/h (2 Bft) N-NO 22 0 min 0,0 UV-I 0 W/m -7,4 C -9,9 C 14,5 km/h (3 Bft)
27.02.2023 04:31 -4,8 C -6,7 C 82 % 1027,8 hPa 0,0 l/m 16,1 km/h (3 Bft) N-NO 22 0 min 0,0 UV-I 0 W/m -7,4 C -13,5 C 22,5 km/h (4 Bft)
27.02.2023 04:32 -4,8 C -6,1 C 82 % 1027,8 hPa 0,0 l/m 14,5 km/h (3 Bft) N-NO 22 0 min 0,0 UV-I 0 W/m -7,4 C -12,4 C 17,7 km/h (3 Bft)
27.02.2023 04:33 -4,8 C -6,1 C 82 % 1027,8 hPa 0,0 l/m 14,5 km/h (3 Bft) N-NO 22 0 min 0,0 UV-I 0 W/m -7,4 C -12,4 C 17,7 km/h (3 Bft)
27.02.2023 04:34 -4,8 C -6,1 C 82 % 1027,8 hPa 0,0 l/m 14,5 km/h (3 Bft) N-NO 22 0 min 0,0 UV-I 0 W/m -7,4 C -12,4 C 17,7 km/h (3 Bft)
27.02.2023 04:35 -4,8 C -6,7 C 82 % 1027,9 hPa 0,0 l/m 12,9 km/h (3 Bft) N-NO 22 0 min 0,0 UV-I 0 W/m -7,4 C -11,3 C 17,7 km/h (3 Bft)
27.02.2023 04:36 -4,9 C -6,7 C 82 % 1027,9 hPa 0,0 l/m 11,3 km/h (2 Bft) N-NO 22 0 min 0,0 UV-I 0 W/m -7,5 C -10,0 C 14,5 km/h (3 Bft)
27.02.2023 04:37 -4,8 C -6,7 C 82 % 1027,9 hPa 0,0 l/m 12,9 km/h (3 Bft) N-NO 22 0 min 0,0 UV-I 0 W/m -7,4 C -11,3 C 19,3 km/h (3 Bft)
27.02.2023 04:38 -4,8 C -6,7 C 82 % 1027,9 hPa 0,0 l/m 12,9 km/h (3 Bft) N-NO 22 0 min 0,0 UV-I 0 W/m -7,4 C -11,3 C 16,1 km/h (3 Bft)
27.02.2023 04:39 -4,8 C -6,7 C 82 % 1027,9 hPa 0,0 l/m 11,3 km/h (2 Bft) N-NO 22 0 min 0,0 UV-I 0 W/m -7,4 C -9,9 C 16,1 km/h (3 Bft)
27.02.2023 04:40 -4,8 C -6,7 C 82 % 1027,9 hPa 0,0 l/m 12,9 km/h (3 Bft) N-NO 22 0 min 0,0 UV-I 0 W/m -7,4 C -11,3 C 17,7 km/h (3 Bft)
27.02.2023 04:41 -4,8 C -6,7 C 82 % 1028,0 hPa 0,0 l/m 8,0 km/h (2 Bft) NO 45 0 min 0,0 UV-I 0 W/m -7,4 C -6,7 C 12,9 km/h (3 Bft)
27.02.2023 04:42 -4,9 C -6,7 C 82 % 1028,1 hPa 0,0 l/m 11,3 km/h (2 Bft) N-NO 22 0 min 0,0 UV-I 0 W/m -7,5 C -10,0 C 17,7 km/h (3 Bft)
27.02.2023 04:43 -4,9 C -6,7 C 82 % 1027,9 hPa 0,0 l/m 12,9 km/h (3 Bft) N-NO 22 0 min 0,0 UV-I 0 W/m -7,5 C -11,4 C 19,3 km/h (3 Bft)
27.02.2023 04:44 -4,9 C -6,7 C 82 % 1028,0 hPa 0,0 l/m 12,9 km/h (3 Bft) NO 45 0 min 0,0 UV-I 0 W/m -7,5 C -11,4 C 19,3 km/h (3 Bft)
27.02.2023 04:45 -4,9 C -6,7 C 82 % 1028,0 hPa 0,0 l/m 12,9 km/h (3 Bft) N-NO 22 0 min 0,0 UV-I 0 W/m -7,5 C -11,4 C 16,1 km/h (3 Bft)
27.02.2023 04:46 -4,9 C -6,7 C 82 % 1028,0 hPa 0,0 l/m 14,5 km/h (3 Bft) N-NO 22 0 min 0,0 UV-I 0 W/m -7,5 C -12,6 C 16,1 km/h (3 Bft)
27.02.2023 04:47 -4,9 C -6,7 C 82 % 1028,0 hPa 0,0 l/m 11,3 km/h (2 Bft) N-NO 22 0 min 0,0 UV-I 0 W/m -7,5 C -10,0 C 16,1 km/h (3 Bft)
27.02.2023 04:48 -4,9 C -6,1 C 82 % 1028,0 hPa 0,0 l/m 12,9 km/h (3 Bft) N-NO 22 0 min 0,0 UV-I 0 W/m -7,5 C -11,4 C 16,1 km/h (3 Bft)
27.02.2023 04:49 -4,9 C -6,1 C 82 % 1028,0 hPa 0,0 l/m 16,1 km/h (3 Bft) N-NO 22 0 min 0,0 UV-I 0 W/m -7,5 C -13,7 C 19,3 km/h (3 Bft)
27.02.2023 04:50 -4,9 C -6,1 C 83 % 1027,9 hPa 0,0 l/m 16,1 km/h (3 Bft) NO 45 0 min 0,0 UV-I 0 W/m -7,3 C -13,7 C 22,5 km/h (4 Bft)
27.02.2023 04:51 -4,9 C -6,1 C 83 % 1027,9 hPa 0,0 l/m 14,5 km/h (3 Bft) N-NO 22 0 min 0,0 UV-I 0 W/m -7,3 C -12,6 C 16,1 km/h (3 Bft)
27.02.2023 04:52 -4,8 C -6,1 C 83 % 1027,9 hPa 0,0 l/m 12,9 km/h (3 Bft) N-NO 22 0 min 0,0 UV-I 0 W/m -7,2 C -11,3 C 14,5 km/h (3 Bft)
27.02.2023 04:53 -4,9 C -6,1 C 82 % 1027,9 hPa 0,0 l/m 12,9 km/h (3 Bft) N-NO 22 0 min 0,0 UV-I 0 W/m -7,5 C -11,4 C 20,9 km/h (4 Bft)
27.02.2023 04:54 -4,9 C -6,1 C 82 % 1028,1 hPa 0,0 l/m 14,5 km/h (3 Bft) N-NO 22 0 min 0,0 UV-I 0 W/m -7,5 C -12,6 C 17,7 km/h (3 Bft)
27.02.2023 04:55 -4,9 C -6,1 C 82 % 1028,1 hPa 0,0 l/m 14,5 km/h (3 Bft) N-NO 22 0 min 0,0 UV-I 0 W/m -7,5 C -12,6 C 17,7 km/h (3 Bft)
27.02.2023 04:56 -4,9 C -6,1 C 82 % 1027,9 hPa 0,0 l/m 12,9 km/h (3 Bft) N-NO 22 0 min 0,0 UV-I 0 W/m -7,5 C -11,4 C 16,1 km/h (3 Bft)
27.02.2023 04:57 -4,9 C -6,7 C 82 % 1027,9 hPa 0,0 l/m 11,3 km/h (2 Bft) N-NO 22 0 min 0,0 UV-I 0 W/m -7,5 C -10,0 C 14,5 km/h (3 Bft)
27.02.2023 04:58 -4,9 C -6,7 C 82 % 1028,0 hPa 0,0 l/m 11,3 km/h (2 Bft) N-NO 22 0 min 0,0 UV-I 0 W/m -7,5 C -10,0 C 14,5 km/h (3 Bft)
27.02.2023 04:59 -4,9 C -6,7 C 82 % 1028,0 hPa 0,0 l/m 12,9 km/h (3 Bft) N-NO 22 0 min 0,0 UV-I 0 W/m -7,5 C -11,4 C 16,1 km/h (3 Bft)
27.02.2023 05:00 -4,9 C -6,7 C 82 % 1028,0 hPa 0,0 l/m 9,7 km/h (2 Bft) N-NO 22 0 min 0,0 UV-I 0 W/m -7,5 C -8,6 C 14,5 km/h (3 Bft)
27.02.2023 05:01 -5,0 C -6,7 C 82 % 1028,0 hPa 0,0 l/m 12,9 km/h (3 Bft) N-NO 22 0 min 0,0 UV-I 0 W/m -7,6 C -11,5 C 14,5 km/h (3 Bft)
27.02.2023 05:02 -5,1 C -6,7 C 82 % 1028,0 hPa 0,0 l/m 12,9 km/h (3 Bft) N-NO 22 0 min 0,0 UV-I 0 W/m -7,7 C -11,6 C 17,7 km/h (3 Bft)
27.02.2023 05:03 -5,1 C -6,7 C 83 % 1028,0 hPa 0,0 l/m 14,5 km/h (3 Bft) N-NO 22 0 min 0,0 UV-I 0 W/m -7,5 C -12,8 C 17,7 km/h (3 Bft)
27.02.2023 05:04 -5,1 C -6,7 C 83 % 1027,9 hPa 0,0 l/m 16,1 km/h (3 Bft) N-NO 22 0 min 0,0 UV-I 0 W/m -7,5 C -13,9 C 19,3 km/h (3 Bft)
27.02.2023 05:05 -5,0 C -6,7 C 83 % 1028,0 hPa 0,0 l/m 14,5 km/h (3 Bft) N-NO 22 0 min 0,0 UV-I 0 W/m -7,4 C -12,7 C 19,3 km/h (3 Bft)
27.02.2023 05:06 -5,0 C -6,7 C 83 % 1027,9 hPa 0,0 l/m 12,9 km/h (3 Bft) N-NO 22 0 min 0,0 UV-I 0 W/m -7,4 C -11,5 C 17,7 km/h (3 Bft)
27.02.2023 05:07 -5,0 C -6,1 C 83 % 1028,0 hPa 0,0 l/m 12,9 km/h (3 Bft) N-NO 22 0 min 0,0 UV-I 0 W/m -7,4 C -11,5 C 17,7 km/h (3 Bft)
27.02.2023 05:08 -4,9 C -6,1 C 83 % 1028,1 hPa 0,0 l/m 16,1 km/h (3 Bft) N-NO 22 0 min 0,0 UV-I 0 W/m -7,3 C -13,7 C 19,3 km/h (3 Bft)
27.02.2023 05:09 -4,9 C -6,1 C 83 % 1028,1 hPa 0,0 l/m 12,9 km/h (3 Bft) N-NO 22 0 min 0,0 UV-I 0 W/m -7,3 C -11,4 C 16,1 km/h (3 Bft)
27.02.2023 05:10 -4,9 C -6,1 C 83 % 1028,0 hPa 0,0 l/m 14,5 km/h (3 Bft) N-NO 22 0 min 0,0 UV-I 0 W/m -7,3 C -12,6 C 17,7 km/h (3 Bft)
27.02.2023 05:11 -4,9 C -6,1 C 83 % 1028,1 hPa 0,0 l/m 14,5 km/h (3 Bft) N-NO 22 0 min 0,0 UV-I 0 W/m -7,3 C -12,6 C 17,7 km/h (3 Bft)
27.02.2023 05:12 -4,9 C -6,1 C 83 % 1028,1 hPa 0,0 l/m 12,9 km/h (3 Bft) N-NO 22 0 min 0,0 UV-I 0 W/m -7,3 C -11,4 C 19,3 km/h (3 Bft)
27.02.2023 05:13 -4,9 C -6,1 C 82 % 1028,1 hPa 0,0 l/m 12,9 km/h (3 Bft) N-NO 22 0 min 0,0 UV-I 0 W/m -7,5 C -11,4 C 14,5 km/h (3 Bft)
27.02.2023 05:14 -4,9 C -6,7 C 82 % 1028,1 hPa 0,0 l/m 12,9 km/h (3 Bft) N-NO 22 0 min 0,0 UV-I 0 W/m -7,5 C -11,4 C 17,7 km/h (3 Bft)
27.02.2023 05:15 -4,9 C -6,7 C 82 % 1028,1 hPa 0,0 l/m 12,9 km/h (3 Bft) NO 45 0 min 0,0 UV-I 0 W/m -7,5 C -11,4 C 17,7 km/h (3 Bft)
27.02.2023 05:16 -4,9 C -6,7 C 82 % 1028,1 hPa 0,0 l/m 11,3 km/h (2 Bft) NO 45 0 min 0,0 UV-I 0 W/m -7,5 C -10,0 C 16,1 km/h (3 Bft)
27.02.2023 05:17 -4,9 C -6,7 C 82 % 1028,1 hPa 0,0 l/m 11,3 km/h (2 Bft) NO 45 0 min 0,0 UV-I 0 W/m -7,5 C -10,0 C 14,5 km/h (3 Bft)
27.02.2023 05:18 -4,9 C -6,7 C 82 % 1028,1 hPa 0,0 l/m 9,7 km/h (2 Bft) N-NO 22 0 min 0,0 UV-I 0 W/m -7,5 C -8,6 C 14,5 km/h (3 Bft)
27.02.2023 05:19 -4,9 C -6,7 C 82 % 1028,2 hPa 0,0 l/m 12,9 km/h (3 Bft) N-NO 22 0 min 0,0 UV-I 0 W/m -7,5 C -11,4 C 16,1 km/h (3 Bft)
27.02.2023 05:20 -4,9 C -6,7 C 82 % 1028,1 hPa 0,0 l/m 9,7 km/h (2 Bft) NO 45 0 min 0,0 UV-I 0 W/m -7,5 C -8,6 C 16,1 km/h (3 Bft)
27.02.2023 05:21 -4,9 C -6,1 C 82 % 1028,1 hPa 0,0 l/m 11,3 km/h (2 Bft) N-NO 22 0 min 0,0 UV-I 0 W/m -7,5 C -10,0 C 17,7 km/h (3 Bft)
27.02.2023 05:22 -4,9 C -6,7 C 82 % 1028,1 hPa 0,0 l/m 14,5 km/h (3 Bft) N-NO 22 0 min 0,0 UV-I 0 W/m -7,5 C -12,6 C 20,9 km/h (4 Bft)
27.02.2023 05:23 -4,9 C -6,1 C 82 % 1028,2 hPa 0,0 l/m 14,5 km/h (3 Bft) N-NO 22 0 min 0,0 UV-I 0 W/m -7,5 C -12,6 C 19,3 km/h (3 Bft)
27.02.2023 05:24 -4,9 C -6,1 C 82 % 1028,2 hPa 0,0 l/m 12,9 km/h (3 Bft) N-NO 22 0 min 0,0 UV-I 0 W/m -7,5 C -11,4 C 19,3 km/h (3 Bft)
27.02.2023 05:25 -4,9 C -6,1 C 82 % 1028,1 hPa 0,0 l/m 12,9 km/h (3 Bft) NO 45 0 min 0,0 UV-I 0 W/m -7,5 C -11,4 C 16,1 km/h (3 Bft)
27.02.2023 05:26 -4,9 C -6,1 C 82 % 1028,1 hPa 0,0 l/m 12,9 km/h (3 Bft) N-NO 22 0 min 0,0 UV-I 0 W/m -7,5 C -11,4 C 16,1 km/h (3 Bft)
27.02.2023 05:27 -4,9 C -6,1 C 82 % 1028,2 hPa 0,0 l/m 14,5 km/h (3 Bft) NO 45 0 min 0,0 UV-I 0 W/m -7,5 C -12,6 C 19,3 km/h (3 Bft)
27.02.2023 05:28 -4,9 C -6,1 C 82 % 1028,2 hPa 0,0 l/m 12,9 km/h (3 Bft) N-NO 22 0 min 0,0 UV-I 0 W/m -7,5 C -11,4 C 17,7 km/h (3 Bft)
27.02.2023 05:29 -4,9 C -6,1 C 82 % 1028,2 hPa 0,0 l/m 16,1 km/h (3 Bft) N-NO 22 0 min 0,0 UV-I 0 W/m -7,5 C -13,7 C 17,7 km/h (3 Bft)
27.02.2023 05:30 -4,9 C -6,7 C 82 % 1028,1 hPa 0,0 l/m 14,5 km/h (3 Bft) N-NO 22 0 min 0,0 UV-I 0 W/m -7,5 C -12,6 C 17,7 km/h (3 Bft)
27.02.2023 05:31 -4,9 C -6,7 C 82 % 1028,1 hPa 0,0 l/m 14,5 km/h (3 Bft) N-NO 22 0 min 0,0 UV-I 0 W/m -7,5 C -12,6 C 19,3 km/h (3 Bft)
27.02.2023 05:32 -4,9 C -6,7 C 82 % 1028,1 hPa 0,0 l/m 12,9 km/h (3 Bft) N-NO 22 0 min 0,0 UV-I 0 W/m -7,5 C -11,4 C 17,7 km/h (3 Bft)
27.02.2023 05:33 -4,9 C -6,7 C 82 % 1028,2 hPa 0,0 l/m 14,5 km/h (3 Bft) N-NO 22 0 min 0,0 UV-I 0 W/m -7,5 C -12,6 C 20,9 km/h (4 Bft)
27.02.2023 05:34 -4,9 C -6,7 C 82 % 1028,2 hPa 0,0 l/m 14,5 km/h (3 Bft) N-NO 22 0 min 0,0 UV-I 0 W/m -7,5 C -12,6 C 22,5 km/h (4 Bft)
27.02.2023 05:35 -4,9 C -6,7 C 82 % 1028,1 hPa 0,0 l/m 16,1 km/h (3 Bft) N-NO 22 0 min 0,0 UV-I 0 W/m -7,5 C -13,7 C 22,5 km/h (4 Bft)
27.02.2023 05:36 -4,9 C -6,1 C 82 % 1028,1 hPa 0,0 l/m 16,1 km/h (3 Bft) N-NO 22 0 min 0,0 UV-I 0 W/m -7,5 C -13,7 C 20,9 km/h (4 Bft)
27.02.2023 05:37 -4,9 C -6,1 C 82 % 1028,0 hPa 0,0 l/m 17,7 km/h (3 Bft) N-NO 22 0 min 0,0 UV-I 0 W/m -7,5 C -14,7 C 20,9 km/h (4 Bft)
27.02.2023 05:38 -4,9 C -6,1 C 82 % 1028,1 hPa 0,0 l/m 16,1 km/h (3 Bft) N-NO 22 0 min 0,0 UV-I 0 W/m -7,5 C -13,7 C 22,5 km/h (4 Bft)
27.02.2023 05:39 -4,9 C -6,1 C 82 % 1028,1 hPa 0,0 l/m 16,1 km/h (3 Bft) N-NO 22 0 min 0,0 UV-I 0 W/m -7,5 C -13,7 C 19,3 km/h (3 Bft)
27.02.2023 05:40 -5,0 C -6,1 C 82 % 1028,1 hPa 0,0 l/m 14,5 km/h (3 Bft) N-NO 22 0 min 0,0 UV-I 0 W/m -7,6 C -12,7 C 17,7 km/h (3 Bft)
27.02.2023 05:41 -4,9 C -6,1 C 82 % 1028,1 hPa 0,0 l/m 14,5 km/h (3 Bft) N-NO 22 0 min 0,0 UV-I 0 W/m -7,5 C -12,6 C 19,3 km/h (3 Bft)
27.02.2023 05:42 -5,0 C -6,7 C 82 % 1028,1 hPa 0,0 l/m 16,1 km/h (3 Bft) N 360 0 min 0,0 UV-I 0 W/m -7,6 C -13,8 C 20,9 km/h (4 Bft)
27.02.2023 05:43 -5,0 C -6,7 C 82 % 1028,0 hPa 0,0 l/m 17,7 km/h (3 Bft) N-NO 22 0 min 0,0 UV-I 0 W/m -7,6 C -14,8 C 22,5 km/h (4 Bft)
27.02.2023 05:44 -5,0 C -6,7 C 82 % 1028,1 hPa 0,0 l/m 16,1 km/h (3 Bft) N 360 0 min 0,0 UV-I 0 W/m -7,6 C -13,8 C 20,9 km/h (4 Bft)
27.02.2023 05:45 -5,0 C -6,1 C 82 % 1028,1 hPa 0,0 l/m 14,5 km/h (3 Bft) N-NO 22 0 min 0,0 UV-I 0 W/m -7,6 C -12,7 C 19,3 km/h (3 Bft)
27.02.2023 05:46 -5,0 C -6,1 C 82 % 1028,1 hPa 0,0 l/m 12,9 km/h (3 Bft) N-NO 22 0 min 0,0 UV-I 0 W/m -7,6 C -11,5 C 17,7 km/h (3 Bft)
27.02.2023 05:47 -5,0 C -6,1 C 82 % 1028,1 hPa 0,0 l/m 17,7 km/h (3 Bft) N-NO 22 0 min 0,0 UV-I 0 W/m -7,6 C -14,8 C 22,5 km/h (4 Bft)
27.02.2023 05:48 -5,0 C -6,1 C 82 % 1028,1 hPa 0,0 l/m 14,5 km/h (3 Bft) N-NO 22 0 min 0,0 UV-I 0 W/m -7,6 C -12,7 C 19,3 km/h (3 Bft)
27.02.2023 05:49 -5,0 C -6,1 C 82 % 1028,1 hPa 0,0 l/m 17,7 km/h (3 Bft) N-NO 22 0 min 0,0 UV-I 0 W/m -7,6 C -14,8 C 20,9 km/h (4 Bft)
27.02.2023 05:50 -5,0 C -6,1 C 82 % 1028,2 hPa 0,0 l/m 14,5 km/h (3 Bft) N-NO 22 0 min 0,0 UV-I 0 W/m -7,6 C -12,7 C 19,3 km/h (3 Bft)
27.02.2023 05:51 -5,0 C -6,7 C 82 % 1028,1 hPa 0,0 l/m 16,1 km/h (3 Bft) N 360 0 min 0,0 UV-I 0 W/m -7,6 C -13,8 C 20,9 km/h (4 Bft)
27.02.2023 05:52 -5,0 C -6,7 C 82 % 1028,2 hPa 0,0 l/m 17,7 km/h (3 Bft) N-NO 22 0 min 0,0 UV-I 0 W/m -7,6 C -14,8 C 24,1 km/h (4 Bft)
27.02.2023 05:53 -5,0 C -6,7 C 82 % 1028,2 hPa 0,0 l/m 12,9 km/h (3 Bft) N-NO 22 0 min 0,0 UV-I 0 W/m -7,6 C -11,5 C 22,5 km/h (4 Bft)
27.02.2023 05:54 -5,0 C -6,7 C 82 % 1028,1 hPa 0,0 l/m 17,7 km/h (3 Bft) N-NO 22 0 min 0,0 UV-I 0 W/m -7,6 C -14,8 C 24,1 km/h (4 Bft)
27.02.2023 05:55 -5,0 C -6,1 C 83 % 1028,2 hPa 0,0 l/m 14,5 km/h (3 Bft) N-NO 22 0 min 0,0 UV-I 0 W/m -7,4 C -12,7 C 17,7 km/h (3 Bft)
27.02.2023 05:56 -5,0 C -6,1 C 82 % 1028,2 hPa 0,0 l/m 16,1 km/h (3 Bft) N-NO 22 0 min 0,0 UV-I 0 W/m -7,6 C -13,8 C 20,9 km/h (4 Bft)
27.02.2023 05:57 -5,0 C -6,1 C 83 % 1028,3 hPa 0,0 l/m 14,5 km/h (3 Bft) N-NO 22 0 min 0,0 UV-I 0 W/m -7,4 C -12,7 C 17,7 km/h (3 Bft)
27.02.2023 05:58 -5,0 C -6,1 C 82 % 1028,1 hPa 0,0 l/m 14,5 km/h (3 Bft) N-NO 22 0 min 0,0 UV-I 0 W/m -7,6 C -12,7 C 19,3 km/h (3 Bft)
27.02.2023 05:59 -5,0 C -6,1 C 83 % 1028,2 hPa 0,0 l/m 17,7 km/h (3 Bft) N-NO 22 0 min 0,0 UV-I 0 W/m -7,4 C -14,8 C 20,9 km/h (4 Bft)
27.02.2023 06:00 -5,0 C -6,1 C 83 % 1028,2 hPa 0,0 l/m 12,9 km/h (3 Bft) N-NO 22 0 min 0,0 UV-I 0 W/m -7,4 C -11,5 C 17,7 km/h (3 Bft)
27.02.2023 06:01 -5,0 C -6,1 C 82 % 1028,2 hPa 0,0 l/m 16,1 km/h (3 Bft) N-NO 22 0 min 0,0 UV-I 0 W/m -7,6 C -13,8 C 19,3 km/h (3 Bft)
27.02.2023 06:02 -5,1 C -6,7 C 82 % 1028,2 hPa 0,0 l/m 16,1 km/h (3 Bft) N-NO 22 0 min 0,0 UV-I 0 W/m -7,7 C -13,9 C 17,7 km/h (3 Bft)
27.02.2023 06:03 -5,1 C -6,7 C 82 % 1028,3 hPa 0,0 l/m 16,1 km/h (3 Bft) N-NO 22 0 min 0,0 UV-I 0 W/m -7,7 C -13,9 C 20,9 km/h (4 Bft)
27.02.2023 06:04 -5,1 C -6,7 C 83 % 1028,3 hPa 0,0 l/m 16,1 km/h (3 Bft) N-NO 22 0 min 0,0 UV-I 0 W/m -7,5 C -13,9 C 24,1 km/h (4 Bft)
27.02.2023 06:05 -5,1 C -6,7 C 82 % 1028,2 hPa 0,0 l/m 17,7 km/h (3 Bft) N-NO 22 0 min 0,0 UV-I 0 W/m -7,7 C -14,9 C 24,1 km/h (4 Bft)
27.02.2023 06:06 -5,1 C -6,1 C 83 % 1028,2 hPa 0,0 l/m 12,9 km/h (3 Bft) N-NO 22 0 min 0,0 UV-I 0 W/m -7,5 C -11,6 C 19,3 km/h (3 Bft)
27.02.2023 06:07 -5,1 C -6,7 C 82 % 1028,2 hPa 0,0 l/m 9,7 km/h (2 Bft) N-NO 22 0 min 0,0 UV-I 0 W/m -7,7 C -8,8 C 17,7 km/h (3 Bft)
27.02.2023 06:08 -5,1 C -6,7 C 83 % 1028,2 hPa 0,0 l/m 16,1 km/h (3 Bft) N-NO 22 0 min 0,0 UV-I 0 W/m -7,5 C -13,9 C 19,3 km/h (3 Bft)
27.02.2023 06:09 -5,1 C -6,7 C 83 % 1028,2 hPa 0,0 l/m 14,5 km/h (3 Bft) N 360 0 min 0,0 UV-I 0 W/m -7,5 C -12,8 C 22,5 km/h (4 Bft)
27.02.2023 06:10 -5,1 C -6,7 C 83 % 1028,3 hPa 0,0 l/m 12,9 km/h (3 Bft) N-NO 22 0 min 0,0 UV-I 0 W/m -7,5 C -11,6 C 19,3 km/h (3 Bft)
27.02.2023 06:11 -5,2 C -6,7 C 83 % 1028,3 hPa 0,0 l/m 14,5 km/h (3 Bft) N-NO 22 0 min 0,0 UV-I 0 W/m -7,6 C -12,9 C 20,9 km/h (4 Bft)
27.02.2023 06:12 -5,2 C -6,7 C 83 % 1028,4 hPa 0,0 l/m 14,5 km/h (3 Bft) N-NO 22 0 min 0,0 UV-I 0 W/m -7,6 C -12,9 C 19,3 km/h (3 Bft)
27.02.2023 06:13 -5,2 C -6,7 C 83 % 1028,3 hPa 0,0 l/m 11,3 km/h (2 Bft) N-NO 22 0 min 0,0 UV-I 0 W/m -7,6 C -10,4 C 17,7 km/h (3 Bft)
27.02.2023 06:14 -5,2 C -6,7 C 83 % 1028,3 hPa 0,0 l/m 16,1 km/h (3 Bft) N-NO 22 0 min 0,0 UV-I 0 W/m -7,6 C -14,0 C 20,9 km/h (4 Bft)
27.02.2023 06:15 -5,2 C -6,7 C 83 % 1028,3 hPa 0,0 l/m 17,7 km/h (3 Bft) N-NO 22 0 min 0,0 UV-I 0 W/m -7,6 C -15,0 C 22,5 km/h (4 Bft)
27.02.2023 06:16 -5,2 C -6,7 C 83 % 1028,3 hPa 0,0 l/m 16,1 km/h (3 Bft) N-NO 22 0 min 0,0 UV-I 0 W/m -7,6 C -14,0 C 19,3 km/h (3 Bft)
27.02.2023 06:17 -5,2 C -6,7 C 83 % 1028,3 hPa 0,0 l/m 14,5 km/h (3 Bft) N-NO 22 0 min 0,0 UV-I 0 W/m -7,6 C -12,9 C 19,3 km/h (3 Bft)
27.02.2023 06:18 -5,2 C -6,7 C 83 % 1028,3 hPa 0,0 l/m 16,1 km/h (3 Bft) N-NO 22 0 min 0,0 UV-I 0 W/m -7,6 C -14,0 C 19,3 km/h (3 Bft)
27.02.2023 06:19 -5,2 C -6,7 C 83 % 1028,4 hPa 0,0 l/m 14,5 km/h (3 Bft) N-NO 22 0 min 0,0 UV-I 0 W/m -7,6 C -12,9 C 17,7 km/h (3 Bft)
27.02.2023 06:20 -5,2 C -6,7 C 82 % 1028,3 hPa 0,0 l/m 12,9 km/h (3 Bft) N-NO 22 0 min 0,0 UV-I 0 W/m -7,8 C -11,7 C 16,1 km/h (3 Bft)
27.02.2023 06:21 -5,2 C -6,7 C 82 % 1028,3 hPa 0,0 l/m 12,9 km/h (3 Bft) N-NO 22 0 min 0,0 UV-I 0 W/m -7,8 C -11,7 C 19,3 km/h (3 Bft)
27.02.2023 06:22 -5,2 C -6,7 C 82 % 1028,5 hPa 0,0 l/m 16,1 km/h (3 Bft) N-NO 22 0 min 0,0 UV-I 0 W/m -7,8 C -14,0 C 20,9 km/h (4 Bft)
27.02.2023 06:23 -5,2 C -6,7 C 83 % 1028,4 hPa 0,0 l/m 17,7 km/h (3 Bft) N-NO 22 0 min 0,0 UV-I 0 W/m -7,6 C -15,0 C 20,9 km/h (4 Bft)
27.02.2023 06:24 -5,2 C -6,7 C 83 % 1028,3 hPa 0,0 l/m 17,7 km/h (3 Bft) N-NO 22 0 min 0,0 UV-I 0 W/m -7,6 C -15,0 C 20,9 km/h (4 Bft)
27.02.2023 06:25 -5,2 C -6,7 C 83 % 1028,4 hPa 0,0 l/m 16,1 km/h (3 Bft) N-NO 22 0 min 0,0 UV-I 0 W/m -7,6 C -14,0 C 20,9 km/h (4 Bft)
27.02.2023 06:26 -5,2 C -6,7 C 83 % 1028,5 hPa 0,0 l/m 14,5 km/h (3 Bft) N-NO 22 0 min 0,0 UV-I 0 W/m -7,6 C -12,9 C 20,9 km/h (4 Bft)
27.02.2023 06:27 -5,2 C -6,7 C 83 % 1028,4 hPa 0,0 l/m 14,5 km/h (3 Bft) N-NO 22 0 min 0,0 UV-I 0 W/m -7,6 C -12,9 C 19,3 km/h (3 Bft)
27.02.2023 06:28 -5,2 C -6,7 C 83 % 1028,4 hPa 0,0 l/m 16,1 km/h (3 Bft) N 360 0 min 0,0 UV-I 0 W/m -7,6 C -14,0 C 20,9 km/h (4 Bft)
27.02.2023 06:29 -5,2 C -6,7 C 82 % 1028,4 hPa 0,0 l/m 14,5 km/h (3 Bft) N-NO 22 0 min 0,0 UV-I 0 W/m -7,8 C -12,9 C 22,5 km/h (4 Bft)
27.02.2023 06:30 -5,2 C -6,7 C 83 % 1028,4 hPa 0,0 l/m 19,3 km/h (3 Bft) N 360 0 min 0,0 UV-I 0 W/m -7,6 C -16,0 C 24,1 km/h (4 Bft)
27.02.2023 06:31 -5,2 C -6,7 C 82 % 1028,5 hPa 0,0 l/m 14,5 km/h (3 Bft) N-NO 22 0 min 0,0 UV-I 0 W/m -7,8 C -12,9 C 24,1 km/h (4 Bft)
27.02.2023 06:32 -5,2 C -6,7 C 83 % 1028,4 hPa 0,0 l/m 14,5 km/h (3 Bft) N-NO 22 0 min 0,0 UV-I 0 W/m -7,6 C -12,9 C 17,7 km/h (3 Bft)
27.02.2023 06:33 -5,2 C -6,7 C 83 % 1028,4 hPa 0,0 l/m 17,7 km/h (3 Bft) N-NO 22 0 min 0,0 UV-I 0 W/m -7,6 C -15,0 C 27,4 km/h (4 Bft)
27.02.2023 06:34 -5,2 C -6,7 C 83 % 1028,5 hPa 0,0 l/m 14,5 km/h (3 Bft) N 360 0 min 0,0 UV-I 0 W/m -7,6 C -12,9 C 20,9 km/h (4 Bft)
27.02.2023 06:35 -5,2 C -6,7 C 83 % 1028,4 hPa 0,0 l/m 12,9 km/h (3 Bft) N-NO 22 0 min 0,0 UV-I 0 W/m -7,6 C -11,7 C 17,7 km/h (3 Bft)
27.02.2023 06:36 -5,2 C -6,7 C 83 % 1028,4 hPa 0,0 l/m 12,9 km/h (3 Bft) N-NO 22 0 min 0,0 UV-I 0 W/m -7,6 C -11,7 C 17,7 km/h (3 Bft)
27.02.2023 06:37 -5,2 C -6,7 C 83 % 1028,4 hPa 0,0 l/m 14,5 km/h (3 Bft) N 360 0 min 0,0 UV-I 0 W/m -7,6 C -12,9 C 22,5 km/h (4 Bft)
27.02.2023 06:38 -5,2 C -6,7 C 83 % 1028,4 hPa 0,0 l/m 14,5 km/h (3 Bft) N-NO 22 0 min 0,0 UV-I 0 W/m -7,6 C -12,9 C 20,9 km/h (4 Bft)
27.02.2023 06:39 -5,3 C -6,7 C 83 % 1028,5 hPa 0,0 l/m 19,3 km/h (3 Bft) N-NO 22 0 min 0,0 UV-I 0 W/m -7,7 C -16,1 C 24,1 km/h (4 Bft)
27.02.2023 06:40 -5,2 C -6,7 C 83 % 1028,4 hPa 0,0 l/m 16,1 km/h (3 Bft) N-NO 22 0 min 0,0 UV-I 0 W/m -7,6 C -14,0 C 19,3 km/h (3 Bft)
27.02.2023 06:41 -5,3 C -6,7 C 83 % 1028,4 hPa 0,0 l/m 17,7 km/h (3 Bft) N-NO 22 0 min 0,0 UV-I 0 W/m -7,7 C -15,2 C 24,1 km/h (4 Bft)
27.02.2023 06:42 -5,3 C -6,7 C 83 % 1028,4 hPa 0,0 l/m 16,1 km/h (3 Bft) N-NO 22 0 min 0,0 UV-I 0 W/m -7,7 C -14,1 C 22,5 km/h (4 Bft)
27.02.2023 06:43 -5,2 C -6,7 C 83 % 1028,5 hPa 0,0 l/m 12,9 km/h (3 Bft) N-NO 22 0 min 0,0 UV-I 0 W/m -7,6 C -11,7 C 20,9 km/h (4 Bft)
27.02.2023 06:44 -5,2 C -6,7 C 83 % 1028,5 hPa 0,0 l/m 12,9 km/h (3 Bft) N-NO 22 0 min 0,0 UV-I 0 W/m -7,6 C -11,7 C 20,9 km/h (4 Bft)
27.02.2023 06:45 -5,2 C -6,7 C 83 % 1028,6 hPa 0,0 l/m 12,9 km/h (3 Bft) N-NO 22 0 min 0,0 UV-I 0 W/m -7,6 C -11,7 C 17,7 km/h (3 Bft)
27.02.2023 06:46 -5,2 C -6,7 C 83 % 1028,5 hPa 0,0 l/m 12,9 km/h (3 Bft) N-NO 22 0 min 0,0 UV-I 0 W/m -7,6 C -11,7 C 16,1 km/h (3 Bft)
27.02.2023 06:47 -5,3 C -6,7 C 82 % 1028,5 hPa 0,0 l/m 14,5 km/h (3 Bft) N-NO 22 0 min 0,0 UV-I 0 W/m -7,9 C -13,0 C 17,7 km/h (3 Bft)
27.02.2023 06:48 -5,3 C -6,7 C 82 % 1028,5 hPa 0,0 l/m 16,1 km/h (3 Bft) N-NO 22 0 min 0,0 UV-I 0 W/m -7,9 C -14,1 C 19,3 km/h (3 Bft)
27.02.2023 06:49 -5,3 C -6,7 C 82 % 1028,6 hPa 0,0 l/m 14,5 km/h (3 Bft) N-NO 22 0 min 0,0 UV-I 0 W/m -7,9 C -13,0 C 17,7 km/h (3 Bft)
27.02.2023 06:50 -5,3 C -6,7 C 82 % 1028,5 hPa 0,0 l/m 12,9 km/h (3 Bft) N-NO 22 0 min 0,0 UV-I 0 W/m -7,9 C -11,8 C 17,7 km/h (3 Bft)
27.02.2023 06:51 -5,3 C -6,7 C 82 % 1028,4 hPa 0,0 l/m 16,1 km/h (3 Bft) N-NO 22 0 min 0,0 UV-I 0 W/m -7,9 C -14,1 C 22,5 km/h (4 Bft)
27.02.2023 06:52 -5,3 C -6,7 C 83 % 1028,5 hPa 0,0 l/m 16,1 km/h (3 Bft) N-NO 22 0 min 0,0 UV-I 0 W/m -7,7 C -14,1 C 20,9 km/h (4 Bft)
27.02.2023 06:53 -5,3 C -6,7 C 83 % 1028,5 hPa 0,0 l/m 14,5 km/h (3 Bft) N-NO 22 0 min 0,0 UV-I 0 W/m -7,7 C -13,0 C 19,3 km/h (3 Bft)
27.02.2023 06:54 -5,3 C -6,7 C 82 % 1028,5 hPa 0,0 l/m 12,9 km/h (3 Bft) N-NO 22 0 min 0,0 UV-I 0 W/m -7,9 C -11,8 C 17,7 km/h (3 Bft)
27.02.2023 06:55 -5,3 C -6,7 C 82 % 1028,5 hPa 0,0 l/m 16,1 km/h (3 Bft) N-NO 22 0 min 0,0 UV-I 0 W/m -7,9 C -14,1 C 19,3 km/h (3 Bft)
27.02.2023 06:56 -5,3 C -6,7 C 82 % 1028,5 hPa 0,0 l/m 14,5 km/h (3 Bft) N-NO 22 0 min 0,0 UV-I 0 W/m -7,9 C -13,0 C 20,9 km/h (4 Bft)
27.02.2023 06:57 -5,3 C -6,7 C 82 % 1028,5 hPa 0,0 l/m 16,1 km/h (3 Bft) N-NO 22 0 min 0,0 UV-I 0 W/m -7,9 C -14,1 C 19,3 km/h (3 Bft)
27.02.2023 06:58 -5,3 C -6,7 C 82 % 1028,5 hPa 0,0 l/m 17,7 km/h (3 Bft) N-NO 22 0 min 0,0 UV-I 0 W/m -7,9 C -15,2 C 22,5 km/h (4 Bft)
27.02.2023 06:59 -5,3 C -6,7 C 82 % 1028,4 hPa 0,0 l/m 14,5 km/h (3 Bft) N-NO 22 0 min 0,0 UV-I 0 W/m -7,9 C -13,0 C 22,5 km/h (4 Bft)
27.02.2023 07:00 -5,3 C -6,7 C 82 % 1028,6 hPa 0,0 l/m 12,9 km/h (3 Bft) N-NO 22 0 min 0,0 UV-I 0 W/m -7,9 C -11,8 C 17,7 km/h (3 Bft)
27.02.2023 07:01 -5,3 C -6,7 C 82 % 1028,5 hPa 0,0 l/m 16,1 km/h (3 Bft) N-NO 22 0 min 0,0 UV-I 0 W/m -7,9 C -14,1 C 20,9 km/h (4 Bft)
27.02.2023 07:02 -5,3 C -6,7 C 82 % 1028,6 hPa 0,0 l/m 16,1 km/h (3 Bft) N-NO 22 0 min 0,0 UV-I 0 W/m -7,9 C -14,1 C 20,9 km/h (4 Bft)
27.02.2023 07:03 -5,3 C -6,7 C 82 % 1028,5 hPa 0,0 l/m 11,3 km/h (2 Bft) N-NO 22 0 min 0,0 UV-I 0 W/m -7,9 C -10,5 C 17,7 km/h (3 Bft)
27.02.2023 07:04 -5,3 C -6,7 C 82 % 1028,5 hPa 0,0 l/m 16,1 km/h (3 Bft) N-NO 22 0 min 0,0 UV-I 0 W/m -7,9 C -14,1 C 22,5 km/h (4 Bft)
27.02.2023 07:05 -5,3 C -6,7 C 82 % 1028,5 hPa 0,0 l/m 12,9 km/h (3 Bft) N-NO 22 0 min 0,0 UV-I 0 W/m -7,9 C -11,8 C 16,1 km/h (3 Bft)
27.02.2023 07:06 -5,3 C -6,7 C 82 % 1028,6 hPa 0,0 l/m 16,1 km/h (3 Bft) N-NO 22 0 min 0,0 UV-I 0 W/m -7,9 C -14,1 C 22,5 km/h (4 Bft)
27.02.2023 07:07 -5,3 C -6,7 C 82 % 1028,6 hPa 0,0 l/m 14,5 km/h (3 Bft) N-NO 22 0 min 0,0 UV-I 0 W/m -7,9 C -13,0 C 17,7 km/h (3 Bft)
27.02.2023 07:08 -5,3 C -6,7 C 82 % 1028,6 hPa 0,0 l/m 12,9 km/h (3 Bft) N-NO 22 0 min 0,0 UV-I 0 W/m -7,9 C -11,8 C 16,1 km/h (3 Bft)
27.02.2023 07:09 -5,3 C -6,7 C 82 % 1028,6 hPa 0,0 l/m 12,9 km/h (3 Bft) N-NO 22 0 min 0,0 UV-I 0 W/m -7,9 C -11,8 C 17,7 km/h (3 Bft)
27.02.2023 07:10 -5,3 C -6,7 C 82 % 1028,6 hPa 0,0 l/m 12,9 km/h (3 Bft) N-NO 22 0 min 0,0 UV-I 0 W/m -7,9 C -11,8 C 16,1 km/h (3 Bft)
27.02.2023 07:11 -5,3 C -6,7 C 82 % 1028,7 hPa 0,0 l/m 11,3 km/h (2 Bft) N-NO 22 0 min 0,0 UV-I 0 W/m -7,9 C -10,5 C 17,7 km/h (3 Bft)
27.02.2023 07:12 -5,4 C -6,7 C 82 % 1028,5 hPa 0,0 l/m 11,3 km/h (2 Bft) N-NO 22 0 min 0,0 UV-I 0 W/m -8,0 C -10,6 C 17,7 km/h (3 Bft)
27.02.2023 07:13 -5,4 C -6,7 C 82 % 1028,7 hPa 0,0 l/m 11,3 km/h (2 Bft) N-NO 22 0 min 0,0 UV-I 0 W/m -8,0 C -10,6 C 16,1 km/h (3 Bft)
27.02.2023 07:14 -5,4 C -6,7 C 82 % 1028,6 hPa 0,0 l/m 14,5 km/h (3 Bft) N-NO 22 0 min 0,0 UV-I 0 W/m -8,0 C -13,2 C 22,5 km/h (4 Bft)
27.02.2023 07:15 -5,4 C -6,7 C 82 % 1028,7 hPa 0,0 l/m 9,7 km/h (2 Bft) N-NO 22 0 min 0,0 UV-I 0 W/m -8,0 C -9,1 C 16,1 km/h (3 Bft)
27.02.2023 07:16 -5,4 C -6,7 C 82 % 1028,6 hPa 0,0 l/m 12,9 km/h (3 Bft) N-NO 22 0 min 0,0 UV-I 0 W/m -8,0 C -12,0 C 16,1 km/h (3 Bft)
27.02.2023 07:17 -5,4 C -6,7 C 82 % 1028,8 hPa 0,0 l/m 12,9 km/h (3 Bft) N-NO 22 0 min 0,0 UV-I 0 W/m -8,0 C -12,0 C 19,3 km/h (3 Bft)
27.02.2023 07:18 -5,4 C -6,7 C 82 % 1028,7 hPa 0,0 l/m 12,9 km/h (3 Bft) N-NO 22 0 min 0,0 UV-I 0 W/m -8,0 C -12,0 C 17,7 km/h (3 Bft)
27.02.2023 07:19 -5,3 C -6,7 C 82 % 1028,7 hPa 0,0 l/m 12,9 km/h (3 Bft) N-NO 22 0 min 0,0 UV-I 0 W/m -7,9 C -11,8 C 20,9 km/h (4 Bft)
27.02.2023 07:20 -5,3 C -6,7 C 82 % 1028,8 hPa 0,0 l/m 11,3 km/h (2 Bft) N-NO 22 0 min 0,0 UV-I 0 W/m -7,9 C -10,5 C 14,5 km/h (3 Bft)
27.02.2023 07:21 -5,3 C -6,7 C 82 % 1028,8 hPa 0,0 l/m 12,9 km/h (3 Bft) N-NO 22 0 min 0,0 UV-I 0 W/m -7,9 C -11,8 C 17,7 km/h (3 Bft)
27.02.2023 07:22 -5,3 C -6,7 C 82 % 1028,9 hPa 0,0 l/m 12,9 km/h (3 Bft) N-NO 22 0 min 0,0 UV-I 0 W/m -7,9 C -11,8 C 16,1 km/h (3 Bft)
27.02.2023 07:23 -5,3 C -6,7 C 82 % 1028,8 hPa 0,0 l/m 11,3 km/h (2 Bft) N-NO 22 0 min 0,0 UV-I 5 W/m -7,9 C -10,5 C 14,5 km/h (3 Bft)
27.02.2023 07:24 -5,3 C -6,7 C 82 % 1028,6 hPa 0,0 l/m 12,9 km/h (3 Bft) N-NO 22 0 min 0,0 UV-I 5 W/m -7,9 C -11,8 C 14,5 km/h (3 Bft)
27.02.2023 07:25 -5,3 C -6,7 C 82 % 1028,8 hPa 0,0 l/m 11,3 km/h (2 Bft) N-NO 22 0 min 0,0 UV-I 5 W/m -7,9 C -10,5 C 17,7 km/h (3 Bft)
27.02.2023 07:26 -5,3 C -6,7 C 82 % 1028,8 hPa 0,0 l/m 12,9 km/h (3 Bft) N-NO 22 0 min 0,0 UV-I 5 W/m -7,9 C -11,8 C 16,1 km/h (3 Bft)
27.02.2023 07:27 -5,3 C -6,7 C 82 % 1028,7 hPa 0,0 l/m 9,7 km/h (2 Bft) N-NO 22 0 min 0,0 UV-I 5 W/m -7,9 C -9,0 C 12,9 km/h (3 Bft)
27.02.2023 07:28 -5,3 C -6,7 C 82 % 1028,7 hPa 0,0 l/m 11,3 km/h (2 Bft) N-NO 22 0 min 0,0 UV-I 5 W/m -7,9 C -10,5 C 16,1 km/h (3 Bft)
27.02.2023 07:29 -5,3 C -6,7 C 82 % 1028,7 hPa 0,0 l/m 9,7 km/h (2 Bft) N-NO 22 0 min 0,0 UV-I 7 W/m -7,9 C -9,0 C 12,9 km/h (3 Bft)
27.02.2023 07:30 -5,3 C -6,7 C 82 % 1028,6 hPa 0,0 l/m 12,9 km/h (3 Bft) N-NO 22 0 min 0,0 UV-I 7 W/m -7,9 C -11,8 C 19,3 km/h (3 Bft)
27.02.2023 07:31 -5,3 C -6,7 C 82 % 1028,8 hPa 0,0 l/m 11,3 km/h (2 Bft) NO 45 0 min 0,0 UV-I 7 W/m -7,9 C -10,5 C 19,3 km/h (3 Bft)
27.02.2023 07:32 -5,3 C -6,7 C 82 % 1028,8 hPa 0,0 l/m 17,7 km/h (3 Bft) NO 45 0 min 0,0 UV-I 7 W/m -7,9 C -15,2 C 24,1 km/h (4 Bft)
27.02.2023 07:33 -5,3 C -6,7 C 82 % 1028,7 hPa 0,0 l/m 12,9 km/h (3 Bft) N-NO 22 0 min 0,0 UV-I 7 W/m -7,9 C -11,8 C 16,1 km/h (3 Bft)
27.02.2023 07:34 -5,3 C -6,7 C 82 % 1028,7 hPa 0,0 l/m 11,3 km/h (2 Bft) N-NO 22 0 min 0,0 UV-I 9 W/m -7,9 C -10,5 C 14,5 km/h (3 Bft)
27.02.2023 07:35 -5,3 C -6,7 C 82 % 1028,8 hPa 0,0 l/m 9,7 km/h (2 Bft) N-NO 22 0 min 0,0 UV-I 9 W/m -7,9 C -9,0 C 12,9 km/h (3 Bft)
27.02.2023 07:36 -5,3 C -6,7 C 82 % 1028,7 hPa 0,0 l/m 11,3 km/h (2 Bft) N-NO 22 0 min 0,0 UV-I 9 W/m -7,9 C -10,5 C 14,5 km/h (3 Bft)
27.02.2023 07:37 -5,3 C -6,7 C 82 % 1028,8 hPa 0,0 l/m 8,0 km/h (2 Bft) NO 45 0 min 0,0 UV-I 9 W/m -7,9 C -7,2 C 14,5 km/h (3 Bft)
27.02.2023 07:38 -5,3 C -6,7 C 82 % 1028,7 hPa 0,0 l/m 11,3 km/h (2 Bft) N-NO 22 0 min 0,0 UV-I 10 W/m -7,9 C -10,5 C 14,5 km/h (3 Bft)
27.02.2023 07:39 -5,3 C -6,7 C 82 % 1028,8 hPa 0,0 l/m 12,9 km/h (3 Bft) N-NO 22 0 min 0,0 UV-I 11 W/m -7,9 C -11,8 C 17,7 km/h (3 Bft)
27.02.2023 07:40 -5,3 C -6,7 C 82 % 1028,8 hPa 0,0 l/m 8,0 km/h (2 Bft) NO 45 0 min 0,0 UV-I 11 W/m -7,9 C -7,2 C 9,7 km/h (2 Bft)
27.02.2023 07:41 -5,3 C -6,7 C 82 % 1028,8 hPa 0,0 l/m 9,7 km/h (2 Bft) N-NO 22 0 min 0,0 UV-I 11 W/m -7,9 C -9,0 C 14,5 km/h (3 Bft)
27.02.2023 07:42 -5,3 C -6,7 C 82 % 1028,8 hPa 0,0 l/m 9,7 km/h (2 Bft) N-NO 22 0 min 0,0 UV-I 11 W/m -7,9 C -9,0 C 16,1 km/h (3 Bft)
27.02.2023 07:43 -5,3 C -6,7 C 82 % 1028,8 hPa 0,0 l/m 9,7 km/h (2 Bft) NO 45 0 min 0,0 UV-I 11 W/m -7,9 C -9,0 C 12,9 km/h (3 Bft)
27.02.2023 07:44 -5,3 C -6,7 C 82 % 1028,9 hPa 0,0 l/m 12,9 km/h (3 Bft) NO 45 0 min 0,0 UV-I 12 W/m -7,9 C -11,8 C 17,7 km/h (3 Bft)
27.02.2023 07:45 -5,3 C -6,7 C 82 % 1028,8 hPa 0,0 l/m 11,3 km/h (2 Bft) NO 45 0 min 0,0 UV-I 12 W/m -7,9 C -10,5 C 16,1 km/h (3 Bft)
27.02.2023 07:46 -5,2 C -6,7 C 82 % 1028,8 hPa 0,0 l/m 8,0 km/h (2 Bft) NO 45 0 min 0,0 UV-I 12 W/m -7,8 C -7,1 C 12,9 km/h (3 Bft)
27.02.2023 07:47 -5,2 C -6,7 C 82 % 1028,7 hPa 0,0 l/m 6,4 km/h (2 Bft) NO 45 0 min 0,0 UV-I 12 W/m -7,8 C -5,1 C 9,7 km/h (2 Bft)
27.02.2023 07:48 -5,2 C -6,7 C 82 % 1028,8 hPa 0,0 l/m 6,4 km/h (2 Bft) O-NO 67 0 min 0,0 UV-I 12 W/m -7,8 C -5,1 C 8,0 km/h (2 Bft)
27.02.2023 07:49 -5,3 C -6,7 C 82 % 1028,8 hPa 0,0 l/m 6,4 km/h (2 Bft) NO 45 0 min 0,0 UV-I 12 W/m -7,9 C -5,2 C 9,7 km/h (2 Bft)
27.02.2023 07:50 -5,3 C -6,7 C 82 % 1028,8 hPa 0,0 l/m 4,8 km/h (1 Bft) O-NO 67 0 min 0,0 UV-I 14 W/m -7,9 C -5,3 C 8,0 km/h (2 Bft)
27.02.2023 07:51 -5,3 C -6,7 C 82 % 1028,8 hPa 0,0 l/m 6,4 km/h (2 Bft) NO 45 0 min 0,0 UV-I 14 W/m -7,9 C -5,2 C 11,3 km/h (2 Bft)
27.02.2023 07:52 -5,3 C -6,7 C 82 % 1029,0 hPa 0,0 l/m 8,0 km/h (2 Bft) NO 45 0 min 0,0 UV-I 14 W/m -7,9 C -7,2 C 11,3 km/h (2 Bft)
27.02.2023 07:53 -5,4 C -6,7 C 82 % 1028,8 hPa 0,0 l/m 4,8 km/h (1 Bft) NO 45 0 min 0,0 UV-I 16 W/m -8,0 C -5,4 C 8,0 km/h (2 Bft)
27.02.2023 07:54 -5,4 C -6,7 C 82 % 1028,9 hPa 0,0 l/m 4,8 km/h (1 Bft) NO 45 0 min 0,0 UV-I 16 W/m -8,0 C -5,4 C 8,0 km/h (2 Bft)
27.02.2023 07:55 -5,4 C -6,7 C 82 % 1028,9 hPa 0,0 l/m 8,0 km/h (2 Bft) NO 45 0 min 0,0 UV-I 17 W/m -8,0 C -7,3 C 9,7 km/h (2 Bft)
27.02.2023 07:56 -5,4 C -6,1 C 82 % 1028,9 hPa 0,0 l/m 8,0 km/h (2 Bft) NO 45 0 min 0,0 UV-I 19 W/m -8,0 C -7,3 C 11,3 km/h (2 Bft)
27.02.2023 07:57 -5,3 C -6,1 C 82 % 1029,0 hPa 0,0 l/m 6,4 km/h (2 Bft) NO 45 0 min 0,0 UV-I 19 W/m -7,9 C -5,2 C 8,0 km/h (2 Bft)
27.02.2023 07:58 -5,3 C -6,1 C 82 % 1028,9 hPa 0,0 l/m 4,8 km/h (1 Bft) NO 45 0 min 0,0 UV-I 19 W/m -7,9 C -5,3 C 6,4 km/h (2 Bft)
27.02.2023 07:59 -5,3 C -5,6 C 82 % 1028,9 hPa 0,0 l/m 6,4 km/h (2 Bft) NO 45 0 min 0,0 UV-I 19 W/m -7,9 C -5,2 C 8,0 km/h (2 Bft)
27.02.2023 08:00 -5,2 C -5,6 C 82 % 1029,0 hPa 0,0 l/m 6,4 km/h (2 Bft) NO 45 0 min 0,0 UV-I 19 W/m -7,8 C -5,1 C 8,0 km/h (2 Bft)
27.02.2023 08:01 -5,2 C -5,6 C 82 % 1028,9 hPa 0,0 l/m 6,4 km/h (2 Bft) NO 45 0 min 0,0 UV-I 22 W/m -7,8 C -5,1 C 9,7 km/h (2 Bft)
27.02.2023 08:02 -5,2 C -5,6 C 82 % 1029,0 hPa 0,0 l/m 6,4 km/h (2 Bft) NO 45 0 min 0,0 UV-I 23 W/m -7,8 C -5,1 C 8,0 km/h (2 Bft)
27.02.2023 08:03 -5,1 C -5,0 C 82 % 1029,0 hPa 0,0 l/m 6,4 km/h (2 Bft) NO 45 0 min 0,0 UV-I 25 W/m -7,7 C -5,0 C 8,0 km/h (2 Bft)
27.02.2023 08:04 -5,1 C -5,0 C 82 % 1028,9 hPa 0,0 l/m 6,4 km/h (2 Bft) N-NO 22 0 min 0,0 UV-I 23 W/m -7,7 C -5,0 C 9,7 km/h (2 Bft)
27.02.2023 08:05 -5,0 C -5,0 C 82 % 1029,0 hPa 0,0 l/m 8,0 km/h (2 Bft) N-NO 22 0 min 0,0 UV-I 23 W/m -7,6 C -6,9 C 9,7 km/h (2 Bft)
27.02.2023 08:06 -4,9 C -5,0 C 82 % 1029,0 hPa 0,0 l/m 6,4 km/h (2 Bft) N-NO 22 0 min 0,0 UV-I 26 W/m -7,5 C -4,8 C 8,0 km/h (2 Bft)
27.02.2023 08:07 -4,9 C -4,4 C 82 % 1029,0 hPa 0,0 l/m 8,0 km/h (2 Bft) N-NO 22 0 min 0,0 UV-I 31 W/m -7,5 C -6,8 C 9,7 km/h (2 Bft)
27.02.2023 08:08 -4,8 C -4,4 C 82 % 1029,1 hPa 0,0 l/m 8,0 km/h (2 Bft) NO 45 0 min 0,0 UV-I 33 W/m -7,4 C -6,7 C 9,7 km/h (2 Bft)
27.02.2023 08:09 -4,8 C -4,4 C 82 % 1029,0 hPa 0,0 l/m 6,4 km/h (2 Bft) N-NO 22 0 min 0,0 UV-I 33 W/m -7,4 C -4,7 C 9,7 km/h (2 Bft)
27.02.2023 08:10 -4,7 C -4,4 C 82 % 1029,0 hPa 0,0 l/m 9,7 km/h (2 Bft) N-NO 22 0 min 0,0 UV-I 32 W/m -7,3 C -8,4 C 14,5 km/h (3 Bft)
27.02.2023 08:11 -4,7 C -4,4 C 81 % 1029,1 hPa 0,0 l/m 11,3 km/h (2 Bft) N-NO 22 0 min 0,0 UV-I 28 W/m -7,4 C -9,8 C 16,1 km/h (3 Bft)
27.02.2023 08:12 -4,7 C -3,9 C 81 % 1029,0 hPa 0,0 l/m 9,7 km/h (2 Bft) N-NO 22 0 min 0,0 UV-I 30 W/m -7,4 C -8,4 C 12,9 km/h (3 Bft)
27.02.2023 08:13 -4,6 C -3,9 C 81 % 1029,1 hPa 0,0 l/m 9,7 km/h (2 Bft) N-NO 22 0 min 0,0 UV-I 28 W/m -7,4 C -8,2 C 14,5 km/h (3 Bft)
27.02.2023 08:14 -4,6 C -3,9 C 81 % 1029,1 hPa 0,0 l/m 11,3 km/h (2 Bft) N-NO 22 0 min 0,0 UV-I 30 W/m -7,4 C -9,7 C 12,9 km/h (3 Bft)
27.02.2023 08:15 -4,6 C -3,9 C 81 % 1029,2 hPa 0,0 l/m 12,9 km/h (3 Bft) N-NO 22 0 min 0,0 UV-I 30 W/m -7,4 C -11,0 C 14,5 km/h (3 Bft)
27.02.2023 08:16 -4,5 C -3,9 C 81 % 1029,2 hPa 0,0 l/m 8,0 km/h (2 Bft) N-NO 22 0 min 0,0 UV-I 30 W/m -7,3 C -6,4 C 12,9 km/h (3 Bft)
27.02.2023 08:17 -4,4 C -3,3 C 81 % 1029,1 hPa 0,0 l/m 9,7 km/h (2 Bft) N-NO 22 0 min 0,0 UV-I 30 W/m -7,2 C -8,0 C 12,9 km/h (3 Bft)
27.02.2023 08:18 -4,4 C -3,3 C 81 % 1029,2 hPa 0,0 l/m 9,7 km/h (2 Bft) N-NO 22 0 min 0,0 UV-I 33 W/m -7,2 C -8,0 C 12,9 km/h (3 Bft)
27.02.2023 08:19 -4,4 C -3,3 C 81 % 1029,2 hPa 0,0 l/m 8,0 km/h (2 Bft) N-NO 22 0 min 0,0 UV-I 35 W/m -7,2 C -6,3 C 11,3 km/h (2 Bft)
27.02.2023 08:20 -4,3 C -3,3 C 81 % 1029,2 hPa 0,0 l/m 9,7 km/h (2 Bft) N-NO 22 0 min 0,0 UV-I 28 W/m -7,1 C -7,9 C 16,1 km/h (3 Bft)
27.02.2023 08:21 -4,3 C -3,3 C 81 % 1029,2 hPa 0,0 l/m 8,0 km/h (2 Bft) N-NO 22 0 min 0,0 UV-I 35 W/m -7,1 C -6,2 C 14,5 km/h (3 Bft)
27.02.2023 08:22 -4,3 C -3,3 C 81 % 1029,2 hPa 0,0 l/m 11,3 km/h (2 Bft) N-NO 22 0 min 0,0 UV-I 40 W/m -7,1 C -9,4 C 14,5 km/h (3 Bft)
27.02.2023 08:23 -4,2 C -3,3 C 81 % 1029,3 hPa 0,0 l/m 9,7 km/h (2 Bft) N-NO 22 0 min 0,0 UV-I 39 W/m -7,0 C -7,8 C 14,5 km/h (3 Bft)
27.02.2023 08:24 -4,2 C -2,8 C 81 % 1029,3 hPa 0,0 l/m 12,9 km/h (3 Bft) N-NO 22 0 min 0,0 UV-I 44 W/m -7,0 C -10,6 C 17,7 km/h (3 Bft)
27.02.2023 08:25 -4,2 C -2,8 C 80 % 1029,3 hPa 0,0 l/m 12,9 km/h (3 Bft) N-NO 22 0 min 0,0 UV-I 55 W/m -7,1 C -10,6 C 16,1 km/h (3 Bft)
27.02.2023 08:26 -4,1 C -2,8 C 80 % 1029,4 hPa 0,0 l/m 14,5 km/h (3 Bft) N-NO 22 0 min 0,0 UV-I 65 W/m -7,0 C -11,6 C 19,3 km/h (3 Bft)
27.02.2023 08:27 -4,1 C -2,8 C 80 % 1029,4 hPa 0,0 l/m 12,9 km/h (3 Bft) N-NO 22 0 min 0,0 UV-I 70 W/m -7,0 C -10,4 C 17,7 km/h (3 Bft)
27.02.2023 08:28 -4,1 C -2,8 C 80 % 1029,4 hPa 0,0 l/m 16,1 km/h (3 Bft) N-NO 22 0 min 0,0 UV-I 74 W/m -7,0 C -12,7 C 19,3 km/h (3 Bft)
27.02.2023 08:29 -4,0 C -2,8 C 80 % 1029,3 hPa 0,0 l/m 12,9 km/h (3 Bft) N 360 0 min 0,0 UV-I 70 W/m -6,9 C -10,3 C 14,5 km/h (3 Bft)
27.02.2023 08:30 -4,0 C -2,8 C 80 % 1029,3 hPa 0,0 l/m 12,9 km/h (3 Bft) N-NO 22 0 min 0,0 UV-I 72 W/m -6,9 C -10,3 C 16,1 km/h (3 Bft)
27.02.2023 08:31 -3,9 C -2,2 C 80 % 1029,3 hPa 0,0 l/m 16,1 km/h (3 Bft) N-NO 22 0 min 0,0 UV-I 80 W/m -6,8 C -12,4 C 19,3 km/h (3 Bft)
27.02.2023 08:32 -3,9 C -2,2 C 80 % 1029,4 hPa 0,0 l/m 14,5 km/h (3 Bft) N-NO 22 0 min 0,0 UV-I 83 W/m -6,8 C -11,4 C 19,3 km/h (3 Bft)
27.02.2023 08:33 -3,8 C -2,2 C 80 % 1029,4 hPa 0,0 l/m 14,5 km/h (3 Bft) N 360 0 min 0,0 UV-I 84 W/m -6,7 C -11,2 C 20,9 km/h (4 Bft)
27.02.2023 08:34 -3,8 C -2,2 C 80 % 1029,5 hPa 0,0 l/m 16,1 km/h (3 Bft) N-NO 22 0 min 0,0 UV-I 86 W/m -6,7 C -12,3 C 19,3 km/h (3 Bft)
27.02.2023 08:35 -3,8 C -2,2 C 80 % 1029,4 hPa 0,0 l/m 14,5 km/h (3 Bft) N 360 0 min 0,0 UV-I 88 W/m -6,7 C -11,2 C 19,3 km/h (3 Bft)
27.02.2023 08:36 -3,8 C -2,2 C 80 % 1029,4 hPa 0,0 l/m 14,5 km/h (3 Bft) N-NO 22 0 min 0,0 UV-I 91 W/m -6,7 C -11,2 C 20,9 km/h (4 Bft)
27.02.2023 08:37 -3,7 C -2,2 C 80 % 1029,4 hPa 0,0 l/m 14,5 km/h (3 Bft) N-NO 22 0 min 0,0 UV-I 91 W/m -6,6 C -11,1 C 17,7 km/h (3 Bft)
27.02.2023 08:38 -3,7 C -2,2 C 80 % 1029,5 hPa 0,0 l/m 19,3 km/h (3 Bft) N-NO 22 0 min 0,0 UV-I 95 W/m -6,6 C -14,0 C 22,5 km/h (4 Bft)
27.02.2023 08:39 -3,7 C -2,2 C 79 % 1029,4 hPa 0,0 l/m 14,5 km/h (3 Bft) N-NO 22 0 min 0,0 UV-I 97 W/m -6,8 C -11,1 C 17,7 km/h (3 Bft)
27.02.2023 08:40 -3,7 C -1,7 C 79 % 1029,4 hPa 0,0 l/m 12,9 km/h (3 Bft) N 360 0 min 0,0 UV-I 98 W/m -6,8 C -10,0 C 17,7 km/h (3 Bft)
27.02.2023 08:41 -3,6 C -1,7 C 79 % 1029,4 hPa 0,0 l/m 12,9 km/h (3 Bft) N-NO 22 0 min 0,0 UV-I 93 W/m -6,7 C -9,8 C 16,1 km/h (3 Bft)
27.02.2023 08:42 -3,6 C -1,7 C 79 % 1029,4 hPa 0,0 l/m 12,9 km/h (3 Bft) N-NO 22 0 min 0,0 UV-I 99 W/m -6,7 C -9,8 C 19,3 km/h (3 Bft)
27.02.2023 08:43 -3,6 C -1,1 C 79 % 1029,4 hPa 0,0 l/m 16,1 km/h (3 Bft) N-NO 22 0 min 0,0 UV-I 109 W/m -6,7 C -12,1 C 20,9 km/h (4 Bft)
27.02.2023 08:44 -3,5 C -1,1 C 79 % 1029,4 hPa 0,0 l/m 16,1 km/h (3 Bft) N-NO 22 0 min 0,0 UV-I 113 W/m -6,6 C -11,9 C 19,3 km/h (3 Bft)
27.02.2023 08:45 -3,4 C -1,1 C 79 % 1029,5 hPa 0,0 l/m 12,9 km/h (3 Bft) N-NO 22 0 min 0,5 UV-I 116 W/m -6,5 C -9,6 C 19,3 km/h (3 Bft)
27.02.2023 08:46 -3,4 C -1,1 C 79 % 1029,5 hPa 0,0 l/m 19,3 km/h (3 Bft) N-NO 22 0 min 0,5 UV-I 118 W/m -6,5 C -13,7 C 22,5 km/h (4 Bft)
27.02.2023 08:47 -3,4 C -1,1 C 79 % 1029,4 hPa 0,0 l/m 11,3 km/h (2 Bft) N-NO 22 0 min 0,5 UV-I 121 W/m -6,5 C -8,3 C 17,7 km/h (3 Bft)
27.02.2023 08:48 -3,4 C -0,6 C 78 % 1029,5 hPa 0,0 l/m 16,1 km/h (3 Bft) N-NO 22 0 min 0,5 UV-I 127 W/m -6,7 C -11,8 C 20,9 km/h (4 Bft)
27.02.2023 08:49 -3,3 C -0,6 C 78 % 1029,4 hPa 0,0 l/m 14,5 km/h (3 Bft) N-NO 22 0 min 0,5 UV-I 123 W/m -6,6 C -10,6 C 17,7 km/h (3 Bft)
27.02.2023 08:50 -3,4 C -0,6 C 79 % 1029,5 hPa 0,0 l/m 11,3 km/h (2 Bft) N-NO 22 0 min 0,5 UV-I 105 W/m -6,5 C -8,3 C 16,1 km/h (3 Bft)
27.02.2023 08:51 -3,3 C 0,0 C 79 % 1029,5 hPa 0,0 l/m 20,9 km/h (4 Bft) N-NO 22 0 min 0,5 UV-I 123 W/m -6,4 C -14,3 C 25,7 km/h (4 Bft)
27.02.2023 08:52 -3,3 C 0,0 C 78 % 1029,4 hPa 0,0 l/m 17,7 km/h (3 Bft) N-NO 22 0 min 0,5 UV-I 97 W/m -6,6 C -12,6 C 22,5 km/h (4 Bft)
27.02.2023 08:53 -3,2 C 0,0 C 78 % 1029,5 hPa 0,0 l/m 19,3 km/h (3 Bft) N-NO 22 0 min 0,5 UV-I 91 W/m -6,5 C -13,4 C 29,0 km/h (5 Bft)
27.02.2023 08:54 -3,2 C 0,0 C 78 % 1029,4 hPa 0,0 l/m 16,1 km/h (3 Bft) N-NO 22 0 min 0,5 UV-I 135 W/m -6,5 C -11,6 C 19,3 km/h (3 Bft)
27.02.2023 08:55 -3,2 C 0,0 C 78 % 1029,4 hPa 0,0 l/m 14,5 km/h (3 Bft) N-NO 22 0 min 0,5 UV-I 127 W/m -6,5 C -10,5 C 20,9 km/h (4 Bft)
27.02.2023 08:56 -3,1 C 0,0 C 78 % 1029,5 hPa 0,0 l/m 17,7 km/h (3 Bft) N-NO 22 0 min 0,5 UV-I 162 W/m -6,4 C -12,4 C 20,9 km/h (4 Bft)
27.02.2023 08:57 -3,1 C 0,6 C 78 % 1029,5 hPa 0,0 l/m 16,1 km/h (3 Bft) N-NO 22 0 min 0,5 UV-I 167 W/m -6,4 C -11,4 C 19,3 km/h (3 Bft)
27.02.2023 08:58 -3,0 C 0,6 C 78 % 1029,5 hPa 0,0 l/m 19,3 km/h (3 Bft) N-NO 22 0 min 0,6 UV-I 171 W/m -6,3 C -13,1 C 22,5 km/h (4 Bft)
27.02.2023 08:59 -3,1 C 0,6 C 78 % 1029,5 hPa 0,0 l/m 20,9 km/h (4 Bft) N-NO 22 0 min 0,6 UV-I 174 W/m -6,4 C -14,1 C 29,0 km/h (5 Bft)
27.02.2023 09:00 -3,0 C 0,6 C 78 % 1029,5 hPa 0,0 l/m 20,9 km/h (4 Bft) N-NO 22 0 min 0,6 UV-I 167 W/m -6,3 C -14,0 C 29,0 km/h (5 Bft)
27.02.2023 09:01 -3,0 C 0,6 C 77 % 1029,5 hPa 0,0 l/m 19,3 km/h (3 Bft) N-NO 22 0 min 0,6 UV-I 163 W/m -6,4 C -13,1 C 24,1 km/h (4 Bft)
27.02.2023 09:02 -3,0 C 1,1 C 77 % 1029,5 hPa 0,0 l/m 12,9 km/h (3 Bft) N-NO 22 0 min 0,6 UV-I 169 W/m -6,4 C -9,1 C 17,7 km/h (3 Bft)
27.02.2023 09:03 -2,9 C 1,7 C 77 % 1029,4 hPa 0,0 l/m 11,3 km/h (2 Bft) N-NO 22 0 min 0,6 UV-I 185 W/m -6,4 C -7,8 C 17,7 km/h (3 Bft)
27.02.2023 09:04 -2,9 C 1,7 C 78 % 1029,4 hPa 0,0 l/m 17,7 km/h (3 Bft) N-NO 22 0 min 0,6 UV-I 183 W/m -6,2 C -12,1 C 20,9 km/h (4 Bft)
27.02.2023 09:05 -2,8 C 1,7 C 77 % 1029,4 hPa 0,0 l/m 17,7 km/h (3 Bft) N-NO 22 0 min 0,6 UV-I 171 W/m -6,3 C -12,0 C 22,5 km/h (4 Bft)
27.02.2023 09:06 -2,8 C 2,2 C 77 % 1029,5 hPa 0,0 l/m 16,1 km/h (3 Bft) N-NO 22 0 min 0,6 UV-I 150 W/m -6,3 C -11,1 C 25,7 km/h (4 Bft)
27.02.2023 09:07 -2,8 C 2,2 C 77 % 1029,5 hPa 0,0 l/m 19,3 km/h (3 Bft) N-NO 22 0 min 0,6 UV-I 132 W/m -6,3 C -12,9 C 25,7 km/h (4 Bft)
27.02.2023 09:08 -2,8 C 1,7 C 77 % 1029,5 hPa 0,0 l/m 19,3 km/h (3 Bft) N-NO 22 0 min 0,6 UV-I 137 W/m -6,3 C -12,9 C 22,5 km/h (4 Bft)
27.02.2023 09:09 -2,7 C 2,2 C 77 % 1029,5 hPa 0,0 l/m 17,7 km/h (3 Bft) N-NO 22 0 min 0,6 UV-I 165 W/m -6,2 C -11,9 C 22,5 km/h (4 Bft)
27.02.2023 09:10 -2,7 C 2,2 C 77 % 1029,5 hPa 0,0 l/m 24,1 km/h (4 Bft) N-NO 22 0 min 0,6 UV-I 193 W/m -6,2 C -15,0 C 30,6 km/h (5 Bft)
27.02.2023 09:11 -2,8 C 1,7 C 77 % 1029,5 hPa 0,0 l/m 19,3 km/h (3 Bft) N-NO 22 0 min 0,6 UV-I 202 W/m -6,3 C -12,9 C 22,5 km/h (4 Bft)
27.02.2023 09:12 -2,8 C 2,2 C 77 % 1029,5 hPa 0,0 l/m 14,5 km/h (3 Bft) N-NO 22 0 min 0,7 UV-I 215 W/m -6,3 C -10,0 C 19,3 km/h (3 Bft)
27.02.2023 09:13 -2,7 C 2,2 C 77 % 1029,5 hPa 0,0 l/m 14,5 km/h (3 Bft) N-NO 22 0 min 0,7 UV-I 220 W/m -6,2 C -9,9 C 17,7 km/h (3 Bft)
27.02.2023 09:14 -2,7 C 2,2 C 77 % 1029,5 hPa 0,0 l/m 14,5 km/h (3 Bft) N-NO 22 0 min 0,7 UV-I 207 W/m -6,2 C -9,9 C 20,9 km/h (4 Bft)
27.02.2023 09:15 -2,6 C 1,7 C 77 % 1029,5 hPa 0,0 l/m 19,3 km/h (3 Bft) N-NO 22 0 min 0,7 UV-I 181 W/m -6,1 C -12,6 C 25,7 km/h (4 Bft)
27.02.2023 09:16 -2,5 C 2,2 C 77 % 1029,5 hPa 0,0 l/m 17,7 km/h (3 Bft) N-NO 22 0 min 0,7 UV-I 172 W/m -6,0 C -11,6 C 22,5 km/h (4 Bft)
27.02.2023 09:17 -2,5 C 2,2 C 77 % 1029,5 hPa 0,0 l/m 14,5 km/h (3 Bft) N-NO 22 0 min 0,7 UV-I 206 W/m -6,0 C -9,7 C 19,3 km/h (3 Bft)
27.02.2023 09:18 -2,4 C 2,8 C 77 % 1029,5 hPa 0,0 l/m 16,1 km/h (3 Bft) N-NO 22 0 min 0,7 UV-I 120 W/m -5,9 C -10,6 C 19,3 km/h (3 Bft)
27.02.2023 09:19 -2,4 C 2,8 C 77 % 1029,5 hPa 0,0 l/m 16,1 km/h (3 Bft) N-NO 22 0 min 0,7 UV-I 148 W/m -5,9 C -10,6 C 19,3 km/h (3 Bft)
27.02.2023 09:20 -2,4 C 3,3 C 77 % 1029,6 hPa 0,0 l/m 17,7 km/h (3 Bft) N-NO 22 0 min 0,7 UV-I 151 W/m -5,9 C -11,5 C 24,1 km/h (4 Bft)
27.02.2023 09:21 -2,4 C 2,8 C 77 % 1029,5 hPa 0,0 l/m 19,3 km/h (3 Bft) N-NO 22 0 min 0,7 UV-I 155 W/m -5,9 C -12,4 C 24,1 km/h (4 Bft)
27.02.2023 09:22 -2,4 C 2,8 C 77 % 1029,6 hPa 0,0 l/m 14,5 km/h (3 Bft) N-NO 22 0 min 0,7 UV-I 130 W/m -5,9 C -9,6 C 17,7 km/h (3 Bft)
27.02.2023 09:23 -2,4 C 3,3 C 77 % 1029,5 hPa 0,0 l/m 14,5 km/h (3 Bft) N-NO 22 0 min 0,7 UV-I 147 W/m -5,9 C -9,6 C 19,3 km/h (3 Bft)
27.02.2023 09:24 -2,3 C 3,3 C 77 % 1029,5 hPa 0,0 l/m 17,7 km/h (3 Bft) N-NO 22 0 min 0,7 UV-I 174 W/m -5,8 C -11,4 C 27,4 km/h (4 Bft)
27.02.2023 09:25 -2,3 C 3,3 C 77 % 1029,5 hPa 0,0 l/m 17,7 km/h (3 Bft) N-NO 22 0 min 0,7 UV-I 185 W/m -5,8 C -11,4 C 20,9 km/h (4 Bft)
27.02.2023 09:26 -2,3 C 2,8 C 77 % 1029,5 hPa 0,0 l/m 14,5 km/h (3 Bft) N-NO 22 0 min 0,8 UV-I 181 W/m -5,8 C -9,4 C 22,5 km/h (4 Bft)
27.02.2023 09:27 -2,3 C 2,8 C 77 % 1029,6 hPa 0,0 l/m 16,1 km/h (3 Bft) N-NO 22 0 min 0,8 UV-I 163 W/m -5,8 C -10,5 C 22,5 km/h (4 Bft)
27.02.2023 09:28 -2,3 C 2,8 C 77 % 1029,6 hPa 0,0 l/m 19,3 km/h (3 Bft) N-NO 22 0 min 0,7 UV-I 128 W/m -5,8 C -12,2 C 25,7 km/h (4 Bft)
27.02.2023 09:29 -2,3 C 2,8 C 77 % 1029,6 hPa 0,0 l/m 16,1 km/h (3 Bft) N-NO 22 0 min 0,8 UV-I 160 W/m -5,8 C -10,5 C 20,9 km/h (4 Bft)
27.02.2023 09:30 -2,2 C 3,3 C 77 % 1029,5 hPa 0,0 l/m 12,9 km/h (3 Bft) N-NO 22 1 min 0,8 UV-I 255 W/m -5,7 C -8,2 C 17,7 km/h (3 Bft)
27.02.2023 09:31 -2,2 C 3,9 C 77 % 1029,6 hPa 0,0 l/m 12,9 km/h (3 Bft) NO 45 0 min 0,8 UV-I 248 W/m -5,7 C -8,2 C 17,7 km/h (3 Bft)
27.02.2023 09:32 -2,2 C 3,9 C 77 % 1029,6 hPa 0,0 l/m 14,5 km/h (3 Bft) N-NO 22 0 min 0,9 UV-I 236 W/m -5,7 C -9,3 C 16,1 km/h (3 Bft)
27.02.2023 09:33 -2,2 C 3,9 C 76 % 1029,7 hPa 0,0 l/m 12,9 km/h (3 Bft) N-NO 22 0 min 0,9 UV-I 214 W/m -5,8 C -8,2 C 16,1 km/h (3 Bft)
27.02.2023 09:34 -2,1 C 3,9 C 76 % 1029,6 hPa 0,0 l/m 12,9 km/h (3 Bft) N-NO 22 0 min 0,9 UV-I 207 W/m -5,7 C -8,1 C 19,3 km/h (3 Bft)
27.02.2023 09:35 -2,0 C 4,4 C 76 % 1029,6 hPa 0,0 l/m 9,7 km/h (2 Bft) N-NO 22 0 min 0,8 UV-I 205 W/m -5,6 C -5,4 C 14,5 km/h (3 Bft)
27.02.2023 09:36 -2,0 C 3,3 C 77 % 1029,7 hPa 0,0 l/m 12,9 km/h (3 Bft) NO 45 1 min 0,8 UV-I 258 W/m -5,5 C -8,0 C 17,7 km/h (3 Bft)
27.02.2023 09:37 -2,0 C 2,8 C 76 % 1029,6 hPa 0,0 l/m 11,3 km/h (2 Bft) NO 45 0 min 0,9 UV-I 220 W/m -5,6 C -6,8 C 14,5 km/h (3 Bft)
27.02.2023 09:38 -1,9 C 2,8 C 76 % 1029,6 hPa 0,0 l/m 12,9 km/h (3 Bft) NO 45 0 min 0,9 UV-I 179 W/m -5,6 C -7,9 C 16,1 km/h (3 Bft)
27.02.2023 09:39 -1,9 C 2,2 C 76 % 1029,6 hPa 0,0 l/m 14,5 km/h (3 Bft) N-NO 22 0 min 0,8 UV-I 225 W/m -5,6 C -9,0 C 19,3 km/h (3 Bft)
27.02.2023 09:40 -1,8 C 2,2 C 76 % 1029,5 hPa 0,0 l/m 11,3 km/h (2 Bft) N-NO 22 1 min 0,9 UV-I 251 W/m -5,5 C -6,5 C 14,5 km/h (3 Bft)
27.02.2023 09:41 -1,8 C 1,7 C 76 % 1029,7 hPa 0,0 l/m 16,1 km/h (3 Bft) N-NO 22 0 min 0,9 UV-I 120 W/m -5,5 C -9,8 C 25,7 km/h (4 Bft)
27.02.2023 09:42 -1,8 C 1,1 C 76 % 1029,6 hPa 0,0 l/m 17,7 km/h (3 Bft) N-NO 22 0 min 0,8 UV-I 165 W/m -5,5 C -10,8 C 24,1 km/h (4 Bft)
27.02.2023 09:43 -1,8 C 0,6 C 75 % 1029,6 hPa 0,0 l/m 17,7 km/h (3 Bft) N-NO 22 0 min 0,9 UV-I 209 W/m -5,6 C -10,8 C 22,5 km/h (4 Bft)
27.02.2023 09:44 -1,8 C 0,0 C 76 % 1029,6 hPa 0,0 l/m 14,5 km/h (3 Bft) N-NO 22 0 min 0,9 UV-I 186 W/m -5,5 C -8,8 C 19,3 km/h (3 Bft)
27.02.2023 09:45 -1,8 C 0,6 C 75 % 1029,6 hPa 0,0 l/m 16,1 km/h (3 Bft) N-NO 22 0 min 0,9 UV-I 246 W/m -5,6 C -9,8 C 20,9 km/h (4 Bft)
27.02.2023 09:46 -1,8 C 0,6 C 75 % 1029,7 hPa 0,0 l/m 16,1 km/h (3 Bft) N-NO 22 1 min 0,9 UV-I 262 W/m -5,6 C -9,8 C 22,5 km/h (4 Bft)
27.02.2023 09:47 -1,9 C 0,0 C 75 % 1029,6 hPa 0,0 l/m 19,3 km/h (3 Bft) N-NO 22 0 min 0,9 UV-I 218 W/m -5,7 C -11,7 C 24,1 km/h (4 Bft)
27.02.2023 09:48 -1,8 C 0,6 C 75 % 1029,7 hPa 0,0 l/m 14,5 km/h (3 Bft) N-NO 22 0 min 1,0 UV-I 236 W/m -5,6 C -8,8 C 19,3 km/h (3 Bft)
27.02.2023 09:49 -1,8 C 0,6 C 76 % 1029,6 hPa 0,0 l/m 16,1 km/h (3 Bft) N-NO 22 1 min 1,0 UV-I 276 W/m -5,5 C -9,8 C 20,9 km/h (4 Bft)
27.02.2023 09:50 -1,8 C 1,1 C 76 % 1029,6 hPa 0,0 l/m 17,7 km/h (3 Bft) N-NO 22 1 min 1,1 UV-I 309 W/m -5,5 C -10,8 C 22,5 km/h (4 Bft)
27.02.2023 09:51 -1,7 C 1,7 C 76 % 1029,6 hPa 0,0 l/m 16,1 km/h (3 Bft) N-NO 22 1 min 1,1 UV-I 313 W/m -5,4 C -9,7 C 20,9 km/h (4 Bft)
27.02.2023 09:52 -1,6 C 2,2 C 76 % 1029,6 hPa 0,0 l/m 14,5 km/h (3 Bft) N 360 1 min 1,1 UV-I 306 W/m -5,3 C -8,6 C 20,9 km/h (4 Bft)
27.02.2023 09:53 -1,6 C 2,2 C 76 % 1029,6 hPa 0,0 l/m 19,3 km/h (3 Bft) N-NO 22 1 min 1,1 UV-I 302 W/m -5,3 C -11,4 C 27,4 km/h (4 Bft)
27.02.2023 09:54 -1,6 C 2,2 C 75 % 1029,6 hPa 0,0 l/m 19,3 km/h (3 Bft) N-NO 22 1 min 1,1 UV-I 320 W/m -5,4 C -11,4 C 24,1 km/h (4 Bft)
27.02.2023 09:55 -1,7 C 2,2 C 75 % 1029,6 hPa 0,0 l/m 17,7 km/h (3 Bft) N-NO 22 1 min 1,1 UV-I 309 W/m -5,5 C -10,6 C 20,9 km/h (4 Bft)
27.02.2023 09:56 -1,7 C 2,2 C 75 % 1029,6 hPa 0,0 l/m 14,5 km/h (3 Bft) N-NO 22 1 min 1,2 UV-I 290 W/m -5,5 C -8,7 C 19,3 km/h (3 Bft)
27.02.2023 09:57 -1,6 C 2,2 C 76 % 1029,7 hPa 0,0 l/m 16,1 km/h (3 Bft) N 360 1 min 1,1 UV-I 292 W/m -5,3 C -9,6 C 22,5 km/h (4 Bft)
27.02.2023 09:58 -1,6 C 2,2 C 75 % 1029,7 hPa 0,0 l/m 17,7 km/h (3 Bft) N-NO 22 1 min 1,1 UV-I 280 W/m -5,4 C -10,5 C 25,7 km/h (4 Bft)
27.02.2023 09:59 -1,6 C 2,2 C 75 % 1029,5 hPa 0,0 l/m 16,1 km/h (3 Bft) N-NO 22 1 min 1,0 UV-I 332 W/m -5,4 C -9,6 C 19,3 km/h (3 Bft)
27.02.2023 10:00 -1,6 C 2,8 C 75 % 1029,6 hPa 0,0 l/m 16,1 km/h (3 Bft) N-NO 22 1 min 1,2 UV-I 338 W/m -5,4 C -9,6 C 19,3 km/h (3 Bft)
27.02.2023 10:01 -1,6 C 2,8 C 74 % 1029,7 hPa 0,0 l/m 17,7 km/h (3 Bft) N-NO 22 1 min 1,2 UV-I 334 W/m -5,6 C -10,5 C 20,9 km/h (4 Bft)
27.02.2023 10:02 -1,5 C 2,8 C 75 % 1029,7 hPa 0,0 l/m 19,3 km/h (3 Bft) N 360 1 min 1,1 UV-I 299 W/m -5,3 C -11,2 C 29,0 km/h (5 Bft)
27.02.2023 10:03 -1,5 C 2,8 C 75 % 1029,6 hPa 0,0 l/m 17,7 km/h (3 Bft) N-NO 22 1 min 1,2 UV-I 257 W/m -5,3 C -10,4 C 22,5 km/h (4 Bft)
27.02.2023 10:04 -1,5 C 2,2 C 75 % 1029,7 hPa 0,0 l/m 12,9 km/h (3 Bft) NO 45 1 min 1,1 UV-I 262 W/m -5,3 C -7,4 C 17,7 km/h (3 Bft)
27.02.2023 10:05 -1,4 C 2,2 C 75 % 1029,7 hPa 0,0 l/m 12,9 km/h (3 Bft) N-NO 22 1 min 1,2 UV-I 325 W/m -5,2 C -7,3 C 17,7 km/h (3 Bft)
27.02.2023 10:06 -1,4 C 2,8 C 75 % 1029,5 hPa 0,0 l/m 16,1 km/h (3 Bft) N-NO 22 1 min 1,2 UV-I 332 W/m -5,2 C -9,3 C 24,1 km/h (4 Bft)
27.02.2023 10:07 -1,4 C 2,8 C 75 % 1029,7 hPa 0,0 l/m 22,5 km/h (4 Bft) NO 45 1 min 1,3 UV-I 343 W/m -5,2 C -12,6 C 29,0 km/h (5 Bft)
27.02.2023 10:08 -1,4 C 2,8 C 74 % 1029,6 hPa 0,0 l/m 16,1 km/h (3 Bft) NO 45 1 min 1,2 UV-I 292 W/m -5,4 C -9,3 C 25,7 km/h (4 Bft)
27.02.2023 10:09 -1,4 C 2,8 C 74 % 1029,6 hPa 0,0 l/m 14,5 km/h (3 Bft) NO 45 1 min 1,1 UV-I 309 W/m -5,4 C -8,4 C 19,3 km/h (3 Bft)
27.02.2023 10:10 -1,3 C 3,3 C 74 % 1029,7 hPa 0,0 l/m 16,1 km/h (3 Bft) NO 45 1 min 1,2 UV-I 350 W/m -5,3 C -9,2 C 25,7 km/h (4 Bft)
27.02.2023 10:11 -1,3 C 3,9 C 75 % 1029,6 hPa 0,0 l/m 19,3 km/h (3 Bft) N-NO 22 1 min 1,3 UV-I 362 W/m -5,1 C -11,0 C 24,1 km/h (4 Bft)
27.02.2023 10:12 -1,3 C 4,4 C 74 % 1029,6 hPa 0,0 l/m 17,7 km/h (3 Bft) N-NO 22 1 min 1,3 UV-I 364 W/m -5,3 C -10,1 C 22,5 km/h (4 Bft)
27.02.2023 10:13 -1,4 C 3,9 C 73 % 1029,6 hPa 0,0 l/m 16,1 km/h (3 Bft) N-NO 22 1 min 1,3 UV-I 362 W/m -5,6 C -9,3 C 22,5 km/h (4 Bft)
27.02.2023 10:14 -1,3 C 4,4 C 74 % 1029,7 hPa 0,0 l/m 19,3 km/h (3 Bft) NO 45 1 min 1,3 UV-I 366 W/m -5,3 C -11,0 C 25,7 km/h (4 Bft)
27.02.2023 10:15 -1,4 C 4,4 C 73 % 1029,6 hPa 0,0 l/m 17,7 km/h (3 Bft) NO 45 1 min 1,2 UV-I 371 W/m -5,6 C -10,3 C 24,1 km/h (4 Bft)
27.02.2023 10:16 -1,3 C 5,0 C 73 % 1029,6 hPa 0,0 l/m 17,7 km/h (3 Bft) N-NO 22 1 min 1,4 UV-I 373 W/m -5,5 C -10,1 C 22,5 km/h (4 Bft)
27.02.2023 10:17 -1,3 C 5,0 C 73 % 1029,6 hPa 0,0 l/m 20,9 km/h (4 Bft) N-NO 22 1 min 1,4 UV-I 369 W/m -5,5 C -11,7 C 27,4 km/h (4 Bft)
27.02.2023 10:18 -1,3 C 5,0 C 73 % 1029,6 hPa 0,0 l/m 19,3 km/h (3 Bft) N-NO 22 1 min 1,4 UV-I 371 W/m -5,5 C -11,0 C 25,7 km/h (4 Bft)
27.02.2023 10:19 -1,3 C 5,6 C 74 % 1029,6 hPa 0,0 l/m 19,3 km/h (3 Bft) N-NO 22 1 min 1,4 UV-I 376 W/m -5,3 C -11,0 C 27,4 km/h (4 Bft)
27.02.2023 10:20 -1,3 C 5,6 C 73 % 1029,6 hPa 0,0 l/m 17,7 km/h (3 Bft) NO 45 1 min 1,4 UV-I 374 W/m -5,5 C -10,1 C 25,7 km/h (4 Bft)
27.02.2023 10:21 -1,3 C 5,0 C 73 % 1029,6 hPa 0,0 l/m 19,3 km/h (3 Bft) N-NO 22 1 min 1,4 UV-I 387 W/m -5,5 C -11,0 C 32,2 km/h (5 Bft)
27.02.2023 10:22 -1,3 C 5,0 C 74 % 1029,6 hPa 0,0 l/m 17,7 km/h (3 Bft) NO 45 1 min 1,4 UV-I 381 W/m -5,3 C -10,1 C 32,2 km/h (5 Bft)
27.02.2023 10:23 -1,2 C 5,6 C 73 % 1029,5 hPa 0,0 l/m 17,7 km/h (3 Bft) N-NO 22 1 min 1,4 UV-I 381 W/m -5,4 C -10,0 C 24,1 km/h (4 Bft)
27.02.2023 10:24 -1,1 C 5,6 C 74 % 1029,6 hPa 0,0 l/m 17,7 km/h (3 Bft) N-NO 22 1 min 1,4 UV-I 383 W/m -5,1 C -9,9 C 24,1 km/h (4 Bft)
27.02.2023 10:25 -1,0 C 6,1 C 74 % 1029,6 hPa 0,0 l/m 19,3 km/h (3 Bft) N-NO 22 1 min 1,4 UV-I 385 W/m -5,0 C -10,6 C 22,5 km/h (4 Bft)
27.02.2023 10:26 -1,1 C 6,1 C 74 % 1029,6 hPa 0,0 l/m 16,1 km/h (3 Bft) N-NO 22 1 min 1,4 UV-I 383 W/m -5,1 C -9,0 C 22,5 km/h (4 Bft)
27.02.2023 10:27 -1,0 C 6,7 C 74 % 1029,6 hPa 0,0 l/m 14,5 km/h (3 Bft) NO 45 1 min 1,5 UV-I 385 W/m -5,0 C -7,9 C 17,7 km/h (3 Bft)
27.02.2023 10:28 -0,9 C 7,2 C 74 % 1029,5 hPa 0,0 l/m 14,5 km/h (3 Bft) NO 45 1 min 1,5 UV-I 388 W/m -4,9 C -7,8 C 19,3 km/h (3 Bft)
27.02.2023 10:29 -0,8 C 7,2 C 74 % 1029,6 hPa 0,0 l/m 14,5 km/h (3 Bft) N-NO 22 1 min 1,5 UV-I 390 W/m -4,8 C -7,6 C 22,5 km/h (4 Bft)
27.02.2023 10:30 -0,8 C 7,2 C 74 % 1029,6 hPa 0,0 l/m 17,7 km/h (3 Bft) N-NO 22 1 min 1,5 UV-I 394 W/m -4,8 C -9,5 C 24,1 km/h (4 Bft)
27.02.2023 10:31 -0,9 C 7,2 C 72 % 1029,5 hPa 0,0 l/m 20,9 km/h (4 Bft) NO 45 1 min 1,5 UV-I 397 W/m -5,3 C -11,2 C 29,0 km/h (5 Bft)
27.02.2023 10:32 -0,9 C 6,7 C 73 % 1029,6 hPa 0,0 l/m 16,1 km/h (3 Bft) NO 45 1 min 1,5 UV-I 399 W/m -5,1 C -8,7 C 22,5 km/h (4 Bft)
27.02.2023 10:33 -0,9 C 6,7 C 73 % 1029,6 hPa 0,0 l/m 14,5 km/h (3 Bft) NO 45 1 min 1,5 UV-I 403 W/m -5,1 C -7,8 C 19,3 km/h (3 Bft)
27.02.2023 10:34 -0,8 C 6,7 C 73 % 1029,6 hPa 0,0 l/m 14,5 km/h (3 Bft) N-NO 22 1 min 1,5 UV-I 402 W/m -5,0 C -7,6 C 24,1 km/h (4 Bft)
27.02.2023 10:35 -0,8 C 6,7 C 74 % 1029,6 hPa 0,0 l/m 19,3 km/h (3 Bft) N-NO 22 1 min 1,5 UV-I 403 W/m -4,8 C -10,3 C 25,7 km/h (4 Bft)
27.02.2023 10:36 -0,9 C 6,7 C 73 % 1029,6 hPa 0,0 l/m 17,7 km/h (3 Bft) N-NO 22 1 min 1,6 UV-I 404 W/m -5,1 C -9,6 C 22,5 km/h (4 Bft)
27.02.2023 10:37 -0,8 C 6,7 C 73 % 1029,5 hPa 0,0 l/m 17,7 km/h (3 Bft) N-NO 22 1 min 1,6 UV-I 406 W/m -5,0 C -9,5 C 22,5 km/h (4 Bft)
27.02.2023 10:38 -0,8 C 6,7 C 73 % 1029,7 hPa 0,0 l/m 12,9 km/h (3 Bft) N-NO 22 1 min 1,6 UV-I 406 W/m -5,0 C -6,6 C 20,9 km/h (4 Bft)
27.02.2023 10:39 -0,7 C 6,7 C 73 % 1029,6 hPa 0,0 l/m 17,7 km/h (3 Bft) N-NO 22 1 min 1,6 UV-I 408 W/m -4,9 C -9,4 C 24,1 km/h (4 Bft)
27.02.2023 10:40 -0,8 C 6,7 C 72 % 1029,5 hPa 0,0 l/m 20,9 km/h (4 Bft) N-NO 22 1 min 1,6 UV-I 411 W/m -5,2 C -11,1 C 27,4 km/h (4 Bft)
27.02.2023 10:41 -0,7 C 6,7 C 72 % 1029,6 hPa 0,0 l/m 16,1 km/h (3 Bft) NO 45 1 min 1,6 UV-I 411 W/m -5,1 C -8,5 C 20,9 km/h (4 Bft)
27.02.2023 10:42 -0,8 C 6,7 C 72 % 1029,6 hPa 0,0 l/m 19,3 km/h (3 Bft) N 360 1 min 1,6 UV-I 413 W/m -5,2 C -10,3 C 25,7 km/h (4 Bft)
27.02.2023 10:43 -0,7 C 6,7 C 73 % 1029,6 hPa 0,0 l/m 19,3 km/h (3 Bft) NO 45 1 min 1,6 UV-I 415 W/m -4,9 C -10,2 C 22,5 km/h (4 Bft)
27.02.2023 10:44 -0,7 C 6,7 C 72 % 1029,6 hPa 0,0 l/m 17,7 km/h (3 Bft) N-NO 22 1 min 1,6 UV-I 417 W/m -5,1 C -9,4 C 24,1 km/h (4 Bft)
27.02.2023 10:45 -0,7 C 7,2 C 73 % 1029,5 hPa 0,0 l/m 11,3 km/h (2 Bft) N-NO 22 1 min 1,6 UV-I 419 W/m -4,9 C -5,3 C 16,1 km/h (3 Bft)
27.02.2023 10:46 -0,6 C 7,8 C 73 % 1029,5 hPa 0,0 l/m 17,7 km/h (3 Bft) NO 45 1 min 1,6 UV-I 420 W/m -4,8 C -9,3 C 22,5 km/h (4 Bft)
27.02.2023 10:47 -0,6 C 7,8 C 72 % 1029,5 hPa 0,0 l/m 17,7 km/h (3 Bft) NO 45 1 min 1,7 UV-I 422 W/m -5,0 C -9,3 C 22,5 km/h (4 Bft)
27.02.2023 10:48 -0,6 C 7,8 C 72 % 1029,7 hPa 0,0 l/m 16,1 km/h (3 Bft) NO 45 1 min 1,7 UV-I 424 W/m -5,0 C -8,4 C 25,7 km/h (4 Bft)
27.02.2023 10:49 -0,6 C 7,8 C 72 % 1029,6 hPa 0,0 l/m 16,1 km/h (3 Bft) NO 45 1 min 1,7 UV-I 427 W/m -5,0 C -8,4 C 22,5 km/h (4 Bft)
27.02.2023 10:50 -0,5 C 7,8 C 72 % 1029,6 hPa 0,0 l/m 17,7 km/h (3 Bft) NO 45 1 min 1,7 UV-I 427 W/m -4,9 C -9,1 C 25,7 km/h (4 Bft)
27.02.2023 10:51 -0,5 C 7,2 C 71 % 1029,7 hPa 0,0 l/m 22,5 km/h (4 Bft) NO 45 1 min 1,7 UV-I 432 W/m -5,1 C -11,4 C 29,0 km/h (5 Bft)
27.02.2023 10:52 -0,6 C 7,2 C 71 % 1029,6 hPa 0,0 l/m 20,9 km/h (4 Bft) NO 45 1 min 1,7 UV-I 434 W/m -5,2 C -10,8 C 27,4 km/h (4 Bft)
27.02.2023 10:53 -0,6 C 7,2 C 71 % 1029,6 hPa 0,0 l/m 16,1 km/h (3 Bft) NO 45 1 min 1,7 UV-I 434 W/m -5,2 C -8,4 C 24,1 km/h (4 Bft)
27.02.2023 10:54 -0,6 C 7,8 C 72 % 1029,6 hPa 0,0 l/m 17,7 km/h (3 Bft) NO 45 1 min 1,7 UV-I 436 W/m -5,0 C -9,3 C 24,1 km/h (4 Bft)
27.02.2023 10:55 -0,5 C 7,8 C 71 % 1029,6 hPa 0,0 l/m 14,5 km/h (3 Bft) N-NO 22 1 min 1,7 UV-I 436 W/m -5,1 C -7,3 C 20,9 km/h (4 Bft)
27.02.2023 10:56 -0,4 C 8,3 C 72 % 1029,8 hPa 0,0 l/m 16,1 km/h (3 Bft) NO 45 1 min 1,7 UV-I 439 W/m -4,8 C -8,1 C 22,5 km/h (4 Bft)
27.02.2023 10:57 -0,3 C 8,3 C 72 % 1029,6 hPa 0,0 l/m 19,3 km/h (3 Bft) NO 45 1 min 1,8 UV-I 440 W/m -4,7 C -9,7 C 32,2 km/h (5 Bft)
27.02.2023 10:58 -0,3 C 7,8 C 71 % 1029,7 hPa 0,0 l/m 19,3 km/h (3 Bft) N-NO 22 1 min 1,8 UV-I 443 W/m -4,9 C -9,7 C 32,2 km/h (5 Bft)
27.02.2023 10:59 -0,3 C 8,3 C 70 % 1029,6 hPa 0,0 l/m 12,9 km/h (3 Bft) NO 45 1 min 1,8 UV-I 443 W/m -5,1 C -6,0 C 19,3 km/h (3 Bft)
27.02.2023 11:00 -0,3 C 8,9 C 70 % 1029,7 hPa 0,0 l/m 12,9 km/h (3 Bft) NO 45 1 min 1,8 UV-I 445 W/m -5,1 C -6,0 C 22,5 km/h (4 Bft)
27.02.2023 11:01 -0,2 C 8,3 C 70 % 1029,7 hPa 0,0 l/m 20,9 km/h (4 Bft) NO 45 1 min 1,8 UV-I 446 W/m -5,0 C -10,3 C 30,6 km/h (5 Bft)
27.02.2023 11:02 -0,2 C 8,3 C 69 % 1029,6 hPa 0,0 l/m 22,5 km/h (4 Bft) NO 45 1 min 1,8 UV-I 448 W/m -5,2 C -11,0 C 29,0 km/h (5 Bft)
27.02.2023 11:03 -0,3 C 7,8 C 69 % 1029,7 hPa 0,0 l/m 19,3 km/h (3 Bft) N-NO 22 1 min 1,8 UV-I 451 W/m -5,3 C -9,7 C 25,7 km/h (4 Bft)
27.02.2023 11:04 -0,4 C 7,2 C 70 % 1029,6 hPa 0,0 l/m 17,7 km/h (3 Bft) NO 45 1 min 1,8 UV-I 452 W/m -5,2 C -9,0 C 24,1 km/h (4 Bft)
27.02.2023 11:05 -0,3 C 7,2 C 70 % 1029,6 hPa 0,0 l/m 14,5 km/h (3 Bft) NO 45 1 min 1,8 UV-I 452 W/m -5,1 C -7,0 C 22,5 km/h (4 Bft)
27.02.2023 11:06 -0,3 C 8,3 C 70 % 1029,7 hPa 0,0 l/m 22,5 km/h (4 Bft) N-NO 22 1 min 1,8 UV-I 454 W/m -5,1 C -11,1 C 27,4 km/h (4 Bft)
27.02.2023 11:07 -0,3 C 7,8 C 70 % 1029,6 hPa 0,0 l/m 19,3 km/h (3 Bft) N-NO 22 1 min 1,8 UV-I 455 W/m -5,1 C -9,7 C 25,7 km/h (4 Bft)
27.02.2023 11:08 -0,3 C 7,8 C 70 % 1029,6 hPa 0,0 l/m 22,5 km/h (4 Bft) N-NO 22 1 min 1,8 UV-I 455 W/m -5,1 C -11,1 C 30,6 km/h (5 Bft)
27.02.2023 11:09 -0,4 C 7,2 C 70 % 1029,7 hPa 0,0 l/m 16,1 km/h (3 Bft) N-NO 22 1 min 1,9 UV-I 457 W/m -5,2 C -8,1 C 24,1 km/h (4 Bft)
27.02.2023 11:10 -0,4 C 7,8 C 69 % 1029,7 hPa 0,0 l/m 22,5 km/h (4 Bft) N-NO 22 1 min 1,9 UV-I 459 W/m -5,4 C -11,3 C 29,0 km/h (5 Bft)
27.02.2023 11:11 -0,4 C 7,8 C 69 % 1029,7 hPa 0,0 l/m 19,3 km/h (3 Bft) N-NO 22 1 min 1,9 UV-I 461 W/m -5,4 C -9,8 C 22,5 km/h (4 Bft)
27.02.2023 11:12 -0,4 C 8,3 C 69 % 1029,8 hPa 0,0 l/m 22,5 km/h (4 Bft) N-NO 22 1 min 1,9 UV-I 462 W/m -5,4 C -11,3 C 29,0 km/h (5 Bft)
27.02.2023 11:13 -0,3 C 7,8 C 70 % 1029,7 hPa 0,0 l/m 17,7 km/h (3 Bft) N-NO 22 1 min 1,9 UV-I 462 W/m -5,1 C -8,9 C 27,4 km/h (4 Bft)
27.02.2023 11:14 -0,2 C 8,3 C 70 % 1029,7 hPa 0,0 l/m 17,7 km/h (3 Bft) N-NO 22 1 min 1,9 UV-I 464 W/m -5,0 C -8,7 C 22,5 km/h (4 Bft)
27.02.2023 11:15 -0,2 C 8,3 C 69 % 1029,7 hPa 0,0 l/m 19,3 km/h (3 Bft) N-NO 22 1 min 1,9 UV-I 468 W/m -5,2 C -9,6 C 25,7 km/h (4 Bft)
27.02.2023 11:16 -0,2 C 8,9 C 69 % 1029,7 hPa 0,0 l/m 17,7 km/h (3 Bft) N-NO 22 1 min 1,9 UV-I 468 W/m -5,2 C -8,7 C 22,5 km/h (4 Bft)
27.02.2023 11:17 -0,2 C 8,9 C 69 % 1029,6 hPa 0,0 l/m 14,5 km/h (3 Bft) N-NO 22 1 min 1,9 UV-I 469 W/m -5,2 C -6,9 C 20,9 km/h (4 Bft)
27.02.2023 11:18 0,0 C 9,4 C 70 % 1029,6 hPa 0,0 l/m 14,5 km/h (3 Bft) NO 45 1 min 1,9 UV-I 471 W/m -4,8 C -6,7 C 19,3 km/h (3 Bft)
27.02.2023 11:19 0,1 C 9,4 C 69 % 1029,7 hPa 0,0 l/m 20,9 km/h (4 Bft) N-NO 22 1 min 1,9 UV-I 471 W/m -4,9 C -9,9 C 27,4 km/h (4 Bft)
27.02.2023 11:20 0,1 C 9,4 C 68 % 1029,7 hPa 0,0 l/m 19,3 km/h (3 Bft) N-NO 22 1 min 2,0 UV-I 474 W/m -5,1 C -9,2 C 25,7 km/h (4 Bft)
27.02.2023 11:21 0,1 C 9,4 C 69 % 1029,7 hPa 0,0 l/m 19,3 km/h (3 Bft) N-NO 22 1 min 2,0 UV-I 476 W/m -4,9 C -9,2 C 27,4 km/h (4 Bft)
27.02.2023 11:22 0,2 C 9,4 C 69 % 1029,6 hPa 0,0 l/m 14,5 km/h (3 Bft) N-NO 22 1 min 2,0 UV-I 476 W/m -4,8 C -6,4 C 22,5 km/h (4 Bft)
27.02.2023 11:23 0,2 C 9,4 C 68 % 1029,7 hPa 0,0 l/m 9,7 km/h (2 Bft) NO 45 1 min 2,0 UV-I 476 W/m -5,0 C -3,0 C 16,1 km/h (3 Bft)
27.02.2023 11:24 0,3 C 10,6 C 68 % 1029,7 hPa 0,0 l/m 17,7 km/h (3 Bft) NO 45 1 min 2,0 UV-I 480 W/m -4,9 C -8,1 C 22,5 km/h (4 Bft)
27.02.2023 11:25 0,2 C 10,0 C 68 % 1029,7 hPa 0,0 l/m 16,1 km/h (3 Bft) N-NO 22 1 min 2,0 UV-I 482 W/m -5,0 C -7,4 C 20,9 km/h (4 Bft)
27.02.2023 11:26 0,3 C 10,0 C 68 % 1029,7 hPa 0,0 l/m 17,7 km/h (3 Bft) N-NO 22 1 min 2,0 UV-I 483 W/m -4,9 C -8,1 C 24,1 km/h (4 Bft)
27.02.2023 11:27 0,3 C 10,0 C 68 % 1029,7 hPa 0,0 l/m 20,9 km/h (4 Bft) N-NO 22 1 min 2,0 UV-I 483 W/m -4,9 C -9,7 C 27,4 km/h (4 Bft)
27.02.2023 11:28 0,3 C 9,4 C 68 % 1029,8 hPa 0,0 l/m 24,1 km/h (4 Bft) N-NO 22 1 min 2,0 UV-I 485 W/m -4,9 C -11,0 C 33,8 km/h (5 Bft)
27.02.2023 11:29 0,2 C 8,9 C 67 % 1029,7 hPa 0,0 l/m 22,5 km/h (4 Bft) N-NO 22 1 min 2,0 UV-I 487 W/m -5,2 C -10,5 C 33,8 km/h (5 Bft)
27.02.2023 11:30 0,1 C 8,9 C 67 % 1029,7 hPa 0,0 l/m 17,7 km/h (3 Bft) N-NO 22 1 min 2,0 UV-I 485 W/m -5,3 C -8,4 C 22,5 km/h (4 Bft)
27.02.2023 11:31 0,2 C 9,4 C 68 % 1029,7 hPa 0,0 l/m 17,7 km/h (3 Bft) NO 45 1 min 2,0 UV-I 487 W/m -5,0 C -8,2 C 22,5 km/h (4 Bft)
27.02.2023 11:32 0,2 C 9,4 C 68 % 1029,8 hPa 0,0 l/m 17,7 km/h (3 Bft) NO 45 1 min 2,0 UV-I 489 W/m -5,0 C -8,2 C 25,7 km/h (4 Bft)
27.02.2023 11:33 0,2 C 9,4 C 68 % 1029,7 hPa 0,0 l/m 20,9 km/h (4 Bft) N-NO 22 1 min 2,1 UV-I 490 W/m -5,0 C -9,8 C 25,7 km/h (4 Bft)
27.02.2023 11:34 0,2 C 9,4 C 67 % 1029,8 hPa 0,0 l/m 17,7 km/h (3 Bft) N-NO 22 1 min 2,1 UV-I 490 W/m -5,2 C -8,2 C 29,0 km/h (5 Bft)
27.02.2023 11:35 0,3 C 9,4 C 68 % 1029,8 hPa 0,0 l/m 24,1 km/h (4 Bft) N-NO 22 1 min 2,1 UV-I 492 W/m -4,9 C -11,0 C 29,0 km/h (5 Bft)
27.02.2023 11:36 0,3 C 9,4 C 67 % 1029,8 hPa 0,0 l/m 22,5 km/h (4 Bft) N-NO 22 1 min 2,1 UV-I 492 W/m -5,1 C -10,3 C 29,0 km/h (5 Bft)
27.02.2023 11:37 0,3 C 9,4 C 68 % 1029,8 hPa 0,0 l/m 17,7 km/h (3 Bft) NO 45 1 min 2,1 UV-I 494 W/m -4,9 C -8,1 C 29,0 km/h (5 Bft)
27.02.2023 11:38 0,4 C 9,4 C 67 % 1029,8 hPa 0,0 l/m 12,9 km/h (3 Bft) N-NO 22 1 min 2,1 UV-I 494 W/m -5,0 C -5,2 C 19,3 km/h (3 Bft)
27.02.2023 11:39 0,6 C 10,0 C 69 % 1029,8 hPa 0,0 l/m 16,1 km/h (3 Bft) NO 45 1 min 2,1 UV-I 497 W/m -4,4 C -6,9 C 24,1 km/h (4 Bft)
27.02.2023 11:40 0,6 C 9,4 C 68 % 1029,8 hPa 0,0 l/m 24,1 km/h (4 Bft) NO 45 1 min 2,1 UV-I 497 W/m -4,6 C -10,6 C 29,0 km/h (5 Bft)
27.02.2023 11:41 0,5 C 8,9 C 66 % 1029,8 hPa 0,0 l/m 20,9 km/h (4 Bft) NO 45 1 min 2,1 UV-I 499 W/m -5,1 C -9,4 C 29,0 km/h (5 Bft)
27.02.2023 11:42 0,4 C 8,9 C 67 % 1029,8 hPa 0,0 l/m 25,7 km/h (4 Bft) NO 45 1 min 2,1 UV-I 499 W/m -5,0 C -11,4 C 35,4 km/h (5 Bft)
27.02.2023 11:43 0,4 C 8,9 C 67 % 1029,9 hPa 0,0 l/m 19,3 km/h (3 Bft) N-NO 22 1 min 2,1 UV-I 499 W/m -5,0 C -8,8 C 35,4 km/h (5 Bft)
27.02.2023 11:44 0,4 C 8,9 C 67 % 1029,8 hPa 0,0 l/m 17,7 km/h (3 Bft) N-NO 22 1 min 2,1 UV-I 503 W/m -5,0 C -8,0 C 24,1 km/h (4 Bft)
27.02.2023 11:45 0,6 C 10,0 C 68 % 1029,9 hPa 0,0 l/m 16,1 km/h (3 Bft) N-NO 22 1 min 2,1 UV-I 501 W/m -4,6 C -6,9 C 20,9 km/h (4 Bft)
27.02.2023 11:46 0,7 C 10,6 C 69 % 1029,8 hPa 0,0 l/m 19,3 km/h (3 Bft) N-NO 22 1 min 2,1 UV-I 503 W/m -4,3 C -8,4 C 33,8 km/h (5 Bft)
27.02.2023 11:47 0,7 C 10,0 C 68 % 1029,8 hPa 0,0 l/m 24,1 km/h (4 Bft) N-NO 22 1 min 2,1 UV-I 504 W/m -4,5 C -10,4 C 32,2 km/h (5 Bft)
27.02.2023 11:48 0,8 C 10,0 C 68 % 1029,7 hPa 0,0 l/m 27,4 km/h (4 Bft) N-NO 22 1 min 2,1 UV-I 506 W/m -4,4 C -11,5 C 41,8 km/h (6 Bft)
27.02.2023 11:49 0,7 C 9,4 C 67 % 1029,7 hPa 0,0 l/m 27,4 km/h (4 Bft) N-NO 22 1 min 2,2 UV-I 506 W/m -4,7 C -11,6 C 41,8 km/h (6 Bft)
27.02.2023 11:50 0,6 C 8,9 C 67 % 1029,9 hPa 0,0 l/m 25,7 km/h (4 Bft) N-NO 22 1 min 2,2 UV-I 507 W/m -4,8 C -11,2 C 33,8 km/h (5 Bft)
27.02.2023 11:51 0,5 C 8,9 C 66 % 1029,8 hPa 0,0 l/m 25,7 km/h (4 Bft) NO 45 1 min 2,2 UV-I 510 W/m -5,1 C -11,3 C 35,4 km/h (5 Bft)
27.02.2023 11:52 0,5 C 8,9 C 66 % 1029,8 hPa 0,0 l/m 19,3 km/h (3 Bft) N-NO 22 1 min 2,2 UV-I 512 W/m -5,1 C -8,7 C 27,4 km/h (4 Bft)
27.02.2023 11:53 0,6 C 8,9 C 68 % 1029,9 hPa 0,0 l/m 24,1 km/h (4 Bft) NO 45 1 min 2,2 UV-I 512 W/m -4,6 C -10,6 C 32,2 km/h (5 Bft)
27.02.2023 11:54 0,6 C 8,9 C 67 % 1029,8 hPa 0,0 l/m 24,1 km/h (4 Bft) NO 45 1 min 2,2 UV-I 512 W/m -4,8 C -10,6 C 30,6 km/h (5 Bft)
27.02.2023 11:55 0,5 C 8,9 C 66 % 1029,8 hPa 0,0 l/m 25,7 km/h (4 Bft) N-NO 22 1 min 2,2 UV-I 512 W/m -5,1 C -11,3 C 29,0 km/h (5 Bft)
27.02.2023 11:56 0,5 C 8,9 C 67 % 1029,8 hPa 0,0 l/m 22,5 km/h (4 Bft) NO 45 1 min 2,2 UV-I 513 W/m -4,9 C -10,1 C 27,4 km/h (4 Bft)
27.02.2023 11:57 0,5 C 8,9 C 68 % 1029,8 hPa 0,0 l/m 20,9 km/h (4 Bft) NO 45 1 min 2,2 UV-I 512 W/m -4,7 C -9,4 C 27,4 km/h (4 Bft)
27.02.2023 11:58 0,6 C 8,9 C 68 % 1029,8 hPa 0,0 l/m 20,9 km/h (4 Bft) NO 45 1 min 2,2 UV-I 515 W/m -4,6 C -9,3 C 27,4 km/h (4 Bft)
27.02.2023 11:59 0,6 C 9,4 C 68 % 1029,8 hPa 0,0 l/m 19,3 km/h (3 Bft) NO 45 1 min 2,2 UV-I 517 W/m -4,6 C -8,5 C 25,7 km/h (4 Bft)
27.02.2023 12:00 0,6 C 10,0 C 68 % 1029,9 hPa 0,0 l/m 20,9 km/h (4 Bft) NO 45 1 min 2,2 UV-I 513 W/m -4,6 C -9,3 C 30,6 km/h (5 Bft)
27.02.2023 12:01 0,6 C 10,0 C 68 % 1029,8 hPa 0,0 l/m 20,9 km/h (4 Bft) O-NO 67 1 min 2,2 UV-I 516 W/m -4,6 C -9,3 C 27,4 km/h (4 Bft)
27.02.2023 12:02 0,6 C 10,0 C 68 % 1029,9 hPa 0,0 l/m 16,1 km/h (3 Bft) NO 45 1 min 2,2 UV-I 517 W/m -4,6 C -6,9 C 19,3 km/h (3 Bft)
27.02.2023 12:03 0,6 C 10,0 C 68 % 1029,9 hPa 0,0 l/m 20,9 km/h (4 Bft) N-NO 22 1 min 2,2 UV-I 519 W/m -4,6 C -9,3 C 30,6 km/h (5 Bft)
27.02.2023 12:04 0,6 C 10,0 C 68 % 1029,9 hPa 0,0 l/m 16,1 km/h (3 Bft) NO 45 1 min 2,2 UV-I 520 W/m -4,6 C -6,9 C 22,5 km/h (4 Bft)
27.02.2023 12:05 0,6 C 10,0 C 68 % 1029,9 hPa 0,0 l/m 17,7 km/h (3 Bft) N-NO 22 1 min 2,2 UV-I 519 W/m -4,6 C -7,7 C 22,5 km/h (4 Bft)
27.02.2023 12:06 0,8 C 11,1 C 70 % 1029,9 hPa 0,0 l/m 19,3 km/h (3 Bft) N 360 1 min 2,2 UV-I 520 W/m -4,0 C -8,3 C 25,7 km/h (4 Bft)
27.02.2023 12:07 0,9 C 11,1 C 70 % 1029,9 hPa 0,0 l/m 20,9 km/h (4 Bft) N-NO 22 1 min 2,2 UV-I 521 W/m -3,9 C -8,9 C 30,6 km/h (5 Bft)
27.02.2023 12:08 1,0 C 11,1 C 70 % 1029,8 hPa 0,0 l/m 25,7 km/h (4 Bft) N 360 1 min 2,2 UV-I 522 W/m -3,8 C -10,6 C 33,8 km/h (5 Bft)
27.02.2023 12:09 0,9 C 10,6 C 68 % 1029,8 hPa 0,0 l/m 20,9 km/h (4 Bft) N 360 1 min 2,2 UV-I 522 W/m -4,3 C -8,9 C 29,0 km/h (5 Bft)
27.02.2023 12:10 0,9 C 10,0 C 67 % 1029,9 hPa 0,0 l/m 20,9 km/h (4 Bft) N-NO 22 1 min 2,2 UV-I 522 W/m -4,5 C -8,9 C 29,0 km/h (5 Bft)
27.02.2023 12:11 1,0 C 10,0 C 69 % 1029,8 hPa 0,0 l/m 16,1 km/h (3 Bft) N-NO 22 1 min 2,2 UV-I 522 W/m -4,0 C -6,4 C 20,9 km/h (4 Bft)
27.02.2023 12:12 1,0 C 11,1 C 69 % 1029,8 hPa 0,0 l/m 16,1 km/h (3 Bft) N 360 1 min 2,2 UV-I 520 W/m -4,0 C -6,4 C 19,3 km/h (3 Bft)
27.02.2023 12:13 1,1 C 11,7 C 70 % 1029,8 hPa 0,0 l/m 14,5 km/h (3 Bft) N-NO 22 1 min 2,2 UV-I 524 W/m -3,7 C -5,4 C 19,3 km/h (3 Bft)
27.02.2023 12:14 1,2 C 12,2 C 70 % 1029,8 hPa 0,0 l/m 16,1 km/h (3 Bft) N-NO 22 1 min 2,2 UV-I 526 W/m -3,7 C -6,1 C 20,9 km/h (4 Bft)
27.02.2023 12:15 1,3 C 12,8 C 70 % 1029,8 hPa 0,0 l/m 19,3 km/h (3 Bft) N 360 1 min 2,3 UV-I 527 W/m -3,6 C -7,6 C 29,0 km/h (5 Bft)
27.02.2023 12:16 1,2 C 11,1 C 69 % 1029,7 hPa 0,0 l/m 22,5 km/h (4 Bft) N-NO 22 1 min 2,3 UV-I 531 W/m -3,8 C -9,1 C 29,0 km/h (5 Bft)
27.02.2023 12:17 1,2 C 11,1 C 69 % 1029,8 hPa 0,0 l/m 11,3 km/h (2 Bft) N-NO 22 1 min 2,3 UV-I 529 W/m -3,8 C -3,1 C 16,1 km/h (3 Bft)
27.02.2023 12:18 1,2 C 12,2 C 70 % 1029,7 hPa 0,0 l/m 17,7 km/h (3 Bft) N 360 1 min 2,3 UV-I 529 W/m -3,7 C -7,0 C 24,1 km/h (4 Bft)
27.02.2023 12:19 1,2 C 11,1 C 68 % 1029,7 hPa 0,0 l/m 17,7 km/h (3 Bft) N-NO 22 1 min 2,3 UV-I 533 W/m -4,0 C -7,0 C 24,1 km/h (4 Bft)
27.02.2023 12:20 1,2 C 11,1 C 69 % 1029,7 hPa 0,0 l/m 25,7 km/h (4 Bft) N-NO 22 1 min 2,3 UV-I 538 W/m -3,8 C -10,3 C 35,4 km/h (5 Bft)
27.02.2023 12:21 1,1 C 10,6 C 69 % 1029,7 hPa 0,0 l/m 24,1 km/h (4 Bft) N-NO 22 1 min 2,3 UV-I 533 W/m -3,9 C -9,9 C 33,8 km/h (5 Bft)
27.02.2023 12:22 1,1 C 10,6 C 68 % 1029,7 hPa 0,0 l/m 19,3 km/h (3 Bft) N-NO 22 1 min 2,3 UV-I 533 W/m -4,1 C -7,9 C 27,4 km/h (4 Bft)
27.02.2023 12:23 1,0 C 11,1 C 68 % 1029,8 hPa 0,0 l/m 16,1 km/h (3 Bft) N-NO 22 1 min 2,3 UV-I 531 W/m -4,2 C -6,4 C 24,1 km/h (4 Bft)
27.02.2023 12:24 0,9 C 11,1 C 68 % 1029,8 hPa 0,0 l/m 20,9 km/h (4 Bft) N-NO 22 1 min 2,3 UV-I 534 W/m -4,3 C -8,9 C 25,7 km/h (4 Bft)
27.02.2023 12:25 0,9 C 11,1 C 69 % 1029,7 hPa 0,0 l/m 17,7 km/h (3 Bft) N-NO 22 1 min 2,3 UV-I 536 W/m -4,1 C -7,4 C 25,7 km/h (4 Bft)
27.02.2023 12:26 0,9 C 11,1 C 70 % 1029,7 hPa 0,0 l/m 19,3 km/h (3 Bft) N-NO 22 1 min 2,3 UV-I 536 W/m -3,9 C -8,1 C 25,7 km/h (4 Bft)
27.02.2023 12:27 0,9 C 11,1 C 69 % 1029,6 hPa 0,0 l/m 22,5 km/h (4 Bft) N-NO 22 1 min 2,3 UV-I 538 W/m -4,1 C -9,5 C 30,6 km/h (5 Bft)
27.02.2023 12:28 0,8 C 11,1 C 69 % 1029,5 hPa 0,0 l/m 17,7 km/h (3 Bft) N-NO 22 1 min 2,3 UV-I 540 W/m -4,2 C -7,5 C 25,7 km/h (4 Bft)
27.02.2023 12:29 1,0 C 11,7 C 71 % 1029,6 hPa 0,0 l/m 17,7 km/h (3 Bft) N-NO 22 1 min 2,3 UV-I 540 W/m -3,7 C -7,2 C 25,7 km/h (4 Bft)
27.02.2023 12:30 1,2 C 12,2 C 70 % 1029,6 hPa 0,0 l/m 24,1 km/h (4 Bft) N-NO 22 1 min 2,3 UV-I 540 W/m -3,7 C -9,8 C 32,2 km/h (5 Bft)
27.02.2023 12:31 1,2 C 12,2 C 69 % 1029,6 hPa 0,0 l/m 19,3 km/h (3 Bft) N-NO 22 1 min 2,3 UV-I 540 W/m -3,8 C -7,8 C 25,7 km/h (4 Bft)
27.02.2023 12:32 1,2 C 12,2 C 69 % 1029,5 hPa 0,0 l/m 16,1 km/h (3 Bft) NO 45 1 min 2,3 UV-I 538 W/m -3,8 C -6,1 C 22,5 km/h (4 Bft)
27.02.2023 12:33 1,3 C 12,2 C 69 % 1029,6 hPa 0,0 l/m 16,1 km/h (3 Bft) NO 45 1 min 2,3 UV-I 540 W/m -3,7 C -6,0 C 24,1 km/h (4 Bft)
27.02.2023 12:34 1,3 C 12,2 C 68 % 1029,5 hPa 0,0 l/m 16,1 km/h (3 Bft) N-NO 22 1 min 2,3 UV-I 541 W/m -3,9 C -6,0 C 24,1 km/h (4 Bft)
27.02.2023 12:35 1,3 C 12,8 C 68 % 1029,5 hPa 0,0 l/m 16,1 km/h (3 Bft) N-NO 22 1 min 2,3 UV-I 538 W/m -3,9 C -6,0 C 22,5 km/h (4 Bft)
27.02.2023 12:36 1,3 C 12,8 C 68 % 1029,5 hPa 0,0 l/m 17,7 km/h (3 Bft) NO 45 1 min 2,3 UV-I 543 W/m -3,9 C -6,9 C 24,1 km/h (4 Bft)
27.02.2023 12:37 1,3 C 12,2 C 68 % 1029,5 hPa 0,0 l/m 17,7 km/h (3 Bft) NO 45 1 min 2,3 UV-I 540 W/m -3,9 C -6,9 C 24,1 km/h (4 Bft)
27.02.2023 12:38 1,3 C 12,2 C 68 % 1029,5 hPa 0,0 l/m 19,3 km/h (3 Bft) O-NO 67 1 min 2,3 UV-I 541 W/m -3,9 C -7,6 C 25,7 km/h (4 Bft)
27.02.2023 12:39 1,3 C 12,2 C 67 % 1029,5 hPa 0,0 l/m 20,9 km/h (4 Bft) NO 45 1 min 2,3 UV-I 545 W/m -4,1 C -8,3 C 27,4 km/h (4 Bft)
27.02.2023 12:40 1,2 C 11,7 C 66 % 1029,5 hPa 0,0 l/m 19,3 km/h (3 Bft) NO 45 1 min 2,3 UV-I 547 W/m -4,4 C -7,8 C 25,7 km/h (4 Bft)
27.02.2023 12:41 1,2 C 12,2 C 67 % 1029,4 hPa 0,0 l/m 19,3 km/h (3 Bft) NO 45 1 min 2,3 UV-I 547 W/m -4,2 C -7,8 C 25,7 km/h (4 Bft)
27.02.2023 12:42 1,2 C 12,2 C 67 % 1029,5 hPa 0,0 l/m 16,1 km/h (3 Bft) NO 45 1 min 2,3 UV-I 544 W/m -4,2 C -6,1 C 24,1 km/h (4 Bft)
27.02.2023 12:43 1,2 C 11,7 C 68 % 1029,5 hPa 0,0 l/m 20,9 km/h (4 Bft) N-NO 22 1 min 2,3 UV-I 545 W/m -4,0 C -8,5 C 27,4 km/h (4 Bft)
27.02.2023 12:44 1,2 C 11,7 C 67 % 1029,5 hPa 0,0 l/m 16,1 km/h (3 Bft) N-NO 22 1 min 2,3 UV-I 543 W/m -4,2 C -6,1 C 25,7 km/h (4 Bft)
27.02.2023 12:45 1,3 C 12,8 C 68 % 1029,3 hPa 0,0 l/m 17,7 km/h (3 Bft) NO 45 1 min 2,3 UV-I 545 W/m -3,9 C -6,9 C 32,2 km/h (5 Bft)
27.02.2023 12:46 1,2 C 11,7 C 67 % 1029,5 hPa 0,0 l/m 22,5 km/h (4 Bft) NO 45 1 min 2,3 UV-I 545 W/m -4,2 C -9,1 C 30,6 km/h (5 Bft)
27.02.2023 12:47 1,2 C 11,7 C 67 % 1029,5 hPa 0,0 l/m 30,6 km/h (5 Bft) N-NO 22 1 min 2,3 UV-I 543 W/m -4,2 C -11,9 C 37,0 km/h (5 Bft)
27.02.2023 12:48 1,1 C 10,6 C 67 % 1029,4 hPa 0,0 l/m 27,4 km/h (4 Bft) NO 45 1 min 2,3 UV-I 547 W/m -4,3 C -11,1 C 33,8 km/h (5 Bft)
27.02.2023 12:49 1,0 C 10,6 C 66 % 1029,4 hPa 0,0 l/m 20,9 km/h (4 Bft) NO 45 1 min 2,3 UV-I 547 W/m -4,6 C -8,7 C 29,0 km/h (5 Bft)
27.02.2023 12:50 0,9 C 10,6 C 66 % 1029,4 hPa 0,0 l/m 22,5 km/h (4 Bft) NO 45 1 min 2,3 UV-I 547 W/m -4,7 C -9,5 C 30,6 km/h (5 Bft)
27.02.2023 12:51 0,9 C 11,1 C 66 % 1029,4 hPa 0,0 l/m 20,9 km/h (4 Bft) NO 45 1 min 2,3 UV-I 547 W/m -4,7 C -8,9 C 30,6 km/h (5 Bft)
27.02.2023 12:52 1,0 C 11,1 C 67 % 1029,3 hPa 0,0 l/m 17,7 km/h (3 Bft) NO 45 1 min 2,4 UV-I 547 W/m -4,4 C -7,2 C 24,1 km/h (4 Bft)
27.02.2023 12:53 1,1 C 11,1 C 68 % 1029,5 hPa 0,0 l/m 17,7 km/h (3 Bft) O-NO 67 1 min 2,3 UV-I 547 W/m -4,1 C -7,1 C 27,4 km/h (4 Bft)
27.02.2023 12:54 1,3 C 11,7 C 68 % 1029,3 hPa 0,0 l/m 17,7 km/h (3 Bft) N-NO 22 1 min 2,3 UV-I 547 W/m -3,9 C -6,9 C 24,1 km/h (4 Bft)
27.02.2023 12:55 1,3 C 12,2 C 68 % 1029,4 hPa 0,0 l/m 17,7 km/h (3 Bft) N-NO 22 1 min 2,3 UV-I 543 W/m -3,9 C -6,9 C 25,7 km/h (4 Bft)
27.02.2023 12:56 1,3 C 12,2 C 68 % 1029,4 hPa 0,0 l/m 20,9 km/h (4 Bft) NO 45 1 min 2,3 UV-I 543 W/m -3,9 C -8,3 C 27,4 km/h (4 Bft)
27.02.2023 12:57 1,4 C 12,8 C 67 % 1029,3 hPa 0,0 l/m 16,1 km/h (3 Bft) N-NO 22 1 min 2,4 UV-I 548 W/m -4,0 C -5,9 C 25,7 km/h (4 Bft)
27.02.2023 12:58 1,5 C 12,8 C 68 % 1029,4 hPa 0,0 l/m 12,9 km/h (3 Bft) NO 45 1 min 2,3 UV-I 547 W/m -3,7 C -3,9 C 20,9 km/h (4 Bft)
27.02.2023 12:59 1,6 C 12,8 C 66 % 1029,3 hPa 0,0 l/m 16,1 km/h (3 Bft) NO 45 1 min 2,4 UV-I 550 W/m -4,1 C -5,7 C 20,9 km/h (4 Bft)
27.02.2023 13:00 1,6 C 13,3 C 66 % 1029,4 hPa 0,0 l/m 12,9 km/h (3 Bft) NO 45 1 min 2,3 UV-I 546 W/m -4,1 C -3,8 C 16,1 km/h (3 Bft)
27.02.2023 13:01 1,7 C 13,9 C 68 % 1029,3 hPa 0,0 l/m 14,5 km/h (3 Bft) NO 45 1 min 2,4 UV-I 550 W/m -3,6 C -4,6 C 20,9 km/h (4 Bft)
27.02.2023 13:02 1,8 C 13,9 C 67 % 1029,3 hPa 0,0 l/m 11,3 km/h (2 Bft) O-NO 67 1 min 2,4 UV-I 559 W/m -3,7 C -2,4 C 24,1 km/h (4 Bft)
27.02.2023 13:03 1,8 C 14,4 C 66 % 1029,4 hPa 0,0 l/m 14,5 km/h (3 Bft) N-NO 22 1 min 2,4 UV-I 554 W/m -3,9 C -4,5 C 20,9 km/h (4 Bft)
27.02.2023 13:04 1,8 C 14,4 C 68 % 1029,3 hPa 0,0 l/m 16,1 km/h (3 Bft) NO 45 1 min 2,4 UV-I 552 W/m -3,5 C -5,4 C 19,3 km/h (3 Bft)
27.02.2023 13:05 1,8 C 13,3 C 67 % 1029,3 hPa 0,0 l/m 22,5 km/h (4 Bft) NO 45 1 min 2,4 UV-I 548 W/m -3,7 C -8,3 C 29,0 km/h (5 Bft)
27.02.2023 13:06 1,6 C 12,8 C 65 % 1029,3 hPa 0,0 l/m 19,3 km/h (3 Bft) NO 45 1 min 2,3 UV-I 553 W/m -4,3 C -7,2 C 25,7 km/h (4 Bft)
27.02.2023 13:07 1,4 C 12,8 C 66 % 1029,2 hPa 0,0 l/m 17,7 km/h (3 Bft) NO 45 1 min 2,4 UV-I 566 W/m -4,2 C -6,7 C 25,7 km/h (4 Bft)
27.02.2023 13:08 1,3 C 12,8 C 66 % 1029,3 hPa 0,0 l/m 16,1 km/h (3 Bft) N-NO 22 1 min 2,4 UV-I 568 W/m -4,3 C -6,0 C 24,1 km/h (4 Bft)
27.02.2023 13:09 1,4 C 13,3 C 68 % 1029,4 hPa 0,0 l/m 17,7 km/h (3 Bft) N-NO 22 1 min 2,4 UV-I 561 W/m -3,8 C -6,7 C 22,5 km/h (4 Bft)
27.02.2023 13:10 1,6 C 13,3 C 68 % 1029,4 hPa 0,0 l/m 14,5 km/h (3 Bft) NO 45 1 min 1,4 UV-I 517 W/m -3,7 C -4,8 C 25,7 km/h (4 Bft)
27.02.2023 13:11 1,6 C 11,7 C 67 % 1029,3 hPa 0,0 l/m 22,5 km/h (4 Bft) NO 45 1 min 2,1 UV-I 587 W/m -3,9 C -8,6 C 29,0 km/h (5 Bft)
27.02.2023 13:12 1,4 C 11,1 C 66 % 1029,4 hPa 0,0 l/m 19,3 km/h (3 Bft) O-NO 67 1 min 2,1 UV-I 570 W/m -4,2 C -7,5 C 27,4 km/h (4 Bft)
27.02.2023 13:13 1,3 C 10,6 C 66 % 1029,3 hPa 0,0 l/m 20,9 km/h (4 Bft) NO 45 1 min 2,3 UV-I 555 W/m -4,3 C -8,3 C 25,7 km/h (4 Bft)
27.02.2023 13:14 1,3 C 11,1 C 66 % 1029,3 hPa 0,0 l/m 17,7 km/h (3 Bft) O-NO 67 1 min 2,3 UV-I 559 W/m -4,3 C -6,9 C 24,1 km/h (4 Bft)
27.02.2023 13:15 1,3 C 11,1 C 67 % 1029,4 hPa 0,0 l/m 19,3 km/h (3 Bft) NO 45 1 min 2,3 UV-I 554 W/m -4,1 C -7,6 C 29,0 km/h (5 Bft)
27.02.2023 13:16 1,3 C 11,1 C 67 % 1029,3 hPa 0,0 l/m 19,3 km/h (3 Bft) NO 45 1 min 2,3 UV-I 533 W/m -4,1 C -7,6 C 29,0 km/h (5 Bft)
27.02.2023 13:17 1,4 C 11,7 C 67 % 1029,4 hPa 0,0 l/m 22,5 km/h (4 Bft) NO 45 1 min 2,2 UV-I 555 W/m -4,0 C -8,9 C 32,2 km/h (5 Bft)
27.02.2023 13:18 1,4 C 11,7 C 66 % 1029,4 hPa 0,0 l/m 20,9 km/h (4 Bft) NO 45 1 min 2,3 UV-I 550 W/m -4,2 C -8,2 C 29,0 km/h (5 Bft)
27.02.2023 13:19 1,4 C 11,7 C 65 % 1029,4 hPa 0,0 l/m 25,7 km/h (4 Bft) NO 45 1 min 2,3 UV-I 552 W/m -4,4 C -10,1 C 35,4 km/h (5 Bft)
27.02.2023 13:20 1,4 C 11,7 C 66 % 1029,3 hPa 0,0 l/m 20,9 km/h (4 Bft) NO 45 1 min 2,3 UV-I 550 W/m -4,2 C -8,2 C 29,0 km/h (5 Bft)
27.02.2023 13:21 1,4 C 11,7 C 66 % 1029,3 hPa 0,0 l/m 22,5 km/h (4 Bft) NO 45 1 min 2,3 UV-I 550 W/m -4,2 C -8,9 C 29,0 km/h (5 Bft)
27.02.2023 13:22 1,4 C 11,7 C 66 % 1029,3 hPa 0,0 l/m 17,7 km/h (3 Bft) N-NO 22 1 min 2,3 UV-I 548 W/m -4,2 C -6,7 C 27,4 km/h (4 Bft)
27.02.2023 13:23 1,4 C 11,7 C 67 % 1029,3 hPa 0,0 l/m 20,9 km/h (4 Bft) N-NO 22 1 min 2,3 UV-I 548 W/m -4,0 C -8,2 C 29,0 km/h (5 Bft)
27.02.2023 13:24 1,4 C 11,7 C 66 % 1029,2 hPa 0,0 l/m 16,1 km/h (3 Bft) N-NO 22 1 min 2,3 UV-I 554 W/m -4,2 C -5,9 C 20,9 km/h (4 Bft)
27.02.2023 13:25 1,5 C 12,8 C 66 % 1029,3 hPa 0,0 l/m 9,7 km/h (2 Bft) N-NO 22 1 min 2,4 UV-I 566 W/m -4,1 C -1,6 C 16,1 km/h (3 Bft)
27.02.2023 13:26 1,6 C 13,3 C 67 % 1029,2 hPa 0,0 l/m 11,3 km/h (2 Bft) NO 45 1 min 2,4 UV-I 575 W/m -3,9 C -2,7 C 17,7 km/h (3 Bft)
27.02.2023 13:27 1,8 C 13,3 C 67 % 1029,2 hPa 0,0 l/m 11,3 km/h (2 Bft) N-NO 22 1 min 2,4 UV-I 582 W/m -3,7 C -2,4 C 19,3 km/h (3 Bft)
27.02.2023 13:28 1,9 C 13,3 C 68 % 1029,3 hPa 0,0 l/m 14,5 km/h (3 Bft) N 360 1 min 2,4 UV-I 589 W/m -3,4 C -4,4 C 19,3 km/h (3 Bft)
27.02.2023 13:29 1,8 C 13,3 C 67 % 1029,2 hPa 0,0 l/m 25,7 km/h (4 Bft) N-NW 337 1 min 2,4 UV-I 581 W/m -3,7 C -9,5 C 30,6 km/h (5 Bft)
27.02.2023 13:30 1,8 C 12,8 C 67 % 1029,1 hPa 0,0 l/m 19,3 km/h (3 Bft) N-NO 22 1 min 2,3 UV-I 571 W/m -3,7 C -7,0 C 27,4 km/h (4 Bft)
27.02.2023 13:31 1,8 C 12,2 C 67 % 1029,1 hPa 0,0 l/m 12,9 km/h (3 Bft) N 360 1 min 2,3 UV-I 550 W/m -3,7 C -3,5 C 19,3 km/h (3 Bft)
27.02.2023 13:32 1,9 C 12,8 C 68 % 1029,2 hPa 0,0 l/m 12,9 km/h (3 Bft) N-NO 22 1 min 2,3 UV-I 545 W/m -3,4 C -3,4 C 22,5 km/h (4 Bft)
27.02.2023 13:33 1,9 C 13,3 C 68 % 1029,0 hPa 0,0 l/m 14,5 km/h (3 Bft) N-NO 22 1 min 2,3 UV-I 541 W/m -3,4 C -4,4 C 20,9 km/h (4 Bft)
27.02.2023 13:34 1,9 C 13,3 C 67 % 1029,1 hPa 0,0 l/m 16,1 km/h (3 Bft) N-NO 22 1 min 2,3 UV-I 540 W/m -3,6 C -5,3 C 20,9 km/h (4 Bft)
27.02.2023 13:35 1,9 C 13,9 C 67 % 1029,0 hPa 0,0 l/m 14,5 km/h (3 Bft) N-NO 22 1 min 2,3 UV-I 534 W/m -3,6 C -4,4 C 22,5 km/h (4 Bft)
27.02.2023 13:36 1,9 C 13,9 C 67 % 1029,0 hPa 0,0 l/m 20,9 km/h (4 Bft) N-NO 22 1 min 2,3 UV-I 534 W/m -3,6 C -7,6 C 24,1 km/h (4 Bft)
27.02.2023 13:37 1,9 C 13,9 C 67 % 1029,1 hPa 0,0 l/m 16,1 km/h (3 Bft) N-NO 22 1 min 2,2 UV-I 533 W/m -3,6 C -5,3 C 25,7 km/h (4 Bft)
27.02.2023 13:38 1,9 C 13,9 C 67 % 1029,0 hPa 0,0 l/m 22,5 km/h (4 Bft) N 360 1 min 2,3 UV-I 538 W/m -3,6 C -8,2 C 29,0 km/h (5 Bft)
27.02.2023 13:39 1,9 C 13,9 C 68 % 1029,1 hPa 0,0 l/m 17,7 km/h (3 Bft) N-NO 22 1 min 2,3 UV-I 541 W/m -3,4 C -6,1 C 27,4 km/h (4 Bft)
27.02.2023 13:40 1,9 C 13,3 C 66 % 1029,0 hPa 0,0 l/m 20,9 km/h (4 Bft) N-NO 22 1 min 2,3 UV-I 550 W/m -3,8 C -7,6 C 25,7 km/h (4 Bft)
27.02.2023 13:41 1,9 C 13,3 C 67 % 1029,2 hPa 0,0 l/m 14,5 km/h (3 Bft) NO 45 1 min 2,3 UV-I 551 W/m -3,6 C -4,4 C 22,5 km/h (4 Bft)
27.02.2023 13:42 1,8 C 13,9 C 66 % 1029,0 hPa 0,0 l/m 20,9 km/h (4 Bft) N-NO 22 1 min 2,3 UV-I 555 W/m -3,9 C -7,7 C 25,7 km/h (4 Bft)
27.02.2023 13:43 1,8 C 13,3 C 66 % 1029,1 hPa 0,0 l/m 22,5 km/h (4 Bft) NO 45 1 min 2,3 UV-I 508 W/m -3,9 C -8,3 C 30,6 km/h (5 Bft)
27.02.2023 13:44 1,8 C 12,8 C 67 % 1029,1 hPa 0,0 l/m 16,1 km/h (3 Bft) N-NO 22 1 min 2,3 UV-I 487 W/m -3,7 C -5,4 C 24,1 km/h (4 Bft)
27.02.2023 13:45 1,9 C 13,3 C 68 % 1029,0 hPa 0,0 l/m 17,7 km/h (3 Bft) N 360 1 min 2,3 UV-I 487 W/m -3,4 C -6,1 C 24,1 km/h (4 Bft)
27.02.2023 13:46 1,9 C 12,8 C 66 % 1029,1 hPa 0,0 l/m 22,5 km/h (4 Bft) N 360 1 min 2,3 UV-I 570 W/m -3,8 C -8,2 C 30,6 km/h (5 Bft)
27.02.2023 13:47 1,8 C 12,8 C 66 % 1029,0 hPa 0,0 l/m 25,7 km/h (4 Bft) N-NO 22 1 min 2,3 UV-I 580 W/m -3,9 C -9,5 C 32,2 km/h (5 Bft)
27.02.2023 13:48 1,7 C 11,7 C 65 % 1029,1 hPa 0,0 l/m 16,1 km/h (3 Bft) N-NO 22 1 min 2,2 UV-I 580 W/m -4,2 C -5,5 C 24,1 km/h (4 Bft)
27.02.2023 13:49 1,6 C 11,7 C 65 % 1029,0 hPa 0,0 l/m 17,7 km/h (3 Bft) N-NO 22 1 min 1,3 UV-I 580 W/m -4,3 C -6,5 C 27,4 km/h (4 Bft)
27.02.2023 13:50 1,4 C 8,9 C 66 % 1029,0 hPa 0,0 l/m 17,7 km/h (3 Bft) NO 45 0 min 2,3 UV-I 111 W/m -4,2 C -6,7 C 22,5 km/h (4 Bft)
27.02.2023 13:51 1,3 C 8,9 C 65 % 1029,0 hPa 0,0 l/m 29,0 km/h (5 Bft) NO 45 0 min 2,2 UV-I 111 W/m -4,5 C -11,3 C 40,2 km/h (6 Bft)
27.02.2023 13:52 1,3 C 8,9 C 65 % 1029,0 hPa 0,0 l/m 17,7 km/h (3 Bft) N-NO 22 1 min 2,2 UV-I 552 W/m -4,5 C -6,9 C 24,1 km/h (4 Bft)
27.02.2023 13:53 1,4 C 10,0 C 67 % 1029,1 hPa 0,0 l/m 14,5 km/h (3 Bft) N-NO 22 1 min 2,2 UV-I 549 W/m -4,0 C -5,0 C 24,1 km/h (4 Bft)
27.02.2023 13:54 1,6 C 11,7 C 68 % 1029,1 hPa 0,0 l/m 27,4 km/h (4 Bft) N-NO 22 1 min 2,1 UV-I 550 W/m -3,7 C -10,4 C 35,4 km/h (5 Bft)
27.02.2023 13:55 1,6 C 11,1 C 67 % 1029,1 hPa 0,0 l/m 24,1 km/h (4 Bft) N-NO 22 1 min 2,2 UV-I 550 W/m -3,9 C -9,2 C 33,8 km/h (5 Bft)
27.02.2023 13:56 1,6 C 11,7 C 67 % 1029,1 hPa 0,0 l/m 29,0 km/h (5 Bft) N-NO 22 1 min 2,2 UV-I 561 W/m -3,9 C -10,9 C 35,4 km/h (5 Bft)
27.02.2023 13:57 1,6 C 11,7 C 66 % 1029,1 hPa 0,0 l/m 25,7 km/h (4 Bft) N-NO 22 1 min 2,0 UV-I 548 W/m -4,1 C -9,8 C 30,6 km/h (5 Bft)
27.02.2023 13:58 1,4 C 9,4 C 66 % 1029,0 hPa 0,0 l/m 22,5 km/h (4 Bft) N-NO 22 1 min 1,3 UV-I 548 W/m -4,2 C -8,9 C 27,4 km/h (4 Bft)
27.02.2023 13:59 1,3 C 9,4 C 66 % 1029,1 hPa 0,0 l/m 20,9 km/h (4 Bft) N-NO 22 1 min 1,8 UV-I 548 W/m -4,3 C -8,3 C 24,1 km/h (4 Bft)
27.02.2023 14:00 1,2 C 7,8 C 66 % 1029,1 hPa 0,0 l/m 20,9 km/h (4 Bft) NO 45 0 min 1,8 UV-I 134 W/m -4,4 C -8,5 C 29,0 km/h (5 Bft)
27.02.2023 14:01 1,1 C 7,2 C 67 % 1029,1 hPa 0,0 l/m 25,7 km/h (4 Bft) NO 45 0 min 2,2 UV-I 134 W/m -4,3 C -10,5 C 33,8 km/h (5 Bft)
27.02.2023 14:02 1,1 C 8,3 C 66 % 1029,0 hPa 0,0 l/m 27,4 km/h (4 Bft) NO 45 1 min 2,2 UV-I 543 W/m -4,5 C -11,1 C 33,8 km/h (5 Bft)
27.02.2023 14:03 1,1 C 8,9 C 66 % 1028,9 hPa 0,0 l/m 25,7 km/h (4 Bft) N-NO 22 1 min 2,2 UV-I 538 W/m -4,5 C -10,5 C 35,4 km/h (5 Bft)
27.02.2023 14:04 1,2 C 10,0 C 67 % 1029,1 hPa 0,0 l/m 22,5 km/h (4 Bft) N-NO 22 1 min 2,1 UV-I 530 W/m -4,2 C -9,1 C 25,7 km/h (4 Bft)
27.02.2023 14:05 1,2 C 11,1 C 66 % 1029,1 hPa 0,0 l/m 14,5 km/h (3 Bft) N-NO 22 1 min 2,1 UV-I 522 W/m -4,4 C -5,2 C 19,3 km/h (3 Bft)
27.02.2023 14:06 1,4 C 11,7 C 67 % 1029,1 hPa 0,0 l/m 12,9 km/h (3 Bft) NO 45 1 min 2,1 UV-I 520 W/m -4,0 C -4,0 C 17,7 km/h (3 Bft)
27.02.2023 14:07 1,7 C 12,8 C 68 % 1029,1 hPa 0,0 l/m 17,7 km/h (3 Bft) N 360 1 min 2,1 UV-I 515 W/m -3,6 C -6,4 C 20,9 km/h (4 Bft)
27.02.2023 14:08 1,8 C 12,2 C 67 % 1029,1 hPa 0,0 l/m 19,3 km/h (3 Bft) N 360 1 min 2,1 UV-I 517 W/m -3,7 C -7,0 C 27,4 km/h (4 Bft)
27.02.2023 14:09 1,8 C 11,7 C 67 % 1029,0 hPa 0,0 l/m 20,9 km/h (4 Bft) N 360 1 min 2,1 UV-I 515 W/m -3,7 C -7,7 C 29,0 km/h (5 Bft)
27.02.2023 14:10 1,8 C 11,7 C 68 % 1029,0 hPa 0,0 l/m 16,1 km/h (3 Bft) N 360 1 min 2,1 UV-I 512 W/m -3,5 C -5,4 C 22,5 km/h (4 Bft)
27.02.2023 14:11 1,9 C 11,1 C 67 % 1029,1 hPa 0,0 l/m 20,9 km/h (4 Bft) N 360 1 min 2,1 UV-I 512 W/m -3,6 C -7,6 C 27,4 km/h (4 Bft)
27.02.2023 14:12 1,9 C 11,1 C 67 % 1029,0 hPa 0,0 l/m 19,3 km/h (3 Bft) N-NO 22 1 min 2,1 UV-I 508 W/m -3,6 C -6,9 C 29,0 km/h (5 Bft)
27.02.2023 14:13 1,9 C 11,7 C 67 % 1029,0 hPa 0,0 l/m 19,3 km/h (3 Bft) N-NO 22 1 min 2,1 UV-I 508 W/m -3,6 C -6,9 C 27,4 km/h (4 Bft)
27.02.2023 14:14 1,8 C 12,2 C 66 % 1028,9 hPa 0,0 l/m 17,7 km/h (3 Bft) N 360 1 min 2,1 UV-I 510 W/m -3,9 C -6,2 C 24,1 km/h (4 Bft)
27.02.2023 14:15 1,8 C 11,7 C 67 % 1029,0 hPa 0,0 l/m 19,3 km/h (3 Bft) N-NO 22 1 min 2,1 UV-I 515 W/m -3,7 C -7,0 C 24,1 km/h (4 Bft)
27.02.2023 14:16 1,9 C 12,2 C 67 % 1029,0 hPa 0,0 l/m 19,3 km/h (3 Bft) N 360 1 min 2,1 UV-I 512 W/m -3,6 C -6,9 C 27,4 km/h (4 Bft)
27.02.2023 14:17 1,9 C 12,8 C 68 % 1029,0 hPa 0,0 l/m 22,5 km/h (4 Bft) N 360 1 min 2,1 UV-I 503 W/m -3,4 C -8,2 C 32,2 km/h (5 Bft)
27.02.2023 14:18 1,8 C 12,2 C 66 % 1029,0 hPa 0,0 l/m 24,1 km/h (4 Bft) N 360 1 min 2,0 UV-I 504 W/m -3,9 C -9,0 C 32,2 km/h (5 Bft)
27.02.2023 14:19 1,8 C 11,1 C 66 % 1029,0 hPa 0,0 l/m 24,1 km/h (4 Bft) N-NO 22 1 min 2,0 UV-I 504 W/m -3,9 C -9,0 C 33,8 km/h (5 Bft)
27.02.2023 14:20 1,7 C 11,1 C 66 % 1028,9 hPa 0,0 l/m 24,1 km/h (4 Bft) N-NO 22 1 min 2,0 UV-I 504 W/m -4,0 C -9,1 C 29,0 km/h (5 Bft)
27.02.2023 14:21 1,7 C 11,1 C 66 % 1028,9 hPa 0,0 l/m 24,1 km/h (4 Bft) N-NO 22 1 min 2,0 UV-I 499 W/m -4,0 C -9,1 C 35,4 km/h (5 Bft)
27.02.2023 14:22 1,7 C 11,7 C 67 % 1028,9 hPa 0,0 l/m 16,1 km/h (3 Bft) N-NO 22 1 min 2,0 UV-I 499 W/m -3,8 C -5,5 C 22,5 km/h (4 Bft)
27.02.2023 14:23 1,8 C 12,2 C 67 % 1028,9 hPa 0,0 l/m 17,7 km/h (3 Bft) N-NO 22 1 min 2,0 UV-I 496 W/m -3,7 C -6,2 C 25,7 km/h (4 Bft)
27.02.2023 14:24 1,8 C 12,2 C 66 % 1028,9 hPa 0,0 l/m 17,7 km/h (3 Bft) N 360 1 min 2,0 UV-I 494 W/m -3,9 C -6,2 C 24,1 km/h (4 Bft)
27.02.2023 14:25 1,9 C 12,8 C 67 % 1028,8 hPa 0,0 l/m 19,3 km/h (3 Bft) N-NO 22 1 min 2,0 UV-I 492 W/m -3,6 C -6,9 C 24,1 km/h (4 Bft)
27.02.2023 14:26 1,9 C 13,3 C 67 % 1028,8 hPa 0,0 l/m 14,5 km/h (3 Bft) N-NO 22 1 min 2,0 UV-I 494 W/m -3,6 C -4,4 C 19,3 km/h (3 Bft)
27.02.2023 14:27 2,0 C 12,8 C 66 % 1028,9 hPa 0,0 l/m 22,5 km/h (4 Bft) N-NO 22 1 min 2,0 UV-I 492 W/m -3,7 C -8,1 C 32,2 km/h (5 Bft)
27.02.2023 14:28 2,0 C 12,2 C 66 % 1028,8 hPa 0,0 l/m 19,3 km/h (3 Bft) N 360 1 min 2,0 UV-I 497 W/m -3,7 C -6,7 C 24,1 km/h (4 Bft)
27.02.2023 14:29 2,1 C 12,8 C 67 % 1028,9 hPa 0,0 l/m 20,9 km/h (4 Bft) N-NO 22 1 min 2,0 UV-I 499 W/m -3,4 C -7,3 C 29,0 km/h (5 Bft)
27.02.2023 14:30 2,2 C 13,3 C 66 % 1028,9 hPa 0,0 l/m 22,5 km/h (4 Bft) N-NO 22 1 min 1,9 UV-I 497 W/m -3,5 C -7,8 C 33,8 km/h (5 Bft)
27.02.2023 14:31 2,1 C 12,8 C 65 % 1028,9 hPa 0,0 l/m 25,7 km/h (4 Bft) N 360 1 min 1,9 UV-I 494 W/m -3,8 C -9,1 C 32,2 km/h (5 Bft)
27.02.2023 14:32 2,0 C 12,2 C 65 % 1028,8 hPa 0,0 l/m 20,9 km/h (4 Bft) N-NO 22 1 min 1,9 UV-I 489 W/m -3,9 C -7,4 C 24,1 km/h (4 Bft)
27.02.2023 14:33 1,9 C 12,2 C 65 % 1028,8 hPa 0,0 l/m 20,9 km/h (4 Bft) N-NO 22 1 min 1,9 UV-I 489 W/m -4,0 C -7,6 C 30,6 km/h (5 Bft)
27.02.2023 14:34 1,9 C 12,8 C 66 % 1028,8 hPa 0,0 l/m 20,9 km/h (4 Bft) N 360 1 min 1,9 UV-I 498 W/m -3,8 C -7,6 C 29,0 km/h (5 Bft)
27.02.2023 14:35 2,0 C 12,2 C 65 % 1028,9 hPa 0,0 l/m 22,5 km/h (4 Bft) N 360 1 min 1,9 UV-I 504 W/m -3,9 C -8,1 C 38,6 km/h (5 Bft)
27.02.2023 14:36 2,0 C 12,2 C 66 % 1028,9 hPa 0,0 l/m 22,5 km/h (4 Bft) N-NO 22 1 min 1,9 UV-I 504 W/m -3,7 C -8,1 C 30,6 km/h (5 Bft)
27.02.2023 14:37 2,0 C 11,1 C 65 % 1028,9 hPa 0,0 l/m 22,5 km/h (4 Bft) N 360 1 min 1,9 UV-I 504 W/m -3,9 C -8,1 C 32,2 km/h (5 Bft)
27.02.2023 14:38 2,0 C 11,7 C 65 % 1028,9 hPa 0,0 l/m 24,1 km/h (4 Bft) N 360 1 min 1,9 UV-I 504 W/m -3,9 C -8,7 C 35,4 km/h (5 Bft)
27.02.2023 14:39 1,9 C 11,1 C 65 % 1028,9 hPa 0,0 l/m 19,3 km/h (3 Bft) NO 45 1 min 1,9 UV-I 465 W/m -4,0 C -6,9 C 25,7 km/h (4 Bft)
27.02.2023 14:40 1,9 C 11,1 C 65 % 1028,9 hPa 0,0 l/m 25,7 km/h (4 Bft) N-NO 22 1 min 1,9 UV-I 480 W/m -4,0 C -9,4 C 30,6 km/h (5 Bft)
27.02.2023 14:41 1,8 C 10,6 C 64 % 1028,8 hPa 0,0 l/m 17,7 km/h (3 Bft) N-NO 22 1 min 1,9 UV-I 490 W/m -4,3 C -6,2 C 27,4 km/h (4 Bft)
27.02.2023 14:42 1,8 C 11,7 C 65 % 1028,8 hPa 0,0 l/m 20,9 km/h (4 Bft) N-NO 22 1 min 1,9 UV-I 497 W/m -4,1 C -7,7 C 24,1 km/h (4 Bft)
27.02.2023 14:43 1,9 C 12,2 C 65 % 1028,8 hPa 0,0 l/m 14,5 km/h (3 Bft) NO 45 1 min 1,9 UV-I 504 W/m -4,0 C -4,4 C 19,3 km/h (3 Bft)
27.02.2023 14:44 1,9 C 13,3 C 66 % 1028,9 hPa 0,0 l/m 17,7 km/h (3 Bft) N-NO 22 1 min 1,9 UV-I 519 W/m -3,8 C -6,1 C 32,2 km/h (5 Bft)
27.02.2023 14:45 2,1 C 12,8 C 65 % 1029,0 hPa 0,0 l/m 25,7 km/h (4 Bft) N-NO 22 1 min 1,9 UV-I 540 W/m -3,8 C -9,1 C 32,2 km/h (5 Bft)
27.02.2023 14:46 2,1 C 11,7 C 64 % 1028,9 hPa 0,0 l/m 24,1 km/h (4 Bft) N-NO 22 1 min 1,9 UV-I 295 W/m -4,0 C -8,6 C 29,0 km/h (5 Bft)
27.02.2023 14:47 1,9 C 10,6 C 64 % 1028,9 hPa 0,0 l/m 24,1 km/h (4 Bft) N-NO 22 1 min 1,5 UV-I 374 W/m -4,2 C -8,8 C 30,6 km/h (5 Bft)
27.02.2023 14:48 1,8 C 10,6 C 64 % 1029,0 hPa 0,0 l/m 20,9 km/h (4 Bft) NO 45 1 min 1,0 UV-I 374 W/m -4,3 C -7,7 C 30,6 km/h (5 Bft)
27.02.2023 14:49 1,6 C 8,3 C 64 % 1029,0 hPa 0,0 l/m 20,9 km/h (4 Bft) NO 45 0 min 1,2 UV-I 74 W/m -4,5 C -8,0 C 25,7 km/h (4 Bft)
27.02.2023 14:50 1,4 C 7,2 C 64 % 1029,0 hPa 0,0 l/m 17,7 km/h (3 Bft) NO 45 0 min 1,8 UV-I 74 W/m -4,6 C -6,7 C 25,7 km/h (4 Bft)
27.02.2023 14:51 1,5 C 7,2 C 65 % 1029,0 hPa 0,0 l/m 19,3 km/h (3 Bft) N-NO 22 1 min 1,8 UV-I 471 W/m -4,3 C -7,4 C 27,4 km/h (4 Bft)
27.02.2023 14:52 1,6 C 10,0 C 65 % 1028,9 hPa 0,0 l/m 19,3 km/h (3 Bft) NO 45 1 min 1,8 UV-I 469 W/m -4,3 C -7,2 C 24,1 km/h (4 Bft)
27.02.2023 14:53 1,7 C 10,6 C 65 % 1029,0 hPa 0,0 l/m 22,5 km/h (4 Bft) N-NO 22 1 min 1,8 UV-I 476 W/m -4,2 C -8,5 C 27,4 km/h (4 Bft)
27.02.2023 14:54 1,8 C 10,6 C 64 % 1028,8 hPa 0,0 l/m 19,3 km/h (3 Bft) N-NO 22 1 min 1,8 UV-I 483 W/m -4,3 C -7,0 C 27,4 km/h (4 Bft)
27.02.2023 14:55 1,9 C 11,1 C 64 % 1028,9 hPa 0,0 l/m 20,9 km/h (4 Bft) NO 45 1 min 1,7 UV-I 499 W/m -4,2 C -7,6 C 29,0 km/h (5 Bft)
27.02.2023 14:56 1,8 C 11,1 C 63 % 1028,8 hPa 0,0 l/m 20,9 km/h (4 Bft) N-NO 22 1 min 1,5 UV-I 499 W/m -4,5 C -7,7 C 29,0 km/h (5 Bft)
27.02.2023 14:57 1,7 C 10,0 C 63 % 1028,8 hPa 0,0 l/m 19,3 km/h (3 Bft) N-NO 22 0 min 1,0 UV-I 119 W/m -4,6 C -7,1 C 27,4 km/h (4 Bft)
27.02.2023 14:58 1,7 C 8,3 C 64 % 1028,8 hPa 0,0 l/m 19,3 km/h (3 Bft) N-NO 22 0 min 1,4 UV-I 70 W/m -4,4 C -7,1 C 24,1 km/h (4 Bft)
27.02.2023 14:59 1,7 C 8,3 C 64 % 1028,8 hPa 0,0 l/m 20,9 km/h (4 Bft) N-NO 22 1 min 1,7 UV-I 461 W/m -4,4 C -7,8 C 30,6 km/h (5 Bft)
27.02.2023 15:00 1,7 C 9,4 C 64 % 1028,8 hPa 0,0 l/m 22,5 km/h (4 Bft) N-NO 22 1 min 1,4 UV-I 415 W/m -4,4 C -8,5 C 27,4 km/h (4 Bft)
27.02.2023 15:01 1,7 C 9,4 C 64 % 1028,8 hPa 0,0 l/m 20,9 km/h (4 Bft) N-NO 22 1 min 1,7 UV-I 485 W/m -4,4 C -7,8 C 32,2 km/h (5 Bft)
27.02.2023 15:02 1,7 C 10,0 C 64 % 1028,8 hPa 0,0 l/m 30,6 km/h (5 Bft) N-NO 22 1 min 1,6 UV-I 485 W/m -4,4 C -11,2 C 35,4 km/h (5 Bft)
27.02.2023 15:03 1,7 C 9,4 C 64 % 1028,8 hPa 0,0 l/m 25,7 km/h (4 Bft) N-NO 22 1 min 1,7 UV-I 485 W/m -4,4 C -9,7 C 35,4 km/h (5 Bft)
27.02.2023 15:04 1,7 C 8,9 C 64 % 1028,9 hPa 0,0 l/m 16,1 km/h (3 Bft) N-NO 22 1 min 1,2 UV-I 485 W/m -4,4 C -5,5 C 24,1 km/h (4 Bft)
27.02.2023 15:05 1,7 C 7,8 C 64 % 1028,9 hPa 0,0 l/m 22,5 km/h (4 Bft) O-NO 67 0 min 1,2 UV-I 183 W/m -4,4 C -8,5 C 29,0 km/h (5 Bft)
27.02.2023 15:06 1,6 C 6,7 C 63 % 1029,0 hPa 0,0 l/m 22,5 km/h (4 Bft) NO 45 0 min 1,6 UV-I 183 W/m -4,7 C -8,6 C 29,0 km/h (5 Bft)
27.02.2023 15:07 1,5 C 8,3 C 63 % 1028,9 hPa 0,0 l/m 17,7 km/h (3 Bft) NO 45 1 min 1,6 UV-I 454 W/m -4,8 C -6,6 C 25,7 km/h (4 Bft)
27.02.2023 15:08 1,6 C 9,4 C 64 % 1028,8 hPa 0,0 l/m 17,7 km/h (3 Bft) NO 45 1 min 1,6 UV-I 446 W/m -4,5 C -6,5 C 24,1 km/h (4 Bft)
27.02.2023 15:09 1,7 C 10,0 C 64 % 1028,9 hPa 0,0 l/m 16,1 km/h (3 Bft) N-NO 22 1 min 1,6 UV-I 449 W/m -4,4 C -5,5 C 24,1 km/h (4 Bft)
27.02.2023 15:10 1,8 C 11,1 C 64 % 1028,9 hPa 0,0 l/m 16,1 km/h (3 Bft) N-NO 22 1 min 1,6 UV-I 469 W/m -4,3 C -5,4 C 24,1 km/h (4 Bft)
27.02.2023 15:11 1,8 C 11,1 C 65 % 1028,9 hPa 0,0 l/m 17,7 km/h (3 Bft) N 360 1 min 1,5 UV-I 483 W/m -4,1 C -6,2 C 25,7 km/h (4 Bft)
27.02.2023 15:12 1,9 C 11,1 C 65 % 1029,0 hPa 0,0 l/m 20,9 km/h (4 Bft) N 360 1 min 1,6 UV-I 482 W/m -4,0 C -7,6 C 32,2 km/h (5 Bft)
27.02.2023 15:13 1,9 C 10,0 C 64 % 1028,9 hPa 0,0 l/m 22,5 km/h (4 Bft) N 360 1 min 1,1 UV-I 482 W/m -4,2 C -8,2 C 30,6 km/h (5 Bft)
27.02.2023 15:14 1,9 C 10,6 C 65 % 1028,9 hPa 0,0 l/m 14,5 km/h (3 Bft) N-NO 22 1 min 1,5 UV-I 482 W/m -4,0 C -4,4 C 19,3 km/h (3 Bft)
27.02.2023 15:15 2,0 C 10,6 C 65 % 1028,9 hPa 0,0 l/m 12,9 km/h (3 Bft) N-NO 22 0 min 0,9 UV-I 93 W/m -3,9 C -3,3 C 24,1 km/h (4 Bft)
27.02.2023 15:16 1,9 C 9,4 C 65 % 1028,9 hPa 0,0 l/m 17,7 km/h (3 Bft) N-NO 22 0 min 1,0 UV-I 95 W/m -4,0 C -6,1 C 22,5 km/h (4 Bft)
27.02.2023 15:17 1,8 C 8,3 C 64 % 1028,9 hPa 0,0 l/m 16,1 km/h (3 Bft) N-NO 22 0 min 1,5 UV-I 172 W/m -4,3 C -5,4 C 22,5 km/h (4 Bft)
27.02.2023 15:18 1,8 C 7,8 C 64 % 1028,9 hPa 0,0 l/m 12,9 km/h (3 Bft) N-NO 22 0 min 1,5 UV-I 172 W/m -4,3 C -3,5 C 16,1 km/h (3 Bft)
27.02.2023 15:19 1,8 C 9,4 C 65 % 1028,9 hPa 0,0 l/m 17,7 km/h (3 Bft) N-NO 22 1 min 1,5 UV-I 494 W/m -4,1 C -6,2 C 24,1 km/h (4 Bft)
27.02.2023 15:20 2,0 C 10,6 C 65 % 1028,9 hPa 0,0 l/m 14,5 km/h (3 Bft) N-NO 22 1 min 1,5 UV-I 483 W/m -3,9 C -4,3 C 19,3 km/h (3 Bft)
27.02.2023 15:21 2,1 C 11,7 C 64 % 1028,9 hPa 0,0 l/m 17,7 km/h (3 Bft) N-NO 22 1 min 1,4 UV-I 475 W/m -4,0 C -5,9 C 24,1 km/h (4 Bft)
27.02.2023 15:22 2,2 C 12,2 C 65 % 1029,0 hPa 0,0 l/m 19,3 km/h (3 Bft) N-NO 22 1 min 1,2 UV-I 475 W/m -3,7 C -6,5 C 27,4 km/h (4 Bft)
27.02.2023 15:23 2,2 C 11,7 C 64 % 1028,9 hPa 0,0 l/m 20,9 km/h (4 Bft) N 360 0 min 0,9 UV-I 114 W/m -3,9 C -7,2 C 29,0 km/h (5 Bft)
27.02.2023 15:24 2,1 C 8,9 C 64 % 1028,9 hPa 0,0 l/m 27,4 km/h (4 Bft) N-NO 22 0 min 0,8 UV-I 84 W/m -4,0 C -9,7 C 35,4 km/h (5 Bft)
27.02.2023 15:25 1,8 C 6,7 C 63 % 1028,9 hPa 0,0 l/m 29,0 km/h (5 Bft) N 360 0 min 0,8 UV-I 74 W/m -4,5 C -10,6 C 40,2 km/h (6 Bft)
27.02.2023 15:26 1,7 C 5,0 C 63 % 1028,9 hPa 0,0 l/m 19,3 km/h (3 Bft) N 360 0 min 0,8 UV-I 70 W/m -4,6 C -7,1 C 29,0 km/h (5 Bft)
27.02.2023 15:27 1,4 C 3,9 C 63 % 1028,9 hPa 0,0 l/m 24,1 km/h (4 Bft) N 360 0 min 0,9 UV-I 67 W/m -4,9 C -9,5 C 29,0 km/h (5 Bft)
27.02.2023 15:28 1,3 C 3,3 C 63 % 1028,9 hPa 0,0 l/m 20,9 km/h (4 Bft) N-NO 22 0 min 0,9 UV-I 67 W/m -5,0 C -8,3 C 25,7 km/h (4 Bft)
27.02.2023 15:29 1,2 C 2,8 C 64 % 1028,9 hPa 0,0 l/m 19,3 km/h (3 Bft) N-NO 22 0 min 0,9 UV-I 69 W/m -4,8 C -7,8 C 24,1 km/h (4 Bft)
27.02.2023 15:30 1,1 C 2,8 C 66 % 1028,9 hPa 0,0 l/m 19,3 km/h (3 Bft) N 360 0 min 1,3 UV-I 69 W/m -4,5 C -7,9 C 27,4 km/h (4 Bft)
27.02.2023 15:31 1,2 C 4,4 C 66 % 1028,8 hPa 0,0 l/m 16,1 km/h (3 Bft) N-NO 22 1 min 1,3 UV-I 403 W/m -4,4 C -6,1 C 24,1 km/h (4 Bft)
27.02.2023 15:32 1,3 C 6,1 C 66 % 1028,8 hPa 0,0 l/m 22,5 km/h (4 Bft) N 360 1 min 0,9 UV-I 403 W/m -4,3 C -9,0 C 32,2 km/h (5 Bft)
27.02.2023 15:33 1,3 C 6,7 C 64 % 1028,8 hPa 0,0 l/m 27,4 km/h (4 Bft) N 360 1 min 1,3 UV-I 404 W/m -4,7 C -10,8 C 33,8 km/h (5 Bft)
27.02.2023 15:34 1,4 C 7,8 C 64 % 1028,8 hPa 0,0 l/m 17,7 km/h (3 Bft) N-NO 22 1 min 1,3 UV-I 415 W/m -4,6 C -6,7 C 25,7 km/h (4 Bft)
27.02.2023 15:35 1,6 C 8,9 C 65 % 1028,8 hPa 0,0 l/m 17,7 km/h (3 Bft) N-NO 22 1 min 1,3 UV-I 424 W/m -4,3 C -6,5 C 24,1 km/h (4 Bft)
27.02.2023 15:36 1,7 C 8,9 C 64 % 1028,9 hPa 0,0 l/m 22,5 km/h (4 Bft) N-NO 22 1 min 1,3 UV-I 434 W/m -4,4 C -8,5 C 30,6 km/h (5 Bft)
27.02.2023 15:37 1,9 C 9,4 C 64 % 1028,9 hPa 0,0 l/m 14,5 km/h (3 Bft) NO 45 1 min 1,3 UV-I 432 W/m -4,2 C -4,4 C 22,5 km/h (4 Bft)
27.02.2023 15:38 1,9 C 10,0 C 64 % 1028,7 hPa 0,0 l/m 16,1 km/h (3 Bft) N-NO 22 1 min 0,9 UV-I 432 W/m -4,2 C -5,3 C 20,9 km/h (4 Bft)
27.02.2023 15:39 2,1 C 10,0 C 64 % 1028,8 hPa 0,0 l/m 17,7 km/h (3 Bft) N-NO 22 1 min 1,3 UV-I 397 W/m -4,0 C -5,9 C 24,1 km/h (4 Bft)
27.02.2023 15:40 2,1 C 10,6 C 64 % 1028,8 hPa 0,0 l/m 17,7 km/h (3 Bft) N-NO 22 1 min 1,3 UV-I 411 W/m -4,0 C -5,9 C 24,1 km/h (4 Bft)
27.02.2023 15:41 2,1 C 11,1 C 64 % 1028,7 hPa 0,0 l/m 19,3 km/h (3 Bft) N-NO 22 1 min 1,3 UV-I 425 W/m -4,0 C -6,6 C 25,7 km/h (4 Bft)
27.02.2023 15:42 2,1 C 11,1 C 62 % 1028,8 hPa 0,0 l/m 17,7 km/h (3 Bft) N-NO 22 1 min 0,9 UV-I 367 W/m -4,4 C -5,9 C 20,9 km/h (4 Bft)
27.02.2023 15:43 2,1 C 10,0 C 63 % 1028,7 hPa 0,0 l/m 14,5 km/h (3 Bft) N 360 1 min 0,9 UV-I 367 W/m -4,2 C -4,2 C 19,3 km/h (3 Bft)
27.02.2023 15:44 2,0 C 8,9 C 63 % 1028,8 hPa 0,0 l/m 16,1 km/h (3 Bft) N-NO 22 0 min 1,1 UV-I 137 W/m -4,3 C -5,2 C 20,9 km/h (4 Bft)
27.02.2023 15:45 1,9 C 9,4 C 63 % 1028,8 hPa 0,0 l/m 20,9 km/h (4 Bft) N 360 0 min 1,0 UV-I 137 W/m -4,4 C -7,6 C 30,6 km/h (5 Bft)
27.02.2023 15:46 1,8 C 7,2 C 63 % 1028,8 hPa 0,0 l/m 20,9 km/h (4 Bft) N 360 0 min 0,8 UV-I 104 W/m -4,5 C -7,7 C 27,4 km/h (4 Bft)
27.02.2023 15:47 1,6 C 6,7 C 63 % 1028,7 hPa 0,0 l/m 22,5 km/h (4 Bft) N 360 0 min 0,8 UV-I 104 W/m -4,7 C -8,6 C 29,0 km/h (5 Bft)
27.02.2023 15:48 1,5 C 5,6 C 64 % 1028,8 hPa 0,0 l/m 20,9 km/h (4 Bft) N 360 0 min 0,8 UV-I 104 W/m -4,6 C -8,1 C 29,0 km/h (5 Bft)
27.02.2023 15:49 1,4 C 4,4 C 64 % 1028,9 hPa 0,0 l/m 22,5 km/h (4 Bft) N 360 0 min 0,7 UV-I 95 W/m -4,6 C -8,9 C 29,0 km/h (5 Bft)
27.02.2023 15:50 1,4 C 3,9 C 64 % 1028,9 hPa 0,0 l/m 16,1 km/h (3 Bft) N-NO 22 0 min 0,7 UV-I 101 W/m -4,6 C -5,9 C 20,9 km/h (4 Bft)
27.02.2023 15:51 1,3 C 3,3 C 64 % 1028,9 hPa 0,0 l/m 25,7 km/h (4 Bft) N-NO 22 0 min 0,7 UV-I 84 W/m -4,7 C -10,2 C 30,6 km/h (5 Bft)
27.02.2023 15:52 1,3 C 2,8 C 63 % 1028,9 hPa 0,0 l/m 20,9 km/h (4 Bft) N-NO 22 0 min 0,7 UV-I 90 W/m -5,0 C -8,3 C 25,7 km/h (4 Bft)
27.02.2023 15:53 1,3 C 2,2 C 63 % 1028,8 hPa 0,0 l/m 19,3 km/h (3 Bft) N-NO 22 0 min 0,7 UV-I 102 W/m -5,0 C -7,6 C 22,5 km/h (4 Bft)
27.02.2023 15:54 1,3 C 2,8 C 64 % 1028,9 hPa 0,0 l/m 20,9 km/h (4 Bft) N-NO 22 0 min 0,8 UV-I 113 W/m -4,7 C -8,3 C 30,6 km/h (5 Bft)
27.02.2023 15:55 1,3 C 2,8 C 64 % 1028,9 hPa 0,0 l/m 16,1 km/h (3 Bft) NO 45 0 min 0,7 UV-I 121 W/m -4,7 C -6,0 C 24,1 km/h (4 Bft)
27.02.2023 15:56 1,3 C 3,3 C 64 % 1028,9 hPa 0,0 l/m 11,3 km/h (2 Bft) N-NO 22 0 min 0,8 UV-I 128 W/m -4,7 C -3,0 C 16,1 km/h (3 Bft)
27.02.2023 15:57 1,4 C 3,3 C 64 % 1028,9 hPa 0,0 l/m 9,7 km/h (2 Bft) N-NO 22 0 min 0,8 UV-I 128 W/m -4,6 C -1,7 C 14,5 km/h (3 Bft)
27.02.2023 15:58 1,6 C 3,3 C 64 % 1028,8 hPa 0,0 l/m 17,7 km/h (3 Bft) N-NO 22 0 min 1,0 UV-I 128 W/m -4,5 C -6,5 C 24,1 km/h (4 Bft)
27.02.2023 15:59 1,6 C 3,9 C 65 % 1028,9 hPa 0,0 l/m 16,1 km/h (3 Bft) N 360 0 min 0,7 UV-I 128 W/m -4,3 C -5,7 C 20,9 km/h (4 Bft)
27.02.2023 16:00 1,7 C 3,9 C 64 % 1028,7 hPa 0,0 l/m 14,5 km/h (3 Bft) N 360 0 min 0,7 UV-I 137 W/m -4,4 C -4,6 C 19,3 km/h (3 Bft)
27.02.2023 16:01 1,7 C 3,9 C 64 % 1028,8 hPa 0,0 l/m 11,3 km/h (2 Bft) N-NO 22 0 min 1,0 UV-I 137 W/m -4,4 C -2,6 C 19,3 km/h (3 Bft)
27.02.2023 16:02 1,7 C 3,9 C 65 % 1028,8 hPa 0,0 l/m 19,3 km/h (3 Bft) N-NO 22 0 min 0,7 UV-I 137 W/m -4,2 C -7,1 C 30,6 km/h (5 Bft)
27.02.2023 16:03 1,7 C 4,4 C 65 % 1028,7 hPa 0,0 l/m 20,9 km/h (4 Bft) N-NO 22 0 min 0,7 UV-I 137 W/m -4,2 C -7,8 C 29,0 km/h (5 Bft)
27.02.2023 16:04 1,7 C 3,9 C 63 % 1028,7 hPa 0,0 l/m 17,7 km/h (3 Bft) N-NW 337 0 min 0,7 UV-I 211 W/m -4,6 C -6,4 C 25,7 km/h (4 Bft)
27.02.2023 16:05 1,8 C 3,9 C 64 % 1028,8 hPa 0,0 l/m 20,9 km/h (4 Bft) N 360 0 min 0,5 UV-I 127 W/m -4,3 C -7,7 C 29,0 km/h (5 Bft)
27.02.2023 16:06 1,7 C 3,3 C 63 % 1028,8 hPa 0,0 l/m 20,9 km/h (4 Bft) N-NO 22 0 min 0,5 UV-I 111 W/m -4,6 C -7,8 C 29,0 km/h (5 Bft)
27.02.2023 16:07 1,7 C 3,3 C 63 % 1028,8 hPa 0,0 l/m 16,1 km/h (3 Bft) N-NO 22 0 min 0,5 UV-I 149 W/m -4,6 C -5,5 C 20,9 km/h (4 Bft)
27.02.2023 16:08 1,6 C 3,3 C 64 % 1028,8 hPa 0,0 l/m 14,5 km/h (3 Bft) N 360 0 min 0,5 UV-I 118 W/m -4,5 C -4,8 C 16,1 km/h (3 Bft)
27.02.2023 16:09 1,6 C 3,3 C 65 % 1028,8 hPa 0,0 l/m 17,7 km/h (3 Bft) N-NO 22 0 min 0,0 UV-I 104 W/m -4,3 C -6,5 C 20,9 km/h (4 Bft)
27.02.2023 16:10 1,6 C 2,8 C 64 % 1028,8 hPa 0,0 l/m 14,5 km/h (3 Bft) N-NO 22 0 min 0,0 UV-I 93 W/m -4,5 C -4,8 C 19,3 km/h (3 Bft)
27.02.2023 16:11 1,6 C 2,8 C 64 % 1028,9 hPa 0,0 l/m 19,3 km/h (3 Bft) N-NO 22 0 min 0,0 UV-I 88 W/m -4,5 C -7,2 C 24,1 km/h (4 Bft)
27.02.2023 16:12 1,6 C 2,8 C 64 % 1028,8 hPa 0,0 l/m 14,5 km/h (3 Bft) N-NO 22 0 min 0,0 UV-I 83 W/m -4,5 C -4,8 C 19,3 km/h (3 Bft)
27.02.2023 16:13 1,6 C 2,2 C 64 % 1028,8 hPa 0,0 l/m 17,7 km/h (3 Bft) N-NO 22 0 min 0,0 UV-I 76 W/m -4,5 C -6,5 C 24,1 km/h (4 Bft)
27.02.2023 16:14 1,6 C 2,2 C 64 % 1028,8 hPa 0,0 l/m 14,5 km/h (3 Bft) N-NO 22 0 min 0,0 UV-I 74 W/m -4,5 C -4,8 C 25,7 km/h (4 Bft)
27.02.2023 16:15 1,5 C 2,2 C 65 % 1028,8 hPa 0,0 l/m 14,5 km/h (3 Bft) N-NO 22 0 min 0,0 UV-I 74 W/m -4,3 C -4,9 C 20,9 km/h (4 Bft)
27.02.2023 16:16 1,4 C 2,2 C 65 % 1028,8 hPa 0,0 l/m 16,1 km/h (3 Bft) N 360 0 min 0,0 UV-I 76 W/m -4,4 C -5,9 C 22,5 km/h (4 Bft)
27.02.2023 16:17 1,4 C 1,7 C 65 % 1028,8 hPa 0,0 l/m 14,5 km/h (3 Bft) N-NO 22 0 min 0,5 UV-I 74 W/m -4,4 C -5,0 C 17,7 km/h (3 Bft)
27.02.2023 16:18 1,3 C 1,7 C 65 % 1028,8 hPa 0,0 l/m 11,3 km/h (2 Bft) N 360 0 min 0,5 UV-I 70 W/m -4,5 C -3,0 C 14,5 km/h (3 Bft)
27.02.2023 16:19 1,3 C 1,7 C 65 % 1028,8 hPa 0,0 l/m 9,7 km/h (2 Bft) N-NO 22 0 min 0,5 UV-I 72 W/m -4,5 C -1,8 C 14,5 km/h (3 Bft)
27.02.2023 16:20 1,3 C 1,7 C 66 % 1028,9 hPa 0,0 l/m 11,3 km/h (2 Bft) N-NO 22 0 min 0,5 UV-I 76 W/m -4,3 C -3,0 C 14,5 km/h (3 Bft)
27.02.2023 16:21 1,3 C 1,7 C 66 % 1028,9 hPa 0,0 l/m 12,9 km/h (3 Bft) N-NO 22 0 min 0,5 UV-I 77 W/m -4,3 C -4,1 C 16,1 km/h (3 Bft)
27.02.2023 16:22 1,2 C 1,7 C 66 % 1028,9 hPa 0,0 l/m 12,9 km/h (3 Bft) N-NO 22 0 min 0,5 UV-I 84 W/m -4,4 C -4,2 C 19,3 km/h (3 Bft)
27.02.2023 16:23 1,2 C 1,7 C 65 % 1028,9 hPa 0,0 l/m 17,7 km/h (3 Bft) N-NO 22 0 min 0,5 UV-I 86 W/m -4,6 C -7,0 C 20,9 km/h (4 Bft)
27.02.2023 16:24 1,2 C 1,7 C 65 % 1028,9 hPa 0,0 l/m 17,7 km/h (3 Bft) N-NO 22 0 min 0,5 UV-I 88 W/m -4,6 C -7,0 C 25,7 km/h (4 Bft)
27.02.2023 16:25 1,2 C 1,7 C 65 % 1029,0 hPa 0,0 l/m 24,1 km/h (4 Bft) N-NO 22 0 min 0,5 UV-I 90 W/m -4,6 C -9,8 C 30,6 km/h (5 Bft)
27.02.2023 16:26 1,2 C 1,7 C 65 % 1029,0 hPa 0,0 l/m 22,5 km/h (4 Bft) N-NO 22 0 min 0,5 UV-I 91 W/m -4,6 C -9,1 C 27,4 km/h (4 Bft)
27.02.2023 16:27 1,2 C 1,7 C 65 % 1028,9 hPa 0,0 l/m 17,7 km/h (3 Bft) N-NO 22 0 min 0,5 UV-I 95 W/m -4,6 C -7,0 C 25,7 km/h (4 Bft)
27.02.2023 16:28 1,2 C 1,7 C 65 % 1029,0 hPa 0,0 l/m 16,1 km/h (3 Bft) N 360 0 min 0,5 UV-I 90 W/m -4,6 C -6,1 C 22,5 km/h (4 Bft)
27.02.2023 16:29 1,2 C 1,7 C 65 % 1028,9 hPa 0,0 l/m 17,7 km/h (3 Bft) N-NO 22 0 min 0,5 UV-I 88 W/m -4,6 C -7,0 C 22,5 km/h (4 Bft)
27.02.2023 16:30 1,2 C 1,7 C 65 % 1028,9 hPa 0,0 l/m 12,9 km/h (3 Bft) N 360 0 min 0,5 UV-I 91 W/m -4,6 C -4,2 C 16,1 km/h (3 Bft)
27.02.2023 16:31 1,2 C 1,7 C 65 % 1029,0 hPa 0,0 l/m 19,3 km/h (3 Bft) N-NO 22 0 min 0,5 UV-I 103 W/m -4,6 C -7,8 C 25,7 km/h (4 Bft)
27.02.2023 16:32 1,2 C 1,7 C 65 % 1029,0 hPa 0,0 l/m 16,1 km/h (3 Bft) N-NO 22 0 min 0,5 UV-I 114 W/m -4,6 C -6,1 C 20,9 km/h (4 Bft)
27.02.2023 16:33 1,3 C 1,7 C 65 % 1029,0 hPa 0,0 l/m 14,5 km/h (3 Bft) N-NO 22 0 min 0,5 UV-I 114 W/m -4,5 C -5,1 C 17,7 km/h (3 Bft)
27.02.2023 16:34 1,3 C 2,2 C 66 % 1028,9 hPa 0,0 l/m 14,5 km/h (3 Bft) N-NO 22 0 min 0,5 UV-I 116 W/m -4,3 C -5,1 C 22,5 km/h (4 Bft)
27.02.2023 16:35 1,3 C 2,2 C 65 % 1029,0 hPa 0,0 l/m 20,9 km/h (4 Bft) N-NO 22 0 min 0,0 UV-I 118 W/m -4,5 C -8,3 C 24,1 km/h (4 Bft)
27.02.2023 16:36 1,3 C 2,2 C 65 % 1029,0 hPa 0,0 l/m 19,3 km/h (3 Bft) N-NO 22 0 min 0,0 UV-I 116 W/m -4,5 C -7,6 C 29,0 km/h (5 Bft)
27.02.2023 16:37 1,3 C 3,3 C 64 % 1029,0 hPa 0,0 l/m 19,3 km/h (3 Bft) N-NO 22 0 min 0,5 UV-I 121 W/m -4,7 C -7,6 C 22,5 km/h (4 Bft)
27.02.2023 16:38 1,4 C 3,3 C 65 % 1029,1 hPa 0,0 l/m 19,3 km/h (3 Bft) N-NO 22 1 min 0,5 UV-I 294 W/m -4,4 C -7,5 C 25,7 km/h (4 Bft)
27.02.2023 16:39 1,6 C 5,0 C 65 % 1029,1 hPa 0,0 l/m 16,1 km/h (3 Bft) NO 45 1 min 0,5 UV-I 287 W/m -4,3 C -5,7 C 24,1 km/h (4 Bft)
27.02.2023 16:40 1,7 C 6,7 C 64 % 1029,0 hPa 0,0 l/m 19,3 km/h (3 Bft) N-NO 22 1 min 0,5 UV-I 278 W/m -4,4 C -7,1 C 25,7 km/h (4 Bft)
27.02.2023 16:41 1,7 C 7,2 C 63 % 1029,1 hPa 0,0 l/m 19,3 km/h (3 Bft) N-NO 22 1 min 0,5 UV-I 272 W/m -4,6 C -7,1 C 29,0 km/h (5 Bft)
27.02.2023 16:42 1,8 C 7,8 C 63 % 1029,0 hPa 0,0 l/m 11,3 km/h (2 Bft) N-NO 22 1 min 0,5 UV-I 255 W/m -4,5 C -2,4 C 17,7 km/h (3 Bft)
27.02.2023 16:43 1,9 C 8,9 C 63 % 1029,1 hPa 0,0 l/m 12,9 km/h (3 Bft) NO 45 0 min 0,5 UV-I 236 W/m -4,4 C -3,4 C 20,9 km/h (4 Bft)
27.02.2023 16:44 2,1 C 9,4 C 63 % 1029,0 hPa 0,0 l/m 14,5 km/h (3 Bft) N-NO 22 0 min 0,3 UV-I 185 W/m -4,2 C -4,2 C 16,1 km/h (3 Bft)
27.02.2023 16:45 2,1 C 8,9 C 63 % 1029,1 hPa 0,0 l/m 14,5 km/h (3 Bft) N-NO 22 0 min 0,0 UV-I 105 W/m -4,2 C -4,2 C 20,9 km/h (4 Bft)
27.02.2023 16:46 2,1 C 7,8 C 63 % 1029,1 hPa 0,0 l/m 12,9 km/h (3 Bft) NO 45 0 min 0,0 UV-I 90 W/m -4,2 C -3,2 C 17,7 km/h (3 Bft)
27.02.2023 16:47 2,0 C 6,1 C 63 % 1029,1 hPa 0,0 l/m 12,9 km/h (3 Bft) NO 45 0 min 0,0 UV-I 139 W/m -4,3 C -3,3 C 19,3 km/h (3 Bft)
27.02.2023 16:48 1,9 C 5,6 C 63 % 1029,0 hPa 0,0 l/m 16,1 km/h (3 Bft) N-NO 22 0 min 0,0 UV-I 88 W/m -4,4 C -5,3 C 24,1 km/h (4 Bft)
27.02.2023 16:49 1,8 C 3,9 C 63 % 1029,0 hPa 0,0 l/m 19,3 km/h (3 Bft) N-NO 22 0 min 0,0 UV-I 79 W/m -4,5 C -7,0 C 30,6 km/h (5 Bft)
27.02.2023 16:50 1,7 C 3,3 C 62 % 1029,0 hPa 0,0 l/m 14,5 km/h (3 Bft) N-NO 22 0 min 0,0 UV-I 76 W/m -4,8 C -4,6 C 20,9 km/h (4 Bft)
27.02.2023 16:51 1,6 C 2,8 C 63 % 1029,1 hPa 0,0 l/m 12,9 km/h (3 Bft) N-NO 22 0 min 0,0 UV-I 72 W/m -4,7 C -3,8 C 17,7 km/h (3 Bft)
27.02.2023 16:52 1,6 C 2,2 C 63 % 1029,0 hPa 0,0 l/m 16,1 km/h (3 Bft) N-NO 22 0 min 0,0 UV-I 69 W/m -4,7 C -5,7 C 22,5 km/h (4 Bft)
27.02.2023 16:53 1,5 C 2,2 C 63 % 1029,0 hPa 0,0 l/m 20,9 km/h (4 Bft) N-NO 22 0 min 0,0 UV-I 69 W/m -4,8 C -8,1 C 24,1 km/h (4 Bft)
27.02.2023 16:54 1,4 C 1,7 C 63 % 1029,1 hPa 0,0 l/m 17,7 km/h (3 Bft) N-NO 22 0 min 0,0 UV-I 70 W/m -4,9 C -6,7 C 20,9 km/h (4 Bft)
27.02.2023 16:55 1,4 C 1,7 C 63 % 1029,1 hPa 0,0 l/m 16,1 km/h (3 Bft) N-NO 22 0 min 0,0 UV-I 69 W/m -4,9 C -5,9 C 20,9 km/h (4 Bft)
27.02.2023 16:56 1,3 C 1,7 C 63 % 1029,0 hPa 0,0 l/m 16,1 km/h (3 Bft) N-NO 22 0 min 0,0 UV-I 116 W/m -5,0 C -6,0 C 20,9 km/h (4 Bft)
27.02.2023 16:57 1,3 C 1,7 C 63 % 1029,0 hPa 0,0 l/m 14,5 km/h (3 Bft) N-NO 22 0 min 0,0 UV-I 185 W/m -5,0 C -5,1 C 19,3 km/h (3 Bft)
27.02.2023 16:58 1,3 C 1,7 C 63 % 1029,0 hPa 0,0 l/m 16,1 km/h (3 Bft) N-NO 22 0 min 0,0 UV-I 195 W/m -5,0 C -6,0 C 19,3 km/h (3 Bft)
27.02.2023 16:59 1,4 C 2,2 C 63 % 1029,0 hPa 0,0 l/m 14,5 km/h (3 Bft) NO 45 0 min 0,0 UV-I 199 W/m -4,9 C -5,0 C 22,5 km/h (4 Bft)
27.02.2023 17:00 1,4 C 2,2 C 62 % 1029,0 hPa 0,0 l/m 19,3 km/h (3 Bft) NO 45 0 min 0,0 UV-I 188 W/m -5,1 C -7,5 C 24,1 km/h (4 Bft)
27.02.2023 17:01 1,6 C 2,2 C 62 % 1028,9 hPa 0,0 l/m 14,5 km/h (3 Bft) N-NO 22 0 min 0,0 UV-I 105 W/m -4,9 C -4,8 C 24,1 km/h (4 Bft)
27.02.2023 17:02 1,6 C 2,2 C 63 % 1029,1 hPa 0,0 l/m 19,3 km/h (3 Bft) N-NO 22 0 min 0,0 UV-I 118 W/m -4,7 C -7,2 C 24,1 km/h (4 Bft)
27.02.2023 17:03 1,6 C 2,2 C 62 % 1029,1 hPa 0,0 l/m 11,3 km/h (2 Bft) NO 45 0 min 0,0 UV-I 183 W/m -4,9 C -2,7 C 17,7 km/h (3 Bft)
27.02.2023 17:04 1,6 C 2,2 C 62 % 1029,1 hPa 0,0 l/m 14,5 km/h (3 Bft) N-NO 22 0 min 0,0 UV-I 116 W/m -4,9 C -4,8 C 19,3 km/h (3 Bft)
27.02.2023 17:05 1,7 C 2,2 C 62 % 1029,1 hPa 0,0 l/m 14,5 km/h (3 Bft) NO 45 0 min 0,0 UV-I 163 W/m -4,8 C -4,6 C 19,3 km/h (3 Bft)
27.02.2023 17:06 1,7 C 2,2 C 62 % 1029,0 hPa 0,0 l/m 12,9 km/h (3 Bft) N-NO 22 0 min 0,0 UV-I 75 W/m -4,8 C -3,6 C 17,7 km/h (3 Bft)
27.02.2023 17:07 1,7 C 2,2 C 62 % 1029,1 hPa 0,0 l/m 14,5 km/h (3 Bft) N-NO 22 0 min 0,0 UV-I 65 W/m -4,8 C -4,6 C 22,5 km/h (4 Bft)
27.02.2023 17:08 1,7 C 2,2 C 62 % 1029,1 hPa 0,0 l/m 19,3 km/h (3 Bft) NO 45 0 min 0,0 UV-I 109 W/m -4,8 C -7,1 C 24,1 km/h (4 Bft)
27.02.2023 17:09 1,6 C 2,8 C 61 % 1029,0 hPa 0,0 l/m 17,7 km/h (3 Bft) N-NO 22 0 min 0,0 UV-I 113 W/m -5,1 C -6,5 C 24,1 km/h (4 Bft)
27.02.2023 17:10 1,6 C 2,8 C 62 % 1029,1 hPa 0,0 l/m 17,7 km/h (3 Bft) NO 45 0 min 0,0 UV-I 53 W/m -4,9 C -6,5 C 22,5 km/h (4 Bft)
27.02.2023 17:11 1,6 C 2,2 C 61 % 1029,0 hPa 0,0 l/m 14,5 km/h (3 Bft) NO 45 0 min 0,0 UV-I 51 W/m -5,1 C -4,8 C 20,9 km/h (4 Bft)
27.02.2023 17:12 1,6 C 1,7 C 62 % 1029,0 hPa 0,0 l/m 12,9 km/h (3 Bft) NO 45 0 min 0,0 UV-I 50 W/m -4,9 C -3,8 C 19,3 km/h (3 Bft)
27.02.2023 17:13 1,5 C 1,1 C 61 % 1029,1 hPa 0,0 l/m 20,9 km/h (4 Bft) NO 45 0 min 0,0 UV-I 44 W/m -5,2 C -8,1 C 27,4 km/h (4 Bft)
27.02.2023 17:14 1,5 C 1,1 C 61 % 1029,1 hPa 0,0 l/m 22,5 km/h (4 Bft) N-NO 22 0 min 0,0 UV-I 40 W/m -5,2 C -8,7 C 33,8 km/h (5 Bft)
27.02.2023 17:15 1,4 C 1,1 C 60 % 1029,0 hPa 0,0 l/m 25,7 km/h (4 Bft) NO 45 0 min 0,0 UV-I 39 W/m -5,5 C -10,1 C 35,4 km/h (5 Bft)
27.02.2023 17:16 1,4 C 0,6 C 60 % 1029,1 hPa 0,0 l/m 22,5 km/h (4 Bft) NO 45 0 min 0,0 UV-I 37 W/m -5,5 C -8,9 C 30,6 km/h (5 Bft)
27.02.2023 17:17 1,3 C 0,6 C 60 % 1029,1 hPa 0,0 l/m 20,9 km/h (4 Bft) N-NO 22 0 min 0,0 UV-I 33 W/m -5,6 C -8,3 C 29,0 km/h (5 Bft)
27.02.2023 17:18 1,3 C 0,6 C 60 % 1029,1 hPa 0,0 l/m 20,9 km/h (4 Bft) N-NO 22 0 min 0,0 UV-I 34 W/m -5,6 C -8,3 C 29,0 km/h (5 Bft)
27.02.2023 17:19 1,2 C 0,0 C 60 % 1029,0 hPa 0,0 l/m 20,9 km/h (4 Bft) NO 45 0 min 0,0 UV-I 35 W/m -5,7 C -8,5 C 25,7 km/h (4 Bft)
27.02.2023 17:20 1,2 C 0,0 C 61 % 1029,1 hPa 0,0 l/m 24,1 km/h (4 Bft) NO 45 0 min 0,0 UV-I 32 W/m -5,5 C -9,8 C 30,6 km/h (5 Bft)
27.02.2023 17:21 1,2 C 0,0 C 61 % 1029,1 hPa 0,0 l/m 19,3 km/h (3 Bft) N-NO 22 0 min 0,0 UV-I 30 W/m -5,5 C -7,8 C 22,5 km/h (4 Bft)
27.02.2023 17:22 1,1 C 0,0 C 61 % 1029,1 hPa 0,0 l/m 19,3 km/h (3 Bft) NO 45 0 min 0,0 UV-I 26 W/m -5,6 C -7,9 C 24,1 km/h (4 Bft)
27.02.2023 17:23 1,1 C 0,0 C 61 % 1029,0 hPa 0,0 l/m 20,9 km/h (4 Bft) N-NO 22 0 min 0,0 UV-I 26 W/m -5,6 C -8,6 C 27,4 km/h (4 Bft)
27.02.2023 17:24 0,9 C 0,0 C 61 % 1029,2 hPa 0,0 l/m 19,3 km/h (3 Bft) N-NO 22 0 min 0,0 UV-I 23 W/m -5,8 C -8,1 C 22,5 km/h (4 Bft)
27.02.2023 17:25 0,9 C -0,6 C 61 % 1029,1 hPa 0,0 l/m 20,9 km/h (4 Bft) NO 45 0 min 0,0 UV-I 23 W/m -5,8 C -8,9 C 27,4 km/h (4 Bft)
27.02.2023 17:26 0,8 C -0,6 C 61 % 1029,1 hPa 0,0 l/m 17,7 km/h (3 Bft) N-NO 22 0 min 0,0 UV-I 23 W/m -5,8 C -7,5 C 22,5 km/h (4 Bft)
27.02.2023 17:27 0,8 C -0,6 C 62 % 1029,1 hPa 0,0 l/m 16,1 km/h (3 Bft) N-NO 22 0 min 0,0 UV-I 23 W/m -5,6 C -6,6 C 20,9 km/h (4 Bft)
27.02.2023 17:28 0,7 C -0,6 C 62 % 1029,1 hPa 0,0 l/m 12,9 km/h (3 Bft) N-NO 22 0 min 0,0 UV-I 23 W/m -5,7 C -4,8 C 20,9 km/h (4 Bft)
27.02.2023 17:29 0,7 C -0,6 C 62 % 1029,2 hPa 0,0 l/m 16,1 km/h (3 Bft) N-NO 22 0 min 0,0 UV-I 23 W/m -5,7 C -6,8 C 20,9 km/h (4 Bft)
27.02.2023 17:30 0,6 C -0,6 C 62 % 1029,2 hPa 0,0 l/m 12,9 km/h (3 Bft) N-NO 22 0 min 0,0 UV-I 23 W/m -5,8 C -4,9 C 17,7 km/h (3 Bft)
27.02.2023 17:31 0,6 C -0,6 C 63 % 1029,1 hPa 0,0 l/m 16,1 km/h (3 Bft) N-NO 22 0 min 0,0 UV-I 25 W/m -5,6 C -6,9 C 22,5 km/h (4 Bft)
27.02.2023 17:32 0,6 C -0,6 C 63 % 1029,2 hPa 0,0 l/m 14,5 km/h (3 Bft) N-NO 22 0 min 0,0 UV-I 25 W/m -5,6 C -6,0 C 19,3 km/h (3 Bft)
27.02.2023 17:33 0,6 C -0,6 C 63 % 1029,2 hPa 0,0 l/m 16,1 km/h (3 Bft) N-NO 22 0 min 0,0 UV-I 26 W/m -5,6 C -6,9 C 22,5 km/h (4 Bft)
27.02.2023 17:34 0,6 C -0,6 C 63 % 1029,1 hPa 0,0 l/m 17,7 km/h (3 Bft) N-NO 22 0 min 0,0 UV-I 30 W/m -5,6 C -7,7 C 20,9 km/h (4 Bft)
27.02.2023 17:35 0,5 C -0,6 C 63 % 1029,2 hPa 0,0 l/m 14,5 km/h (3 Bft) N-NO 22 0 min 0,0 UV-I 31 W/m -5,7 C -6,1 C 19,3 km/h (3 Bft)
27.02.2023 17:36 0,5 C -0,6 C 63 % 1029,2 hPa 0,0 l/m 19,3 km/h (3 Bft) N-NO 22 0 min 0,0 UV-I 28 W/m -5,7 C -8,7 C 24,1 km/h (4 Bft)
27.02.2023 17:37 0,5 C -0,6 C 63 % 1029,1 hPa 0,0 l/m 17,7 km/h (3 Bft) N-NO 22 0 min 0,0 UV-I 26 W/m -5,7 C -7,9 C 22,5 km/h (4 Bft)
27.02.2023 17:38 0,6 C -0,6 C 63 % 1029,2 hPa 0,0 l/m 17,7 km/h (3 Bft) N-NO 22 0 min 0,0 UV-I 25 W/m -5,6 C -7,7 C 20,9 km/h (4 Bft)
27.02.2023 17:39 0,5 C -0,6 C 63 % 1029,2 hPa 0,0 l/m 12,9 km/h (3 Bft) N-NO 22 0 min 0,0 UV-I 23 W/m -5,7 C -5,0 C 19,3 km/h (3 Bft)
27.02.2023 17:40 0,5 C -0,6 C 63 % 1029,3 hPa 0,0 l/m 11,3 km/h (2 Bft) N-NO 22 0 min 0,0 UV-I 23 W/m -5,7 C -3,9 C 17,7 km/h (3 Bft)
27.02.2023 17:41 0,4 C -0,6 C 64 % 1029,2 hPa 0,0 l/m 9,7 km/h (2 Bft) N-NO 22 0 min 0,0 UV-I 22 W/m -5,6 C -2,8 C 14,5 km/h (3 Bft)
27.02.2023 17:42 0,4 C -0,6 C 64 % 1029,3 hPa 0,0 l/m 12,9 km/h (3 Bft) N-NO 22 0 min 0,0 UV-I 23 W/m -5,6 C -5,2 C 16,1 km/h (3 Bft)
27.02.2023 17:43 0,4 C -1,1 C 63 % 1029,3 hPa 0,0 l/m 11,3 km/h (2 Bft) N-NO 22 0 min 0,0 UV-I 26 W/m -5,8 C -4,0 C 17,7 km/h (3 Bft)
27.02.2023 17:44 0,4 C -1,1 C 64 % 1029,3 hPa 0,0 l/m 12,9 km/h (3 Bft) N-NO 22 0 min 0,0 UV-I 26 W/m -5,6 C -5,2 C 16,1 km/h (3 Bft)
27.02.2023 17:45 0,4 C -1,1 C 64 % 1029,3 hPa 0,0 l/m 11,3 km/h (2 Bft) N-NO 22 0 min 0,0 UV-I 25 W/m -5,6 C -4,0 C 14,5 km/h (3 Bft)
27.02.2023 17:46 0,4 C -1,1 C 64 % 1029,3 hPa 0,0 l/m 9,7 km/h (2 Bft) N-NO 22 0 min 0,0 UV-I 23 W/m -5,6 C -2,8 C 14,5 km/h (3 Bft)
27.02.2023 17:47 0,4 C -1,1 C 64 % 1029,3 hPa 0,0 l/m 8,0 km/h (2 Bft) N-NO 22 0 min 0,0 UV-I 20 W/m -5,6 C -1,2 C 12,9 km/h (3 Bft)
27.02.2023 17:48 0,4 C -1,1 C 64 % 1029,3 hPa 0,0 l/m 11,3 km/h (2 Bft) NO 45 0 min 0,0 UV-I 18 W/m -5,6 C -4,0 C 16,1 km/h (3 Bft)
27.02.2023 17:49 0,4 C -1,1 C 63 % 1029,3 hPa 0,0 l/m 11,3 km/h (2 Bft) NO 45 0 min 0,0 UV-I 16 W/m -5,8 C -4,0 C 14,5 km/h (3 Bft)
27.02.2023 17:50 0,3 C -1,1 C 63 % 1029,3 hPa 0,0 l/m 17,7 km/h (3 Bft) N-NO 22 0 min 0,0 UV-I 16 W/m -5,9 C -8,1 C 25,7 km/h (4 Bft)
27.02.2023 17:51 0,3 C -1,1 C 63 % 1029,3 hPa 0,0 l/m 12,9 km/h (3 Bft) N-NO 22 0 min 0,0 UV-I 14 W/m -5,9 C -5,3 C 19,3 km/h (3 Bft)
27.02.2023 17:52 0,4 C -1,1 C 63 % 1029,4 hPa 0,0 l/m 11,3 km/h (2 Bft) N-NO 22 0 min 0,0 UV-I 12 W/m -5,8 C -4,0 C 14,5 km/h (3 Bft)
27.02.2023 17:53 0,3 C -1,1 C 63 % 1029,3 hPa 0,0 l/m 16,1 km/h (3 Bft) N-NO 22 0 min 0,0 UV-I 12 W/m -5,9 C -7,3 C 25,7 km/h (4 Bft)
27.02.2023 17:54 0,3 C -1,1 C 63 % 1029,4 hPa 0,0 l/m 22,5 km/h (4 Bft) N-NO 22 0 min 0,0 UV-I 11 W/m -5,9 C -10,3 C 27,4 km/h (4 Bft)
27.02.2023 17:55 0,3 C -1,1 C 63 % 1029,3 hPa 0,0 l/m 17,7 km/h (3 Bft) N-NO 22 0 min 0,0 UV-I 11 W/m -5,9 C -8,1 C 22,5 km/h (4 Bft)
27.02.2023 17:56 0,3 C -1,1 C 63 % 1029,3 hPa 0,0 l/m 17,7 km/h (3 Bft) N-NO 22 0 min 0,0 UV-I 11 W/m -5,9 C -8,1 C 24,1 km/h (4 Bft)
27.02.2023 17:57 0,3 C -1,1 C 63 % 1029,3 hPa 0,0 l/m 17,7 km/h (3 Bft) N-NO 22 0 min 0,0 UV-I 11 W/m -5,9 C -8,1 C 27,4 km/h (4 Bft)
27.02.2023 17:58 0,4 C -1,1 C 62 % 1029,4 hPa 0,0 l/m 17,7 km/h (3 Bft) N-NO 22 0 min 0,0 UV-I 9 W/m -6,0 C -8,0 C 27,4 km/h (4 Bft)
27.02.2023 17:59 0,4 C -1,1 C 62 % 1029,5 hPa 0,0 l/m 12,9 km/h (3 Bft) N 360 0 min 0,0 UV-I 9 W/m -6,0 C -5,2 C 17,7 km/h (3 Bft)
27.02.2023 18:00 0,3 C -1,7 C 63 % 1029,3 hPa 0,0 l/m 14,5 km/h (3 Bft) N-NO 22 0 min 0,0 UV-I 9 W/m -5,9 C -6,3 C 17,7 km/h (3 Bft)
27.02.2023 18:01 0,3 C -1,7 C 63 % 1029,4 hPa 0,0 l/m 17,7 km/h (3 Bft) N-NO 22 0 min 0,0 UV-I 9 W/m -5,9 C -8,1 C 22,5 km/h (4 Bft)
27.02.2023 18:02 0,2 C -1,7 C 63 % 1029,4 hPa 0,0 l/m 17,7 km/h (3 Bft) N-NO 22 0 min 0,0 UV-I 9 W/m -6,0 C -8,2 C 25,7 km/h (4 Bft)
27.02.2023 18:03 0,2 C -1,7 C 62 % 1029,4 hPa 0,0 l/m 20,9 km/h (4 Bft) NO 45 0 min 0,0 UV-I 7 W/m -6,2 C -9,8 C 25,7 km/h (4 Bft)
27.02.2023 18:04 0,2 C -1,7 C 62 % 1029,3 hPa 0,0 l/m 17,7 km/h (3 Bft) NO 45 0 min 0,0 UV-I 7 W/m -6,2 C -8,2 C 20,9 km/h (4 Bft)
27.02.2023 18:05 0,3 C -1,1 C 62 % 1029,4 hPa 0,0 l/m 22,5 km/h (4 Bft) N-NO 22 0 min 0,0 UV-I 7 W/m -6,1 C -10,3 C 29,0 km/h (5 Bft)
27.02.2023 18:06 0,3 C -1,1 C 62 % 1029,4 hPa 0,0 l/m 20,9 km/h (4 Bft) NO 45 0 min 0,0 UV-I 7 W/m -6,1 C -9,7 C 27,4 km/h (4 Bft)
27.02.2023 18:07 0,3 C -1,1 C 62 % 1029,4 hPa 0,0 l/m 19,3 km/h (3 Bft) N-NO 22 0 min 0,0 UV-I 5 W/m -6,1 C -8,9 C 29,0 km/h (5 Bft)
27.02.2023 18:08 0,3 C -1,1 C 62 % 1029,5 hPa 0,0 l/m 17,7 km/h (3 Bft) N-NO 22 0 min 0,0 UV-I 5 W/m -6,1 C -8,1 C 22,5 km/h (4 Bft)
27.02.2023 18:09 0,3 C -1,1 C 62 % 1029,4 hPa 0,0 l/m 17,7 km/h (3 Bft) N-NO 22 0 min 0,0 UV-I 5 W/m -6,1 C -8,1 C 24,1 km/h (4 Bft)
27.02.2023 18:10 0,3 C -1,7 C 62 % 1029,5 hPa 0,0 l/m 19,3 km/h (3 Bft) N-NO 22 0 min 0,0 UV-I 5 W/m -6,1 C -8,9 C 22,5 km/h (4 Bft)
27.02.2023 18:11 0,3 C -1,7 C 62 % 1029,5 hPa 0,0 l/m 17,7 km/h (3 Bft) N-NO 22 0 min 0,0 UV-I 5 W/m -6,1 C -8,1 C 25,7 km/h (4 Bft)
27.02.2023 18:12 0,3 C -1,7 C 62 % 1029,5 hPa 0,0 l/m 16,1 km/h (3 Bft) N-NO 22 0 min 0,0 UV-I 5 W/m -6,1 C -7,3 C 22,5 km/h (4 Bft)
27.02.2023 18:13 0,2 C -1,7 C 62 % 1029,5 hPa 0,0 l/m 14,5 km/h (3 Bft) N-NO 22 0 min 0,0 UV-I 0 W/m -6,2 C -6,4 C 17,7 km/h (3 Bft)
27.02.2023 18:14 0,2 C -1,7 C 62 % 1029,5 hPa 0,0 l/m 11,3 km/h (2 Bft) N-NO 22 0 min 0,0 UV-I 0 W/m -6,2 C -4,3 C 14,5 km/h (3 Bft)
27.02.2023 18:15 0,1 C -1,7 C 63 % 1029,5 hPa 0,0 l/m 14,5 km/h (3 Bft) N-NO 22 0 min 0,0 UV-I 0 W/m -6,1 C -6,6 C 19,3 km/h (3 Bft)
27.02.2023 18:16 0,0 C -1,7 C 62 % 1029,5 hPa 0,0 l/m 14,5 km/h (3 Bft) N-NO 22 0 min 0,0 UV-I 0 W/m -6,4 C -6,7 C 19,3 km/h (3 Bft)
27.02.2023 18:17 0,0 C -1,7 C 62 % 1029,5 hPa 0,0 l/m 16,1 km/h (3 Bft) N-NO 22 0 min 0,0 UV-I 0 W/m -6,4 C -7,6 C 24,1 km/h (4 Bft)
27.02.2023 18:18 0,0 C -1,7 C 62 % 1029,5 hPa 0,0 l/m 11,3 km/h (2 Bft) N-NO 22 0 min 0,0 UV-I 0 W/m -6,4 C -4,5 C 19,3 km/h (3 Bft)
27.02.2023 18:19 -0,1 C -2,2 C 63 % 1029,5 hPa 0,0 l/m 17,7 km/h (3 Bft) N-NO 22 0 min 0,0 UV-I 0 W/m -6,3 C -8,6 C 22,5 km/h (4 Bft)
27.02.2023 18:20 -0,1 C -2,2 C 63 % 1029,6 hPa 0,0 l/m 19,3 km/h (3 Bft) N-NO 22 0 min 0,0 UV-I 0 W/m -6,3 C -9,4 C 24,1 km/h (4 Bft)
27.02.2023 18:21 -0,1 C -2,2 C 63 % 1029,5 hPa 0,0 l/m 16,1 km/h (3 Bft) N-NO 22 0 min 0,0 UV-I 0 W/m -6,3 C -7,7 C 19,3 km/h (3 Bft)
27.02.2023 18:22 -0,1 C -2,2 C 63 % 1029,6 hPa 0,0 l/m 17,7 km/h (3 Bft) N-NO 22 0 min 0,0 UV-I 0 W/m -6,3 C -8,6 C 22,5 km/h (4 Bft)
27.02.2023 18:23 -0,1 C -2,2 C 63 % 1029,5 hPa 0,0 l/m 11,3 km/h (2 Bft) N-NO 22 0 min 0,0 UV-I 0 W/m -6,3 C -4,6 C 16,1 km/h (3 Bft)
27.02.2023 18:24 -0,2 C -2,2 C 63 % 1029,5 hPa 0,0 l/m 12,9 km/h (3 Bft) N-NO 22 0 min 0,0 UV-I 0 W/m -6,4 C -5,9 C 20,9 km/h (4 Bft)
27.02.2023 18:25 -0,2 C -2,2 C 63 % 1029,5 hPa 0,0 l/m 16,1 km/h (3 Bft) N-NO 22 0 min 0,0 UV-I 0 W/m -6,4 C -7,9 C 20,9 km/h (4 Bft)
27.02.2023 18:26 -0,2 C -2,2 C 63 % 1029,6 hPa 0,0 l/m 11,3 km/h (2 Bft) N-NO 22 0 min 0,0 UV-I 0 W/m -6,4 C -4,7 C 14,5 km/h (3 Bft)
27.02.2023 18:27 -0,3 C -2,2 C 63 % 1029,6 hPa 0,0 l/m 12,9 km/h (3 Bft) N-NO 22 0 min 0,0 UV-I 0 W/m -6,5 C -6,0 C 16,1 km/h (3 Bft)
27.02.2023 18:28 -0,3 C -2,2 C 64 % 1029,5 hPa 0,0 l/m 12,9 km/h (3 Bft) N-NO 22 0 min 0,0 UV-I 0 W/m -6,3 C -6,0 C 19,3 km/h (3 Bft)
27.02.2023 18:29 -0,4 C -2,2 C 64 % 1029,5 hPa 0,0 l/m 14,5 km/h (3 Bft) N-NO 22 0 min 0,0 UV-I 0 W/m -6,4 C -7,2 C 19,3 km/h (3 Bft)
27.02.2023 18:30 -0,4 C -2,2 C 64 % 1029,5 hPa 0,0 l/m 16,1 km/h (3 Bft) N-NO 22 0 min 0,0 UV-I 0 W/m -6,4 C -8,1 C 19,3 km/h (3 Bft)
27.02.2023 18:31 -0,4 C -2,8 C 64 % 1029,6 hPa 0,0 l/m 14,5 km/h (3 Bft) N-NO 22 0 min 0,0 UV-I 0 W/m -6,4 C -7,2 C 19,3 km/h (3 Bft)
27.02.2023 18:32 -0,4 C -2,8 C 64 % 1029,5 hPa 0,0 l/m 12,9 km/h (3 Bft) N-NO 22 0 min 0,0 UV-I 0 W/m -6,4 C -6,1 C 16,1 km/h (3 Bft)
27.02.2023 18:33 -0,5 C -2,8 C 64 % 1029,6 hPa 0,0 l/m 12,9 km/h (3 Bft) N-NO 22 0 min 0,0 UV-I 0 W/m -6,5 C -6,2 C 16,1 km/h (3 Bft)
27.02.2023 18:34 -0,5 C -2,8 C 64 % 1029,6 hPa 0,0 l/m 14,5 km/h (3 Bft) N-NO 22 0 min 0,0 UV-I 0 W/m -6,5 C -7,3 C 17,7 km/h (3 Bft)
27.02.2023 18:35 -0,6 C -2,8 C 64 % 1029,6 hPa 0,0 l/m 17,7 km/h (3 Bft) N-NO 22 0 min 0,0 UV-I 0 W/m -6,5 C -9,3 C 24,1 km/h (4 Bft)
27.02.2023 18:36 -0,5 C -2,2 C 64 % 1029,6 hPa 0,0 l/m 17,7 km/h (3 Bft) N-NO 22 0 min 0,0 UV-I 0 W/m -6,5 C -9,1 C 22,5 km/h (4 Bft)
27.02.2023 18:37 -0,5 C -2,2 C 64 % 1029,6 hPa 0,0 l/m 14,5 km/h (3 Bft) N-NO 22 0 min 0,0 UV-I 0 W/m -6,5 C -7,3 C 17,7 km/h (3 Bft)
27.02.2023 18:38 -0,5 C -2,2 C 64 % 1029,6 hPa 0,0 l/m 16,1 km/h (3 Bft) N-NO 22 0 min 0,0 UV-I 0 W/m -6,5 C -8,2 C 20,9 km/h (4 Bft)
27.02.2023 18:39 -0,5 C -2,2 C 64 % 1029,6 hPa 0,0 l/m 20,9 km/h (4 Bft) N-NO 22 0 min 0,0 UV-I 0 W/m -6,5 C -10,7 C 24,1 km/h (4 Bft)
27.02.2023 18:40 -0,5 C -2,2 C 64 % 1029,6 hPa 0,0 l/m 14,5 km/h (3 Bft) N-NO 22 0 min 0,0 UV-I 0 W/m -6,5 C -7,3 C 19,3 km/h (3 Bft)
27.02.2023 18:41 -0,5 C -2,2 C 64 % 1029,6 hPa 0,0 l/m 14,5 km/h (3 Bft) N-NO 22 0 min 0,0 UV-I 0 W/m -6,5 C -7,3 C 19,3 km/h (3 Bft)
27.02.2023 18:42 -0,5 C -2,2 C 64 % 1029,6 hPa 0,0 l/m 14,5 km/h (3 Bft) N-NO 22 0 min 0,0 UV-I 0 W/m -6,5 C -7,3 C 22,5 km/h (4 Bft)
27.02.2023 18:43 -0,5 C -2,2 C 64 % 1029,6 hPa 0,0 l/m 20,9 km/h (4 Bft) N-NO 22 0 min 0,0 UV-I 0 W/m -6,5 C -10,7 C 27,4 km/h (4 Bft)
27.02.2023 18:44 -0,4 C -2,2 C 64 % 1029,7 hPa 0,0 l/m 16,1 km/h (3 Bft) N-NO 22 0 min 0,0 UV-I 0 W/m -6,4 C -8,1 C 20,9 km/h (4 Bft)
27.02.2023 18:45 -0,4 C -2,2 C 64 % 1029,6 hPa 0,0 l/m 14,5 km/h (3 Bft) N-NO 22 0 min 0,0 UV-I 0 W/m -6,4 C -7,2 C 19,3 km/h (3 Bft)
27.02.2023 18:46 -0,4 C -2,2 C 64 % 1029,6 hPa 0,0 l/m 17,7 km/h (3 Bft) N-NO 22 0 min 0,0 UV-I 0 W/m -6,4 C -9,0 C 20,9 km/h (4 Bft)
27.02.2023 18:47 -0,4 C -2,2 C 64 % 1029,6 hPa 0,0 l/m 17,7 km/h (3 Bft) N-NO 22 0 min 0,0 UV-I 0 W/m -6,4 C -9,0 C 24,1 km/h (4 Bft)
27.02.2023 18:48 -0,4 C -2,2 C 64 % 1029,7 hPa 0,0 l/m 12,9 km/h (3 Bft) N-NO 22 0 min 0,0 UV-I 0 W/m -6,4 C -6,1 C 16,1 km/h (3 Bft)
27.02.2023 18:49 -0,4 C -2,2 C 64 % 1029,6 hPa 0,0 l/m 14,5 km/h (3 Bft) N-NO 22 0 min 0,0 UV-I 0 W/m -6,4 C -7,2 C 19,3 km/h (3 Bft)
27.02.2023 18:50 -0,5 C -2,2 C 64 % 1029,7 hPa 0,0 l/m 16,1 km/h (3 Bft) N-NO 22 0 min 0,0 UV-I 0 W/m -6,5 C -8,2 C 20,9 km/h (4 Bft)
27.02.2023 18:51 -0,4 C -2,2 C 64 % 1029,7 hPa 0,0 l/m 14,5 km/h (3 Bft) N-NO 22 0 min 0,0 UV-I 0 W/m -6,4 C -7,2 C 17,7 km/h (3 Bft)
27.02.2023 18:52 -0,4 C -2,2 C 64 % 1029,6 hPa 0,0 l/m 14,5 km/h (3 Bft) N-NO 22 0 min 0,0 UV-I 0 W/m -6,4 C -7,2 C 17,7 km/h (3 Bft)
27.02.2023 18:53 -0,5 C -2,2 C 65 % 1029,7 hPa 0,0 l/m 12,9 km/h (3 Bft) N-NO 22 0 min 0,0 UV-I 0 W/m -6,3 C -6,2 C 16,1 km/h (3 Bft)
27.02.2023 18:54 -0,5 C -2,2 C 65 % 1029,7 hPa 0,0 l/m 12,9 km/h (3 Bft) N-NO 22 0 min 0,0 UV-I 0 W/m -6,3 C -6,2 C 17,7 km/h (3 Bft)
27.02.2023 18:55 -0,6 C -2,2 C 65 % 1029,7 hPa 0,0 l/m 12,9 km/h (3 Bft) N-NO 22 0 min 0,0 UV-I 0 W/m -6,3 C -6,3 C 16,1 km/h (3 Bft)
27.02.2023 18:56 -0,6 C -2,8 C 65 % 1029,7 hPa 0,0 l/m 11,3 km/h (2 Bft) N-NO 22 0 min 0,0 UV-I 0 W/m -6,3 C -5,2 C 16,1 km/h (3 Bft)
27.02.2023 18:57 -0,6 C -2,8 C 65 % 1029,8 hPa 0,0 l/m 12,9 km/h (3 Bft) N-NO 22 0 min 0,0 UV-I 0 W/m -6,3 C -6,3 C 19,3 km/h (3 Bft)
27.02.2023 18:58 -0,6 C -2,8 C 65 % 1029,8 hPa 0,0 l/m 12,9 km/h (3 Bft) N-NO 22 0 min 0,0 UV-I 0 W/m -6,3 C -6,3 C 17,7 km/h (3 Bft)
27.02.2023 18:59 -0,6 C -2,2 C 65 % 1029,7 hPa 0,0 l/m 14,5 km/h (3 Bft) NO 45 0 min 0,0 UV-I 0 W/m -6,3 C -7,4 C 20,9 km/h (4 Bft)
27.02.2023 19:00 -0,6 C -2,2 C 65 % 1029,8 hPa 0,0 l/m 19,3 km/h (3 Bft) N-NO 22 0 min 0,0 UV-I 0 W/m -6,3 C -10,1 C 27,4 km/h (4 Bft)
27.02.2023 19:01 -0,6 C -2,2 C 65 % 1029,7 hPa 0,0 l/m 11,3 km/h (2 Bft) NO 45 0 min 0,0 UV-I 0 W/m -6,3 C -5,2 C 17,7 km/h (3 Bft)
27.02.2023 19:02 -0,6 C -2,2 C 65 % 1029,8 hPa 0,0 l/m 14,5 km/h (3 Bft) N-NO 22 0 min 0,0 UV-I 0 W/m -6,3 C -7,4 C 17,7 km/h (3 Bft)
27.02.2023 19:03 -0,6 C -2,2 C 65 % 1029,7 hPa 0,0 l/m 12,9 km/h (3 Bft) N-NO 22 0 min 0,0 UV-I 0 W/m -6,3 C -6,3 C 16,1 km/h (3 Bft)
27.02.2023 19:04 -0,6 C -2,8 C 65 % 1029,8 hPa 0,0 l/m 17,7 km/h (3 Bft) N-NO 22 0 min 0,0 UV-I 0 W/m -6,3 C -9,3 C 22,5 km/h (4 Bft)
27.02.2023 19:05 -0,6 C -2,8 C 65 % 1029,9 hPa 0,0 l/m 19,3 km/h (3 Bft) N-NO 22 0 min 0,0 UV-I 0 W/m -6,3 C -10,1 C 22,5 km/h (4 Bft)
27.02.2023 19:06 -0,6 C -2,8 C 65 % 1029,9 hPa 0,0 l/m 16,1 km/h (3 Bft) N-NO 22 0 min 0,0 UV-I 0 W/m -6,3 C -8,4 C 20,9 km/h (4 Bft)
27.02.2023 19:07 -0,6 C -2,8 C 65 % 1029,7 hPa 0,0 l/m 14,5 km/h (3 Bft) N-NO 22 0 min 0,0 UV-I 0 W/m -6,3 C -7,4 C 25,7 km/h (4 Bft)
27.02.2023 19:08 -0,6 C -2,8 C 65 % 1029,8 hPa 0,0 l/m 19,3 km/h (3 Bft) N-NO 22 0 min 0,0 UV-I 0 W/m -6,3 C -10,1 C 25,7 km/h (4 Bft)
27.02.2023 19:09 -0,6 C -2,2 C 65 % 1029,9 hPa 0,0 l/m 19,3 km/h (3 Bft) NO 45 0 min 0,0 UV-I 0 W/m -6,3 C -10,1 C 24,1 km/h (4 Bft)
27.02.2023 19:10 -0,6 C -2,2 C 65 % 1029,8 hPa 0,0 l/m 17,7 km/h (3 Bft) N-NO 22 0 min 0,0 UV-I 0 W/m -6,3 C -9,3 C 22,5 km/h (4 Bft)
27.02.2023 19:11 -0,6 C -2,2 C 65 % 1029,9 hPa 0,0 l/m 14,5 km/h (3 Bft) N-NO 22 0 min 0,0 UV-I 0 W/m -6,3 C -7,4 C 22,5 km/h (4 Bft)
27.02.2023 19:12 -0,6 C -2,2 C 65 % 1029,9 hPa 0,0 l/m 22,5 km/h (4 Bft) N-NO 22 0 min 0,0 UV-I 0 W/m -6,3 C -11,5 C 25,7 km/h (4 Bft)
27.02.2023 19:13 -0,6 C -2,2 C 65 % 1029,9 hPa 0,0 l/m 16,1 km/h (3 Bft) N-NO 22 0 min 0,0 UV-I 0 W/m -6,3 C -8,4 C 22,5 km/h (4 Bft)
27.02.2023 19:14 -0,6 C -2,2 C 65 % 1029,9 hPa 0,0 l/m 14,5 km/h (3 Bft) N-NO 22 0 min 0,0 UV-I 0 W/m -6,3 C -7,4 C 19,3 km/h (3 Bft)
27.02.2023 19:15 -0,6 C -2,2 C 65 % 1030,0 hPa 0,0 l/m 14,5 km/h (3 Bft) NO 45 0 min 0,0 UV-I 0 W/m -6,3 C -7,4 C 19,3 km/h (3 Bft)
27.02.2023 19:16 -0,6 C -2,2 C 65 % 1029,9 hPa 0,0 l/m 14,5 km/h (3 Bft) N-NO 22 0 min 0,0 UV-I 0 W/m -6,3 C -7,4 C 20,9 km/h (4 Bft)
27.02.2023 19:17 -0,6 C -2,8 C 65 % 1029,9 hPa 0,0 l/m 17,7 km/h (3 Bft) N-NO 22 0 min 0,0 UV-I 0 W/m -6,3 C -9,3 C 22,5 km/h (4 Bft)
27.02.2023 19:18 -0,6 C -2,2 C 65 % 1030,0 hPa 0,0 l/m 17,7 km/h (3 Bft) NO 45 0 min 0,0 UV-I 0 W/m -6,3 C -9,3 C 22,5 km/h (4 Bft)
27.02.2023 19:19 -0,7 C -2,8 C 65 % 1030,0 hPa 0,0 l/m 11,3 km/h (2 Bft) N-NO 22 0 min 0,0 UV-I 0 W/m -6,4 C -5,3 C 16,1 km/h (3 Bft)
27.02.2023 19:20 -0,7 C -2,8 C 65 % 1030,0 hPa 0,0 l/m 11,3 km/h (2 Bft) N-NO 22 0 min 0,0 UV-I 0 W/m -6,4 C -5,3 C 14,5 km/h (3 Bft)
27.02.2023 19:21 -0,7 C -2,8 C 65 % 1030,0 hPa 0,0 l/m 12,9 km/h (3 Bft) N-NO 22 0 min 0,0 UV-I 0 W/m -6,4 C -6,5 C 19,3 km/h (3 Bft)
27.02.2023 19:22 -0,7 C -2,8 C 66 % 1030,1 hPa 0,0 l/m 12,9 km/h (3 Bft) N-NO 22 0 min 0,0 UV-I 0 W/m -6,2 C -6,5 C 17,7 km/h (3 Bft)
27.02.2023 19:23 -0,8 C -2,8 C 66 % 1030,0 hPa 0,0 l/m 9,7 km/h (2 Bft) N-NO 22 0 min 0,0 UV-I 0 W/m -6,3 C -4,1 C 16,1 km/h (3 Bft)
27.02.2023 19:24 -0,8 C -2,2 C 66 % 1030,1 hPa 0,0 l/m 8,0 km/h (2 Bft) N 360 0 min 0,0 UV-I 0 W/m -6,3 C -2,5 C 12,9 km/h (3 Bft)
27.02.2023 19:25 -0,8 C -2,2 C 66 % 1030,0 hPa 0,0 l/m 11,3 km/h (2 Bft) N-NO 22 0 min 0,0 UV-I 0 W/m -6,3 C -5,4 C 12,9 km/h (3 Bft)
27.02.2023 19:26 -0,8 C -2,2 C 66 % 1030,1 hPa 0,0 l/m 14,5 km/h (3 Bft) N-NO 22 0 min 0,0 UV-I 0 W/m -6,3 C -7,6 C 19,3 km/h (3 Bft)
27.02.2023 19:27 -0,8 C -2,2 C 66 % 1030,0 hPa 0,0 l/m 14,5 km/h (3 Bft) N-NO 22 0 min 0,0 UV-I 0 W/m -6,3 C -7,6 C 19,3 km/h (3 Bft)
27.02.2023 19:28 -0,7 C -2,2 C 66 % 1030,1 hPa 0,0 l/m 11,3 km/h (2 Bft) N-NO 22 0 min 0,0 UV-I 0 W/m -6,2 C -5,3 C 17,7 km/h (3 Bft)
27.02.2023 19:29 -0,7 C -2,2 C 66 % 1030,0 hPa 0,0 l/m 8,0 km/h (2 Bft) N-NO 22 0 min 0,0 UV-I 0 W/m -6,2 C -2,4 C 12,9 km/h (3 Bft)
27.02.2023 19:30 -0,7 C -2,2 C 66 % 1030,0 hPa 0,0 l/m 11,3 km/h (2 Bft) N-NO 22 0 min 0,0 UV-I 0 W/m -6,2 C -5,3 C 19,3 km/h (3 Bft)
27.02.2023 19:31 -0,7 C -2,2 C 66 % 1030,1 hPa 0,0 l/m 9,7 km/h (2 Bft) N-NO 22 0 min 0,0 UV-I 0 W/m -6,2 C -4,0 C 16,1 km/h (3 Bft)
27.02.2023 19:32 -0,7 C -2,2 C 66 % 1030,1 hPa 0,0 l/m 11,3 km/h (2 Bft) N-NO 22 0 min 0,0 UV-I 0 W/m -6,2 C -5,3 C 16,1 km/h (3 Bft)
27.02.2023 19:33 -0,7 C -2,2 C 66 % 1030,2 hPa 0,0 l/m 11,3 km/h (2 Bft) N-NO 22 0 min 0,0 UV-I 0 W/m -6,2 C -5,3 C 16,1 km/h (3 Bft)
27.02.2023 19:34 -0,7 C -1,7 C 66 % 1030,1 hPa 0,0 l/m 8,0 km/h (2 Bft) N-NO 22 0 min 0,0 UV-I 0 W/m -6,2 C -2,4 C 16,1 km/h (3 Bft)
27.02.2023 19:35 -0,6 C -1,7 C 66 % 1030,0 hPa 0,0 l/m 8,0 km/h (2 Bft) N-NO 22 0 min 0,0 UV-I 0 W/m -6,1 C -2,3 C 14,5 km/h (3 Bft)
27.02.2023 19:36 -0,7 C -1,7 C 66 % 1030,1 hPa 0,0 l/m 12,9 km/h (3 Bft) N-NO 22 0 min 0,0 UV-I 0 W/m -6,2 C -6,5 C 17,7 km/h (3 Bft)
27.02.2023 19:37 -0,6 C -1,7 C 66 % 1030,1 hPa 0,0 l/m 16,1 km/h (3 Bft) N-NO 22 0 min 0,0 UV-I 0 W/m -6,1 C -8,4 C 19,3 km/h (3 Bft)
27.02.2023 19:38 -0,6 C -1,7 C 66 % 1030,1 hPa 0,0 l/m 12,9 km/h (3 Bft) N-NO 22 0 min 0,0 UV-I 0 W/m -6,1 C -6,3 C 16,1 km/h (3 Bft)
27.02.2023 19:39 -0,6 C -1,7 C 66 % 1030,0 hPa 0,0 l/m 11,3 km/h (2 Bft) N-NO 22 0 min 0,0 UV-I 0 W/m -6,1 C -5,2 C 14,5 km/h (3 Bft)
27.02.2023 19:40 -0,6 C -1,7 C 66 % 1030,1 hPa 0,0 l/m 9,7 km/h (2 Bft) N-NO 22 0 min 0,0 UV-I 0 W/m -6,1 C -3,9 C 14,5 km/h (3 Bft)
27.02.2023 19:41 -0,6 C -1,7 C 66 % 1030,1 hPa 0,0 l/m 14,5 km/h (3 Bft) N-NO 22 0 min 0,0 UV-I 0 W/m -6,1 C -7,4 C 17,7 km/h (3 Bft)
27.02.2023 19:42 -0,6 C -1,7 C 66 % 1030,1 hPa 0,0 l/m 17,7 km/h (3 Bft) N-NO 22 0 min 0,0 UV-I 0 W/m -6,1 C -9,3 C 19,3 km/h (3 Bft)
27.02.2023 19:43 -0,6 C -1,7 C 66 % 1030,1 hPa 0,0 l/m 14,5 km/h (3 Bft) N-NO 22 0 min 0,0 UV-I 0 W/m -6,1 C -7,4 C 20,9 km/h (4 Bft)
27.02.2023 19:44 -0,6 C -1,7 C 66 % 1030,1 hPa 0,0 l/m 14,5 km/h (3 Bft) N-NO 22 0 min 0,0 UV-I 0 W/m -6,1 C -7,4 C 17,7 km/h (3 Bft)
27.02.2023 19:45 -0,6 C -1,7 C 66 % 1030,1 hPa 0,0 l/m 11,3 km/h (2 Bft) N-NO 22 0 min 0,0 UV-I 0 W/m -6,1 C -5,2 C 16,1 km/h (3 Bft)
27.02.2023 19:46 -0,6 C -1,7 C 66 % 1030,1 hPa 0,0 l/m 14,5 km/h (3 Bft) N-NO 22 0 min 0,0 UV-I 0 W/m -6,1 C -7,4 C 17,7 km/h (3 Bft)
27.02.2023 19:47 -0,6 C -1,7 C 66 % 1030,1 hPa 0,0 l/m 9,7 km/h (2 Bft) N-NO 22 0 min 0,0 UV-I 0 W/m -6,1 C -3,9 C 14,5 km/h (3 Bft)
27.02.2023 19:48 -0,6 C -1,7 C 67 % 1030,1 hPa 0,0 l/m 12,9 km/h (3 Bft) N-NO 22 0 min 0,0 UV-I 0 W/m -6,0 C -6,3 C 16,1 km/h (3 Bft)
27.02.2023 19:49 -0,6 C -1,7 C 67 % 1030,1 hPa 0,0 l/m 11,3 km/h (2 Bft) N-NO 22 0 min 0,0 UV-I 0 W/m -6,0 C -5,2 C 17,7 km/h (3 Bft)
27.02.2023 19:50 -0,6 C -1,7 C 67 % 1030,1 hPa 0,0 l/m 14,5 km/h (3 Bft) N-NO 22 0 min 0,0 UV-I 0 W/m -6,0 C -7,4 C 17,7 km/h (3 Bft)
27.02.2023 19:51 -0,6 C -1,1 C 66 % 1030,0 hPa 0,0 l/m 12,9 km/h (3 Bft) N-NO 22 0 min 0,0 UV-I 0 W/m -6,1 C -6,3 C 17,7 km/h (3 Bft)
27.02.2023 19:52 -0,6 C -1,7 C 67 % 1030,0 hPa 0,0 l/m 14,5 km/h (3 Bft) N-NO 22 0 min 0,0 UV-I 0 W/m -6,0 C -7,4 C 17,7 km/h (3 Bft)
27.02.2023 19:53 -0,6 C -1,1 C 67 % 1030,0 hPa 0,0 l/m 11,3 km/h (2 Bft) N-NO 22 0 min 0,0 UV-I 0 W/m -6,0 C -5,2 C 12,9 km/h (3 Bft)
27.02.2023 19:54 -0,6 C -1,1 C 67 % 1030,0 hPa 0,0 l/m 8,0 km/h (2 Bft) N-NO 22 0 min 0,0 UV-I 0 W/m -6,0 C -2,3 C 11,3 km/h (2 Bft)
27.02.2023 19:55 -0,6 C -1,1 C 67 % 1030,0 hPa 0,0 l/m 12,9 km/h (3 Bft) N-NO 22 0 min 0,0 UV-I 0 W/m -6,0 C -6,3 C 16,1 km/h (3 Bft)
27.02.2023 19:56 -0,6 C -1,1 C 67 % 1030,1 hPa 0,0 l/m 12,9 km/h (3 Bft) N-NO 22 0 min 0,0 UV-I 0 W/m -6,0 C -6,3 C 16,1 km/h (3 Bft)
27.02.2023 19:57 -0,6 C -1,1 C 67 % 1030,1 hPa 0,0 l/m 11,3 km/h (2 Bft) N-NO 22 0 min 0,0 UV-I 0 W/m -6,0 C -5,2 C 16,1 km/h (3 Bft)
27.02.2023 19:58 -0,6 C -1,1 C 67 % 1030,0 hPa 0,0 l/m 11,3 km/h (2 Bft) N-NO 22 0 min 0,0 UV-I 0 W/m -6,0 C -5,2 C 16,1 km/h (3 Bft)
27.02.2023 19:59 -0,6 C -1,1 C 67 % 1030,1 hPa 0,0 l/m 9,7 km/h (2 Bft) N-NO 22 0 min 0,0 UV-I 0 W/m -6,0 C -3,9 C 12,9 km/h (3 Bft)
27.02.2023 20:00 -0,6 C -1,1 C 68 % 1030,1 hPa 0,0 l/m 14,5 km/h (3 Bft) N-NO 22 0 min 0,0 UV-I 0 W/m -5,8 C -7,4 C 20,9 km/h (4 Bft)
27.02.2023 20:01 -0,6 C -1,1 C 68 % 1030,0 hPa 0,0 l/m 14,5 km/h (3 Bft) N-NO 22 0 min 0,0 UV-I 0 W/m -5,8 C -7,4 C 17,7 km/h (3 Bft)
27.02.2023 20:02 -0,6 C -1,1 C 67 % 1030,0 hPa 0,0 l/m 11,3 km/h (2 Bft) N-NO 22 0 min 0,0 UV-I 0 W/m -6,0 C -5,2 C 16,1 km/h (3 Bft)
27.02.2023 20:03 -0,6 C -1,1 C 67 % 1030,0 hPa 0,0 l/m 9,7 km/h (2 Bft) N 360 0 min 0,0 UV-I 0 W/m -6,0 C -3,9 C 12,9 km/h (3 Bft)
27.02.2023 20:04 -0,6 C -1,1 C 68 % 1030,1 hPa 0,0 l/m 9,7 km/h (2 Bft) N-NO 22 0 min 0,0 UV-I 0 W/m -5,8 C -3,9 C 14,5 km/h (3 Bft)
27.02.2023 20:05 -0,6 C -1,1 C 68 % 1030,0 hPa 0,0 l/m 12,9 km/h (3 Bft) N-NO 22 0 min 0,0 UV-I 0 W/m -5,8 C -6,3 C 19,3 km/h (3 Bft)
27.02.2023 20:06 -0,6 C -1,1 C 68 % 1030,0 hPa 0,0 l/m 12,9 km/h (3 Bft) N-NO 22 0 min 0,0 UV-I 0 W/m -5,8 C -6,3 C 20,9 km/h (4 Bft)
27.02.2023 20:07 -0,6 C -1,1 C 68 % 1030,1 hPa 0,0 l/m 8,0 km/h (2 Bft) NO 45 0 min 0,0 UV-I 0 W/m -5,8 C -2,3 C 12,9 km/h (3 Bft)
27.02.2023 20:08 -0,5 C -1,1 C 68 % 1030,0 hPa 0,0 l/m 9,7 km/h (2 Bft) N-NO 22 0 min 0,0 UV-I 0 W/m -5,7 C -3,7 C 14,5 km/h (3 Bft)
27.02.2023 20:09 -0,6 C -1,1 C 68 % 1030,0 hPa 0,0 l/m 9,7 km/h (2 Bft) N-NO 22 0 min 0,0 UV-I 0 W/m -5,8 C -3,9 C 14,5 km/h (3 Bft)
27.02.2023 20:10 -0,5 C -1,1 C 68 % 1030,1 hPa 0,0 l/m 14,5 km/h (3 Bft) NO 45 0 min 0,0 UV-I 0 W/m -5,7 C -7,3 C 22,5 km/h (4 Bft)
27.02.2023 20:11 -0,5 C -1,1 C 67 % 1030,1 hPa 0,0 l/m 12,9 km/h (3 Bft) N-NO 22 0 min 0,0 UV-I 0 W/m -5,9 C -6,2 C 20,9 km/h (4 Bft)
27.02.2023 20:12 -0,5 C -1,1 C 67 % 1030,1 hPa 0,0 l/m 17,7 km/h (3 Bft) NO 45 0 min 0,0 UV-I 0 W/m -5,9 C -9,1 C 25,7 km/h (4 Bft)
27.02.2023 20:13 -0,5 C -1,1 C 67 % 1030,1 hPa 0,0 l/m 12,9 km/h (3 Bft) N-NO 22 0 min 0,0 UV-I 0 W/m -5,9 C -6,2 C 17,7 km/h (3 Bft)
27.02.2023 20:14 -0,5 C -1,1 C 67 % 1030,1 hPa 0,0 l/m 19,3 km/h (3 Bft) N-NO 22 0 min 0,0 UV-I 0 W/m -5,9 C -9,9 C 24,1 km/h (4 Bft)
27.02.2023 20:15 -0,5 C -1,1 C 67 % 1030,1 hPa 0,0 l/m 14,5 km/h (3 Bft) N-NO 22 0 min 0,0 UV-I 0 W/m -5,9 C -7,3 C 20,9 km/h (4 Bft)
27.02.2023 20:16 -0,4 C -1,1 C 67 % 1030,0 hPa 0,0 l/m 12,9 km/h (3 Bft) N-NO 22 0 min 0,0 UV-I 0 W/m -5,8 C -6,1 C 16,1 km/h (3 Bft)
27.02.2023 20:17 -0,5 C -1,7 C 67 % 1030,1 hPa 0,0 l/m 11,3 km/h (2 Bft) N-NO 22 0 min 0,0 UV-I 0 W/m -5,9 C -5,1 C 16,1 km/h (3 Bft)
27.02.2023 20:18 -0,5 C -1,7 C 67 % 1030,1 hPa 0,0 l/m 11,3 km/h (2 Bft) N-NO 22 0 min 0,0 UV-I 0 W/m -5,9 C -5,1 C 14,5 km/h (3 Bft)
27.02.2023 20:19 -0,5 C -1,7 C 67 % 1030,0 hPa 0,0 l/m 14,5 km/h (3 Bft) N-NO 22 0 min 0,0 UV-I 0 W/m -5,9 C -7,3 C 17,7 km/h (3 Bft)
27.02.2023 20:20 -0,5 C -1,7 C 68 % 1030,1 hPa 0,0 l/m 12,9 km/h (3 Bft) N-NO 22 0 min 0,0 UV-I 0 W/m -5,7 C -6,2 C 17,7 km/h (3 Bft)
27.02.2023 20:21 -0,5 C -1,7 C 67 % 1030,0 hPa 0,0 l/m 12,9 km/h (3 Bft) N-NO 22 0 min 0,0 UV-I 0 W/m -5,9 C -6,2 C 16,1 km/h (3 Bft)
27.02.2023 20:22 -0,5 C -1,7 C 67 % 1030,0 hPa 0,0 l/m 11,3 km/h (2 Bft) N-NO 22 0 min 0,0 UV-I 0 W/m -5,9 C -5,1 C 14,5 km/h (3 Bft)
27.02.2023 20:23 -0,6 C -1,7 C 68 % 1030,0 hPa 0,0 l/m 11,3 km/h (2 Bft) N-NO 22 0 min 0,0 UV-I 0 W/m -5,8 C -5,2 C 14,5 km/h (3 Bft)
27.02.2023 20:24 -0,6 C -1,7 C 68 % 1030,1 hPa 0,0 l/m 12,9 km/h (3 Bft) N-NO 22 0 min 0,0 UV-I 0 W/m -5,8 C -6,3 C 22,5 km/h (4 Bft)
27.02.2023 20:25 -0,6 C -1,7 C 68 % 1030,1 hPa 0,0 l/m 17,7 km/h (3 Bft) N-NO 22 0 min 0,0 UV-I 0 W/m -5,8 C -9,3 C 24,1 km/h (4 Bft)
27.02.2023 20:26 -0,6 C -1,1 C 68 % 1029,9 hPa 0,0 l/m 17,7 km/h (3 Bft) N-NO 22 0 min 0,0 UV-I 0 W/m -5,8 C -9,3 C 24,1 km/h (4 Bft)
27.02.2023 20:27 -0,5 C -1,1 C 67 % 1030,0 hPa 0,0 l/m 17,7 km/h (3 Bft) N-NO 22 0 min 0,0 UV-I 0 W/m -5,9 C -9,1 C 22,5 km/h (4 Bft)
27.02.2023 20:28 -0,5 C -1,1 C 67 % 1030,0 hPa 0,0 l/m 16,1 km/h (3 Bft) N-NO 22 0 min 0,0 UV-I 0 W/m -5,9 C -8,2 C 19,3 km/h (3 Bft)
27.02.2023 20:29 -0,5 C -1,1 C 67 % 1030,0 hPa 0,0 l/m 14,5 km/h (3 Bft) N-NO 22 0 min 0,0 UV-I 0 W/m -5,9 C -7,3 C 16,1 km/h (3 Bft)
27.02.2023 20:30 -0,5 C -1,1 C 67 % 1029,9 hPa 0,0 l/m 9,7 km/h (2 Bft) N-NO 22 0 min 0,0 UV-I 0 W/m -5,9 C -3,7 C 14,5 km/h (3 Bft)
27.02.2023 20:31 -0,5 C -1,7 C 68 % 1030,0 hPa 0,0 l/m 11,3 km/h (2 Bft) N-NO 22 0 min 0,0 UV-I 0 W/m -5,7 C -5,1 C 16,1 km/h (3 Bft)
27.02.2023 20:32 -0,5 C -1,7 C 68 % 1030,0 hPa 0,0 l/m 16,1 km/h (3 Bft) N-NO 22 0 min 0,0 UV-I 0 W/m -5,7 C -8,2 C 22,5 km/h (4 Bft)
27.02.2023 20:33 -0,6 C -1,1 C 68 % 1030,0 hPa 0,0 l/m 16,1 km/h (3 Bft) N-NO 22 0 min 0,0 UV-I 0 W/m -5,8 C -8,4 C 20,9 km/h (4 Bft)
27.02.2023 20:34 -0,6 C -1,7 C 68 % 1030,0 hPa 0,0 l/m 14,5 km/h (3 Bft) N-NO 22 0 min 0,0 UV-I 0 W/m -5,8 C -7,4 C 17,7 km/h (3 Bft)
27.02.2023 20:35 -0,6 C -1,7 C 67 % 1030,0 hPa 0,0 l/m 12,9 km/h (3 Bft) NO 45 0 min 0,0 UV-I 0 W/m -6,0 C -6,3 C 19,3 km/h (3 Bft)
27.02.2023 20:36 -0,6 C -1,7 C 67 % 1030,0 hPa 0,0 l/m 9,7 km/h (2 Bft) N-NO 22 0 min 0,0 UV-I 0 W/m -6,0 C -3,9 C 12,9 km/h (3 Bft)
27.02.2023 20:37 -0,6 C -1,7 C 68 % 1030,0 hPa 0,0 l/m 9,7 km/h (2 Bft) N-NO 22 0 min 0,0 UV-I 0 W/m -5,8 C -3,9 C 14,5 km/h (3 Bft)
27.02.2023 20:38 -0,6 C -1,7 C 68 % 1030,0 hPa 0,0 l/m 11,3 km/h (2 Bft) N-NO 22 0 min 0,0 UV-I 0 W/m -5,8 C -5,2 C 16,1 km/h (3 Bft)
27.02.2023 20:39 -0,7 C -1,7 C 68 % 1030,0 hPa 0,0 l/m 12,9 km/h (3 Bft) N-NO 22 0 min 0,0 UV-I 0 W/m -5,9 C -6,5 C 22,5 km/h (4 Bft)
27.02.2023 20:40 -0,7 C -1,7 C 68 % 1030,0 hPa 0,0 l/m 12,9 km/h (3 Bft) N-NO 22 0 min 0,0 UV-I 0 W/m -5,9 C -6,5 C 17,7 km/h (3 Bft)
27.02.2023 20:41 -0,7 C -1,7 C 68 % 1029,9 hPa 0,0 l/m 14,5 km/h (3 Bft) N-NO 22 0 min 0,0 UV-I 0 W/m -5,9 C -7,5 C 17,7 km/h (3 Bft)
27.02.2023 20:42 -0,6 C -1,7 C 68 % 1029,9 hPa 0,0 l/m 14,5 km/h (3 Bft) NO 45 0 min 0,0 UV-I 0 W/m -5,8 C -7,4 C 20,9 km/h (4 Bft)
27.02.2023 20:43 -0,6 C -1,7 C 68 % 1029,9 hPa 0,0 l/m 11,3 km/h (2 Bft) N-NO 22 0 min 0,0 UV-I 0 W/m -5,8 C -5,2 C 17,7 km/h (3 Bft)
27.02.2023 20:44 -0,6 C -1,7 C 68 % 1030,0 hPa 0,0 l/m 12,9 km/h (3 Bft) N-NO 22 0 min 0,0 UV-I 0 W/m -5,8 C -6,3 C 16,1 km/h (3 Bft)
27.02.2023 20:45 -0,6 C -1,7 C 68 % 1030,0 hPa 0,0 l/m 17,7 km/h (3 Bft) N-NO 22 0 min 0,0 UV-I 0 W/m -5,8 C -9,3 C 22,5 km/h (4 Bft)
27.02.2023 20:46 -0,6 C -1,7 C 68 % 1029,9 hPa 0,0 l/m 16,1 km/h (3 Bft) N-NO 22 0 min 0,0 UV-I 0 W/m -5,8 C -8,4 C 22,5 km/h (4 Bft)
27.02.2023 20:47 -0,6 C -1,7 C 68 % 1030,0 hPa 0,0 l/m 12,9 km/h (3 Bft) N-NO 22 0 min 0,0 UV-I 0 W/m -5,8 C -6,3 C 17,7 km/h (3 Bft)
27.02.2023 20:48 -0,6 C -1,1 C 68 % 1030,0 hPa 0,0 l/m 14,5 km/h (3 Bft) NO 45 0 min 0,0 UV-I 0 W/m -5,8 C -7,4 C 19,3 km/h (3 Bft)
27.02.2023 20:49 -0,6 C -1,7 C 68 % 1030,0 hPa 0,0 l/m 14,5 km/h (3 Bft) N-NO 22 0 min 0,0 UV-I 0 W/m -5,8 C -7,4 C 22,5 km/h (4 Bft)
27.02.2023 20:50 -0,6 C -1,1 C 68 % 1030,0 hPa 0,0 l/m 17,7 km/h (3 Bft) NO 45 0 min 0,0 UV-I 0 W/m -5,8 C -9,3 C 20,9 km/h (4 Bft)
27.02.2023 20:51 -0,5 C -1,1 C 68 % 1030,0 hPa 0,0 l/m 19,3 km/h (3 Bft) NO 45 0 min 0,0 UV-I 0 W/m -5,7 C -9,9 C 25,7 km/h (4 Bft)
27.02.2023 20:52 -0,5 C -1,1 C 68 % 1030,0 hPa 0,0 l/m 14,5 km/h (3 Bft) NO 45 0 min 0,0 UV-I 0 W/m -5,7 C -7,3 C 20,9 km/h (4 Bft)
27.02.2023 20:53 -0,5 C -1,1 C 68 % 1030,0 hPa 0,0 l/m 16,1 km/h (3 Bft) NO 45 0 min 0,0 UV-I 0 W/m -5,7 C -8,2 C 20,9 km/h (4 Bft)
27.02.2023 20:54 -0,5 C -1,1 C 68 % 1030,0 hPa 0,0 l/m 19,3 km/h (3 Bft) NO 45 0 min 0,0 UV-I 0 W/m -5,7 C -9,9 C 29,0 km/h (5 Bft)
27.02.2023 20:55 -0,5 C -1,1 C 68 % 1030,1 hPa 0,0 l/m 16,1 km/h (3 Bft) NO 45 0 min 0,0 UV-I 0 W/m -5,7 C -8,2 C 19,3 km/h (3 Bft)
27.02.2023 20:56 -0,4 C -1,1 C 68 % 1030,0 hPa 0,0 l/m 17,7 km/h (3 Bft) N-NO 22 0 min 0,0 UV-I 0 W/m -5,6 C -9,0 C 25,7 km/h (4 Bft)
27.02.2023 20:57 -0,5 C -1,1 C 68 % 1030,1 hPa 0,0 l/m 16,1 km/h (3 Bft) N-NO 22 0 min 0,0 UV-I 0 W/m -5,7 C -8,2 C 22,5 km/h (4 Bft)
27.02.2023 20:58 -0,5 C -1,1 C 68 % 1030,1 hPa 0,0 l/m 16,1 km/h (3 Bft) N-NO 22 0 min 0,0 UV-I 0 W/m -5,7 C -8,2 C 22,5 km/h (4 Bft)
27.02.2023 20:59 -0,5 C -1,1 C 68 % 1030,1 hPa 0,0 l/m 17,7 km/h (3 Bft) N-NO 22 0 min 0,0 UV-I 0 W/m -5,7 C -9,1 C 20,9 km/h (4 Bft)
27.02.2023 21:00 -0,5 C -1,1 C 68 % 1030,1 hPa 0,0 l/m 19,3 km/h (3 Bft) NO 45 0 min 0,0 UV-I 0 W/m -5,7 C -9,9 C 25,7 km/h (4 Bft)
27.02.2023 21:01 -0,5 C -1,1 C 68 % 1030,1 hPa 0,0 l/m 16,1 km/h (3 Bft) NO 45 0 min 0,0 UV-I 0 W/m -5,7 C -8,2 C 20,9 km/h (4 Bft)
27.02.2023 21:02 -0,5 C -1,1 C 68 % 1030,1 hPa 0,0 l/m 14,5 km/h (3 Bft) N-NO 22 0 min 0,0 UV-I 0 W/m -5,7 C -7,3 C 19,3 km/h (3 Bft)
27.02.2023 21:03 -0,5 C -1,7 C 68 % 1030,2 hPa 0,0 l/m 20,9 km/h (4 Bft) N-NO 22 0 min 0,0 UV-I 0 W/m -5,7 C -10,7 C 27,4 km/h (4 Bft)
27.02.2023 21:04 -0,6 C -1,7 C 68 % 1030,1 hPa 0,0 l/m 22,5 km/h (4 Bft) N-NO 22 0 min 0,0 UV-I 0 W/m -5,8 C -11,5 C 27,4 km/h (4 Bft)
27.02.2023 21:05 -0,5 C -1,7 C 68 % 1030,1 hPa 0,0 l/m 22,5 km/h (4 Bft) N-NO 22 0 min 0,0 UV-I 0 W/m -5,7 C -11,4 C 27,4 km/h (4 Bft)
27.02.2023 21:06 -0,6 C -1,7 C 68 % 1030,0 hPa 0,0 l/m 16,1 km/h (3 Bft) N-NO 22 0 min 0,0 UV-I 0 W/m -5,8 C -8,4 C 22,5 km/h (4 Bft)
27.02.2023 21:07 -0,6 C -1,7 C 68 % 1030,1 hPa 0,0 l/m 11,3 km/h (2 Bft) NO 45 0 min 0,0 UV-I 0 W/m -5,8 C -5,2 C 16,1 km/h (3 Bft)
27.02.2023 21:08 -0,7 C -2,2 C 68 % 1030,1 hPa 0,0 l/m 12,9 km/h (3 Bft) NO 45 0 min 0,0 UV-I 0 W/m -5,9 C -6,5 C 17,7 km/h (3 Bft)
27.02.2023 21:09 -0,7 C -2,2 C 68 % 1030,1 hPa 0,0 l/m 14,5 km/h (3 Bft) N-NO 22 0 min 0,0 UV-I 0 W/m -5,9 C -7,5 C 20,9 km/h (4 Bft)
27.02.2023 21:10 -0,7 C -2,2 C 68 % 1030,1 hPa 0,0 l/m 16,1 km/h (3 Bft) NO 45 0 min 0,0 UV-I 0 W/m -5,9 C -8,5 C 22,5 km/h (4 Bft)
27.02.2023 21:11 -0,8 C -2,2 C 69 % 1030,2 hPa 0,0 l/m 16,1 km/h (3 Bft) NO 45 0 min 0,0 UV-I 0 W/m -5,8 C -8,6 C 22,5 km/h (4 Bft)
27.02.2023 21:12 -0,8 C -2,2 C 69 % 1030,1 hPa 0,0 l/m 17,7 km/h (3 Bft) NO 45 0 min 0,0 UV-I 0 W/m -5,8 C -9,5 C 24,1 km/h (4 Bft)
27.02.2023 21:13 -0,8 C -2,2 C 69 % 1030,3 hPa 0,0 l/m 14,5 km/h (3 Bft) N-NO 22 0 min 0,0 UV-I 0 W/m -5,8 C -7,6 C 19,3 km/h (3 Bft)
27.02.2023 21:14 -0,8 C -2,2 C 69 % 1030,2 hPa 0,0 l/m 16,1 km/h (3 Bft) N-NO 22 0 min 0,0 UV-I 0 W/m -5,8 C -8,6 C 20,9 km/h (4 Bft)
27.02.2023 21:15 -0,9 C -2,8 C 69 % 1030,2 hPa 0,0 l/m 19,3 km/h (3 Bft) N-NO 22 0 min 0,0 UV-I 0 W/m -5,9 C -10,5 C 25,7 km/h (4 Bft)
27.02.2023 21:16 -0,9 C -2,8 C 69 % 1030,2 hPa 0,0 l/m 16,1 km/h (3 Bft) N-NO 22 0 min 0,0 UV-I 0 W/m -5,9 C -8,7 C 22,5 km/h (4 Bft)
27.02.2023 21:17 -1,0 C -2,8 C 69 % 1030,2 hPa 0,0 l/m 14,5 km/h (3 Bft) N-NO 22 0 min 0,0 UV-I 0 W/m -5,9 C -7,9 C 19,3 km/h (3 Bft)
27.02.2023 21:18 -1,0 C -2,8 C 69 % 1030,3 hPa 0,0 l/m 17,7 km/h (3 Bft) NO 45 0 min 0,0 UV-I 0 W/m -5,9 C -9,8 C 22,5 km/h (4 Bft)
27.02.2023 21:19 -1,1 C -2,8 C 69 % 1030,3 hPa 0,0 l/m 17,7 km/h (3 Bft) N-NO 22 0 min 0,0 UV-I 0 W/m -6,0 C -9,9 C 20,9 km/h (4 Bft)
27.02.2023 21:20 -1,1 C -2,8 C 69 % 1030,3 hPa 0,0 l/m 12,9 km/h (3 Bft) N-NO 22 0 min 0,0 UV-I 0 W/m -6,0 C -6,9 C 16,1 km/h (3 Bft)
27.02.2023 21:21 -1,1 C -2,8 C 70 % 1030,2 hPa 0,0 l/m 11,3 km/h (2 Bft) N-NO 22 0 min 0,0 UV-I 0 W/m -5,9 C -5,7 C 14,5 km/h (3 Bft)
27.02.2023 21:22 -1,2 C -2,8 C 70 % 1030,2 hPa 0,0 l/m 19,3 km/h (3 Bft) N-NO 22 0 min 0,0 UV-I 0 W/m -6,0 C -10,8 C 24,1 km/h (4 Bft)
27.02.2023 21:23 -1,2 C -2,8 C 70 % 1030,2 hPa 0,0 l/m 14,5 km/h (3 Bft) NO 45 0 min 0,0 UV-I 0 W/m -6,0 C -8,1 C 19,3 km/h (3 Bft)
27.02.2023 21:24 -1,2 C -2,8 C 70 % 1030,2 hPa 0,0 l/m 14,5 km/h (3 Bft) NO 45 0 min 0,0 UV-I 0 W/m -6,0 C -8,1 C 19,3 km/h (3 Bft)
27.02.2023 21:25 -1,2 C -2,8 C 70 % 1030,3 hPa 0,0 l/m 17,7 km/h (3 Bft) N-NO 22 0 min 0,0 UV-I 0 W/m -6,0 C -10,0 C 20,9 km/h (4 Bft)
27.02.2023 21:26 -1,2 C -2,8 C 70 % 1030,3 hPa 0,0 l/m 12,9 km/h (3 Bft) N-NO 22 0 min 0,0 UV-I 0 W/m -6,0 C -7,0 C 16,1 km/h (3 Bft)
27.02.2023 21:27 -1,2 C -2,8 C 70 % 1030,2 hPa 0,0 l/m 12,9 km/h (3 Bft) NO 45 0 min 0,0 UV-I 0 W/m -6,0 C -7,0 C 16,1 km/h (3 Bft)
27.02.2023 21:28 -1,3 C -2,8 C 70 % 1030,3 hPa 0,0 l/m 11,3 km/h (2 Bft) N-NO 22 0 min 0,0 UV-I 0 W/m -6,0 C -6,0 C 16,1 km/h (3 Bft)
27.02.2023 21:29 -1,3 C -2,8 C 70 % 1030,2 hPa 0,0 l/m 12,9 km/h (3 Bft) N-NO 22 0 min 0,0 UV-I 0 W/m -6,0 C -7,2 C 19,3 km/h (3 Bft)
27.02.2023 21:30 -1,3 C -3,3 C 70 % 1030,3 hPa 0,0 l/m 14,5 km/h (3 Bft) N-NO 22 0 min 0,0 UV-I 0 W/m -6,0 C -8,2 C 20,9 km/h (4 Bft)
27.02.2023 21:31 -1,4 C -3,3 C 70 % 1030,3 hPa 0,0 l/m 14,5 km/h (3 Bft) N-NO 22 0 min 0,0 UV-I 0 W/m -6,1 C -8,4 C 19,3 km/h (3 Bft)
27.02.2023 21:32 -1,4 C -3,3 C 70 % 1030,2 hPa 0,0 l/m 12,9 km/h (3 Bft) N-NO 22 0 min 0,0 UV-I 0 W/m -6,1 C -7,3 C 19,3 km/h (3 Bft)
27.02.2023 21:33 -1,4 C -3,3 C 71 % 1030,2 hPa 0,0 l/m 14,5 km/h (3 Bft) N-NO 22 0 min 0,0 UV-I 0 W/m -6,0 C -8,4 C 20,9 km/h (4 Bft)
27.02.2023 21:34 -1,4 C -3,3 C 71 % 1030,3 hPa 0,0 l/m 16,1 km/h (3 Bft) N-NO 22 0 min 0,0 UV-I 0 W/m -6,0 C -9,3 C 20,9 km/h (4 Bft)
27.02.2023 21:35 -1,5 C -3,3 C 71 % 1030,2 hPa 0,0 l/m 12,9 km/h (3 Bft) NO 45 0 min 0,0 UV-I 0 W/m -6,1 C -7,4 C 17,7 km/h (3 Bft)
27.02.2023 21:36 -1,5 C -3,3 C 71 % 1030,3 hPa 0,0 l/m 16,1 km/h (3 Bft) N-NO 22 0 min 0,0 UV-I 0 W/m -6,1 C -9,5 C 22,5 km/h (4 Bft)
27.02.2023 21:37 -1,5 C -3,3 C 71 % 1030,2 hPa 0,0 l/m 17,7 km/h (3 Bft) N-NO 22 0 min 0,0 UV-I 0 W/m -6,1 C -10,4 C 20,9 km/h (4 Bft)
27.02.2023 21:38 -1,5 C -3,3 C 71 % 1030,2 hPa 0,0 l/m 16,1 km/h (3 Bft) NO 45 0 min 0,0 UV-I 0 W/m -6,1 C -9,5 C 19,3 km/h (3 Bft)
27.02.2023 21:39 -1,5 C -3,3 C 71 % 1030,2 hPa 0,0 l/m 14,5 km/h (3 Bft) N-NO 22 0 min 0,0 UV-I 0 W/m -6,1 C -8,5 C 20,9 km/h (4 Bft)
27.02.2023 21:40 -1,6 C -3,3 C 71 % 1030,2 hPa 0,0 l/m 16,1 km/h (3 Bft) N-NO 22 0 min 0,0 UV-I 0 W/m -6,2 C -9,6 C 20,9 km/h (4 Bft)
27.02.2023 21:41 -1,6 C -3,3 C 71 % 1030,2 hPa 0,0 l/m 14,5 km/h (3 Bft) N-NO 22 0 min 0,0 UV-I 0 W/m -6,2 C -8,6 C 19,3 km/h (3 Bft)
27.02.2023 21:42 -1,6 C -3,3 C 71 % 1030,2 hPa 0,0 l/m 12,9 km/h (3 Bft) N-NO 22 0 min 0,0 UV-I 0 W/m -6,2 C -7,5 C 17,7 km/h (3 Bft)
27.02.2023 21:43 -1,6 C -3,3 C 71 % 1030,3 hPa 0,0 l/m 16,1 km/h (3 Bft) N-NO 22 0 min 0,0 UV-I 0 W/m -6,2 C -9,6 C 19,3 km/h (3 Bft)
27.02.2023 21:44 -1,6 C -3,3 C 71 % 1030,2 hPa 0,0 l/m 12,9 km/h (3 Bft) NO 45 0 min 0,0 UV-I 0 W/m -6,2 C -7,5 C 17,7 km/h (3 Bft)
27.02.2023 21:45 -1,6 C -3,3 C 72 % 1030,3 hPa 0,0 l/m 11,3 km/h (2 Bft) N-NO 22 0 min 0,0 UV-I 0 W/m -6,0 C -6,3 C 16,1 km/h (3 Bft)
27.02.2023 21:46 -1,7 C -3,3 C 72 % 1030,2 hPa 0,0 l/m 9,7 km/h (2 Bft) N-NO 22 0 min 0,0 UV-I 0 W/m -6,1 C -5,1 C 14,5 km/h (3 Bft)
27.02.2023 21:47 -1,7 C -3,3 C 72 % 1030,3 hPa 0,0 l/m 11,3 km/h (2 Bft) NO 45 0 min 0,0 UV-I 0 W/m -6,1 C -6,4 C 14,5 km/h (3 Bft)
27.02.2023 21:48 -1,7 C -3,3 C 72 % 1030,3 hPa 0,0 l/m 12,9 km/h (3 Bft) N-NO 22 0 min 0,0 UV-I 0 W/m -6,1 C -7,6 C 16,1 km/h (3 Bft)
27.02.2023 21:49 -1,8 C -3,3 C 72 % 1030,2 hPa 0,0 l/m 14,5 km/h (3 Bft) N-NO 22 0 min 0,0 UV-I 0 W/m -6,2 C -8,8 C 17,7 km/h (3 Bft)
27.02.2023 21:50 -1,8 C -3,3 C 72 % 1030,3 hPa 0,0 l/m 12,9 km/h (3 Bft) N-NO 22 0 min 0,0 UV-I 0 W/m -6,2 C -7,7 C 16,1 km/h (3 Bft)
27.02.2023 21:51 -1,8 C -3,3 C 72 % 1030,2 hPa 0,0 l/m 9,7 km/h (2 Bft) N-NO 22 0 min 0,0 UV-I 0 W/m -6,2 C -5,2 C 17,7 km/h (3 Bft)
27.02.2023 21:52 -1,8 C -3,3 C 72 % 1030,2 hPa 0,0 l/m 12,9 km/h (3 Bft) N-NO 22 0 min 0,0 UV-I 0 W/m -6,2 C -7,7 C 17,7 km/h (3 Bft)
27.02.2023 21:53 -1,8 C -3,3 C 72 % 1030,3 hPa 0,0 l/m 11,3 km/h (2 Bft) NO 45 0 min 0,0 UV-I 0 W/m -6,2 C -6,5 C 16,1 km/h (3 Bft)
27.02.2023 21:54 -1,8 C -3,3 C 72 % 1030,1 hPa 0,0 l/m 9,7 km/h (2 Bft) N-NO 22 0 min 0,0 UV-I 0 W/m -6,2 C -5,2 C 12,9 km/h (3 Bft)
27.02.2023 21:55 -1,7 C -3,3 C 72 % 1030,3 hPa 0,0 l/m 8,0 km/h (2 Bft) N-NO 22 0 min 0,0 UV-I 0 W/m -6,1 C -3,4 C 12,9 km/h (3 Bft)
27.02.2023 21:56 -1,8 C -3,3 C 73 % 1030,2 hPa 0,0 l/m 14,5 km/h (3 Bft) N-NO 22 0 min 0,0 UV-I 0 W/m -6,0 C -8,8 C 20,9 km/h (4 Bft)
27.02.2023 21:57 -1,8 C -2,8 C 73 % 1030,2 hPa 0,0 l/m 8,0 km/h (2 Bft) N-NO 22 0 min 0,0 UV-I 0 W/m -6,0 C -3,5 C 12,9 km/h (3 Bft)
27.02.2023 21:58 -1,8 C -2,8 C 73 % 1030,3 hPa 0,0 l/m 11,3 km/h (2 Bft) N-NO 22 0 min 0,0 UV-I 0 W/m -6,0 C -6,5 C 16,1 km/h (3 Bft)
27.02.2023 21:59 -1,7 C -2,8 C 73 % 1030,3 hPa 0,0 l/m 8,0 km/h (2 Bft) N-NO 22 0 min 0,0 UV-I 0 W/m -5,9 C -3,4 C 12,9 km/h (3 Bft)
27.02.2023 22:00 -1,7 C -2,8 C 73 % 1030,2 hPa 0,0 l/m 9,7 km/h (2 Bft) N-NO 22 0 min 0,0 UV-I 0 W/m -5,9 C -5,1 C 12,9 km/h (3 Bft)
27.02.2023 22:01 -1,7 C -2,8 C 73 % 1030,1 hPa 0,0 l/m 6,4 km/h (2 Bft) N-NO 22 0 min 0,0 UV-I 0 W/m -5,9 C -1,7 C 8,0 km/h (2 Bft)
27.02.2023 22:02 -1,7 C -2,8 C 73 % 1030,1 hPa 0,0 l/m 6,4 km/h (2 Bft) N-NO 22 0 min 0,0 UV-I 0 W/m -5,9 C -1,7 C 8,0 km/h (2 Bft)
27.02.2023 22:03 -1,7 C -2,8 C 73 % 1030,1 hPa 0,0 l/m 4,8 km/h (1 Bft) N-NO 22 0 min 0,0 UV-I 0 W/m -5,9 C -1,7 C 8,0 km/h (2 Bft)
27.02.2023 22:04 -1,7 C -2,8 C 73 % 1030,2 hPa 0,0 l/m 4,8 km/h (1 Bft) N-NO 22 0 min 0,0 UV-I 0 W/m -5,9 C -1,7 C 8,0 km/h (2 Bft)
27.02.2023 22:05 -1,7 C -2,8 C 73 % 1030,2 hPa 0,0 l/m 6,4 km/h (2 Bft) NO 45 0 min 0,0 UV-I 0 W/m -5,9 C -1,7 C 14,5 km/h (3 Bft)
27.02.2023 22:06 -1,6 C -2,8 C 73 % 1030,2 hPa 0,0 l/m 8,0 km/h (2 Bft) NO 45 0 min 0,0 UV-I 0 W/m -5,8 C -3,3 C 12,9 km/h (3 Bft)
27.02.2023 22:07 -1,6 C -2,2 C 73 % 1030,2 hPa 0,0 l/m 9,7 km/h (2 Bft) NO 45 0 min 0,0 UV-I 0 W/m -5,8 C -5,0 C 14,5 km/h (3 Bft)
27.02.2023 22:08 -1,6 C -2,2 C 73 % 1030,1 hPa 0,0 l/m 8,0 km/h (2 Bft) NO 45 0 min 0,0 UV-I 0 W/m -5,8 C -3,3 C 9,7 km/h (2 Bft)
27.02.2023 22:09 -1,6 C -2,2 C 72 % 1030,2 hPa 0,0 l/m 6,4 km/h (2 Bft) N-NO 22 0 min 0,0 UV-I 0 W/m -6,0 C -1,6 C 8,0 km/h (2 Bft)
27.02.2023 22:10 -1,6 C -2,2 C 72 % 1030,2 hPa 0,0 l/m 6,4 km/h (2 Bft) N-NO 22 0 min 0,0 UV-I 0 W/m -6,0 C -1,6 C 9,7 km/h (2 Bft)
27.02.2023 22:11 -1,6 C -2,2 C 72 % 1030,2 hPa 0,0 l/m 6,4 km/h (2 Bft) N-NO 22 0 min 0,0 UV-I 0 W/m -6,0 C -1,6 C 11,3 km/h (2 Bft)
27.02.2023 22:12 -1,6 C -2,2 C 73 % 1030,1 hPa 0,0 l/m 6,4 km/h (2 Bft) N-NO 22 0 min 0,0 UV-I 0 W/m -5,8 C -1,6 C 8,0 km/h (2 Bft)
27.02.2023 22:13 -1,7 C -2,8 C 73 % 1030,2 hPa 0,0 l/m 4,8 km/h (1 Bft) N-NO 22 0 min 0,0 UV-I 0 W/m -5,9 C -1,7 C 6,4 km/h (2 Bft)
27.02.2023 22:14 -1,7 C -2,8 C 73 % 1030,1 hPa 0,0 l/m 6,4 km/h (2 Bft) N-NO 22 0 min 0,0 UV-I 0 W/m -5,9 C -1,7 C 8,0 km/h (2 Bft)
27.02.2023 22:15 -1,7 C -2,8 C 73 % 1030,1 hPa 0,0 l/m 6,4 km/h (2 Bft) N-NO 22 0 min 0,0 UV-I 0 W/m -5,9 C -1,7 C 8,0 km/h (2 Bft)
27.02.2023 22:16 -1,8 C -2,8 C 73 % 1030,2 hPa 0,0 l/m 8,0 km/h (2 Bft) N-NO 22 0 min 0,0 UV-I 0 W/m -6,0 C -3,5 C 11,3 km/h (2 Bft)
27.02.2023 22:17 -1,8 C -2,8 C 73 % 1030,2 hPa 0,0 l/m 8,0 km/h (2 Bft) N 360 0 min 0,0 UV-I 0 W/m -6,0 C -3,5 C 11,3 km/h (2 Bft)
27.02.2023 22:18 -1,9 C -2,8 C 73 % 1030,1 hPa 0,0 l/m 9,7 km/h (2 Bft) N-NO 22 0 min 0,0 UV-I 0 W/m -6,1 C -5,3 C 12,9 km/h (3 Bft)
27.02.2023 22:19 -1,9 C -3,3 C 73 % 1030,1 hPa 0,0 l/m 9,7 km/h (2 Bft) N 360 0 min 0,0 UV-I 0 W/m -6,1 C -5,3 C 12,9 km/h (3 Bft)
27.02.2023 22:20 -2,1 C -3,3 C 73 % 1030,2 hPa 0,0 l/m 8,0 km/h (2 Bft) N 360 0 min 0,0 UV-I 0 W/m -6,3 C -3,9 C 12,9 km/h (3 Bft)
27.02.2023 22:21 -2,1 C -3,3 C 73 % 1030,1 hPa 0,0 l/m 6,4 km/h (2 Bft) N-NO 22 0 min 0,0 UV-I 0 W/m -6,3 C -2,1 C 8,0 km/h (2 Bft)
27.02.2023 22:22 -2,1 C -3,3 C 74 % 1030,2 hPa 0,0 l/m 9,7 km/h (2 Bft) N-NO 22 0 min 0,0 UV-I 0 W/m -6,1 C -5,5 C 14,5 km/h (3 Bft)
27.02.2023 22:23 -2,2 C -3,9 C 74 % 1030,2 hPa 0,0 l/m 8,0 km/h (2 Bft) N 360 0 min 0,0 UV-I 0 W/m -6,2 C -4,0 C 12,9 km/h (3 Bft)
27.02.2023 22:24 -2,2 C -3,9 C 74 % 1030,2 hPa 0,0 l/m 12,9 km/h (3 Bft) N 360 0 min 0,0 UV-I 0 W/m -6,2 C -8,2 C 17,7 km/h (3 Bft)
27.02.2023 22:25 -2,2 C -3,9 C 74 % 1030,2 hPa 0,0 l/m 14,5 km/h (3 Bft) N 360 0 min 0,0 UV-I 0 W/m -6,2 C -9,3 C 17,7 km/h (3 Bft)
27.02.2023 22:26 -2,2 C -3,3 C 74 % 1030,2 hPa 0,0 l/m 12,9 km/h (3 Bft) N 360 0 min 0,0 UV-I 0 W/m -6,2 C -8,2 C 16,1 km/h (3 Bft)
27.02.2023 22:27 -2,2 C -3,3 C 74 % 1030,2 hPa 0,0 l/m 9,7 km/h (2 Bft) N-NO 22 0 min 0,0 UV-I 0 W/m -6,2 C -5,6 C 12,9 km/h (3 Bft)
27.02.2023 22:28 -2,2 C -3,9 C 74 % 1030,2 hPa 0,0 l/m 11,3 km/h (2 Bft) N 360 0 min 0,0 UV-I 0 W/m -6,2 C -7,0 C 14,5 km/h (3 Bft)
27.02.2023 22:29 -2,2 C -3,9 C 74 % 1030,3 hPa 0,0 l/m 9,7 km/h (2 Bft) N-NO 22 0 min 0,0 UV-I 0 W/m -6,2 C -5,6 C 14,5 km/h (3 Bft)
27.02.2023 22:30 -2,2 C -3,3 C 74 % 1030,2 hPa 0,0 l/m 6,4 km/h (2 Bft) N-NO 22 0 min 0,0 UV-I 0 W/m -6,2 C -2,2 C 9,7 km/h (2 Bft)
27.02.2023 22:31 -2,2 C -3,9 C 74 % 1030,3 hPa 0,0 l/m 8,0 km/h (2 Bft) N-NO 22 0 min 0,0 UV-I 0 W/m -6,2 C -4,0 C 12,9 km/h (3 Bft)
27.02.2023 22:32 -2,2 C -3,9 C 74 % 1030,2 hPa 0,0 l/m 8,0 km/h (2 Bft) N-NO 22 0 min 0,0 UV-I 0 W/m -6,2 C -4,0 C 12,9 km/h (3 Bft)
27.02.2023 22:33 -2,3 C -3,9 C 74 % 1030,3 hPa 0,0 l/m 6,4 km/h (2 Bft) N 360 0 min 0,0 UV-I 0 W/m -6,3 C -2,3 C 11,3 km/h (2 Bft)
27.02.2023 22:34 -2,3 C -3,9 C 74 % 1030,2 hPa 0,0 l/m 8,0 km/h (2 Bft) N-NO 22 0 min 0,0 UV-I 0 W/m -6,3 C -4,1 C 12,9 km/h (3 Bft)
27.02.2023 22:35 -2,3 C -3,9 C 74 % 1030,2 hPa 0,0 l/m 9,7 km/h (2 Bft) N-NO 22 0 min 0,0 UV-I 0 W/m -6,3 C -5,7 C 16,1 km/h (3 Bft)
27.02.2023 22:36 -2,2 C -3,9 C 75 % 1030,2 hPa 0,0 l/m 8,0 km/h (2 Bft) N-NO 22 0 min 0,0 UV-I 0 W/m -6,0 C -4,0 C 14,5 km/h (3 Bft)
27.02.2023 22:37 -2,3 C -3,3 C 75 % 1030,3 hPa 0,0 l/m 8,0 km/h (2 Bft) N 360 0 min 0,0 UV-I 0 W/m -6,1 C -4,1 C 12,9 km/h (3 Bft)
27.02.2023 22:38 -2,2 C -3,3 C 75 % 1030,2 hPa 0,0 l/m 8,0 km/h (2 Bft) N-NO 22 0 min 0,0 UV-I 0 W/m -6,0 C -4,0 C 12,9 km/h (3 Bft)
27.02.2023 22:39 -2,2 C -3,3 C 75 % 1030,2 hPa 0,0 l/m 8,0 km/h (2 Bft) N-NO 22 0 min 0,0 UV-I 0 W/m -6,0 C -4,0 C 12,9 km/h (3 Bft)
27.02.2023 22:40 -2,2 C -3,3 C 75 % 1030,2 hPa 0,0 l/m 9,7 km/h (2 Bft) N 360 0 min 0,0 UV-I 0 W/m -6,0 C -5,6 C 12,9 km/h (3 Bft)
27.02.2023 22:41 -2,1 C -3,3 C 75 % 1030,2 hPa 0,0 l/m 8,0 km/h (2 Bft) N-NO 22 0 min 0,0 UV-I 0 W/m -5,9 C -3,9 C 11,3 km/h (2 Bft)
27.02.2023 22:42 -2,1 C -3,3 C 75 % 1030,2 hPa 0,0 l/m 11,3 km/h (2 Bft) N-NO 22 0 min 0,0 UV-I 0 W/m -5,9 C -6,9 C 17,7 km/h (3 Bft)
27.02.2023 22:43 -2,1 C -2,8 C 74 % 1030,0 hPa 0,0 l/m 9,7 km/h (2 Bft) N-NO 22 0 min 0,0 UV-I 0 W/m -6,1 C -5,5 C 12,9 km/h (3 Bft)
27.02.2023 22:44 -2,0 C -2,8 C 74 % 1030,1 hPa 0,0 l/m 11,3 km/h (2 Bft) N-NO 22 0 min 0,0 UV-I 0 W/m -6,0 C -6,8 C 17,7 km/h (3 Bft)
27.02.2023 22:45 -2,0 C -2,8 C 74 % 1030,1 hPa 0,0 l/m 6,4 km/h (2 Bft) N-NO 22 0 min 0,0 UV-I 0 W/m -6,0 C -2,0 C 11,3 km/h (2 Bft)
27.02.2023 22:46 -2,0 C -2,8 C 74 % 1030,1 hPa 0,0 l/m 6,4 km/h (2 Bft) N-NO 22 0 min 0,0 UV-I 0 W/m -6,0 C -2,0 C 8,0 km/h (2 Bft)
27.02.2023 22:47 -2,1 C -2,8 C 74 % 1030,1 hPa 0,0 l/m 6,4 km/h (2 Bft) N-NO 22 0 min 0,0 UV-I 0 W/m -6,1 C -2,1 C 8,0 km/h (2 Bft)
27.02.2023 22:48 -2,1 C -3,3 C 74 % 1030,1 hPa 0,0 l/m 9,7 km/h (2 Bft) N-NO 22 0 min 0,0 UV-I 0 W/m -6,1 C -5,5 C 16,1 km/h (3 Bft)
27.02.2023 22:49 -2,1 C -2,8 C 74 % 1030,1 hPa 0,0 l/m 11,3 km/h (2 Bft) N-NO 22 0 min 0,0 UV-I 0 W/m -6,1 C -6,9 C 14,5 km/h (3 Bft)
27.02.2023 22:50 -2,0 C -2,8 C 74 % 1030,1 hPa 0,0 l/m 11,3 km/h (2 Bft) N-NO 22 0 min 0,0 UV-I 0 W/m -6,0 C -6,8 C 14,5 km/h (3 Bft)
27.02.2023 22:51 -2,0 C -2,8 C 74 % 1030,0 hPa 0,0 l/m 8,0 km/h (2 Bft) N-NO 22 0 min 0,0 UV-I 0 W/m -6,0 C -3,7 C 11,3 km/h (2 Bft)
27.02.2023 22:52 -2,1 C -3,3 C 74 % 1030,1 hPa 0,0 l/m 6,4 km/h (2 Bft) N-NO 22 0 min 0,0 UV-I 0 W/m -6,1 C -2,1 C 12,9 km/h (3 Bft)
27.02.2023 22:53 -2,0 C -3,3 C 74 % 1030,1 hPa 0,0 l/m 12,9 km/h (3 Bft) N-NO 22 0 min 0,0 UV-I 0 W/m -6,0 C -8,0 C 16,1 km/h (3 Bft)
27.02.2023 22:54 -2,0 C -3,3 C 74 % 1030,1 hPa 0,0 l/m 9,7 km/h (2 Bft) N-NO 22 0 min 0,0 UV-I 0 W/m -6,0 C -5,4 C 14,5 km/h (3 Bft)
27.02.2023 22:55 -2,0 C -3,3 C 74 % 1030,1 hPa 0,0 l/m 12,9 km/h (3 Bft) N-NO 22 0 min 0,0 UV-I 0 W/m -6,0 C -8,0 C 19,3 km/h (3 Bft)
27.02.2023 22:56 -2,0 C -3,3 C 74 % 1030,0 hPa 0,0 l/m 11,3 km/h (2 Bft) NO 45 0 min 0,0 UV-I 0 W/m -6,0 C -6,8 C 14,5 km/h (3 Bft)
27.02.2023 22:57 -2,0 C -3,3 C 74 % 1030,1 hPa 0,0 l/m 8,0 km/h (2 Bft) N-NO 22 0 min 0,0 UV-I 0 W/m -6,0 C -3,7 C 12,9 km/h (3 Bft)
27.02.2023 22:58 -2,1 C -3,3 C 74 % 1030,0 hPa 0,0 l/m 6,4 km/h (2 Bft) N-NO 22 0 min 0,0 UV-I 0 W/m -6,1 C -2,1 C 8,0 km/h (2 Bft)
27.02.2023 22:59 -2,1 C -3,3 C 74 % 1030,0 hPa 0,0 l/m 6,4 km/h (2 Bft) N-NO 22 0 min 0,0 UV-I 0 W/m -6,1 C -2,1 C 8,0 km/h (2 Bft)
27.02.2023 23:00 -2,1 C -3,3 C 74 % 1030,0 hPa 0,0 l/m 4,8 km/h (1 Bft) N-NO 22 0 min 0,0 UV-I 0 W/m -6,1 C -2,1 C 8,0 km/h (2 Bft)
27.02.2023 23:01 -2,2 C -3,3 C 74 % 1030,0 hPa 0,0 l/m 4,8 km/h (1 Bft) N-NO 22 0 min 0,0 UV-I 0 W/m -6,2 C -2,2 C 11,3 km/h (2 Bft)
27.02.2023 23:02 -2,2 C -3,3 C 75 % 1030,1 hPa 0,0 l/m 12,9 km/h (3 Bft) N-NO 22 0 min 0,0 UV-I 0 W/m -6,0 C -8,2 C 17,7 km/h (3 Bft)
27.02.2023 23:03 -2,2 C -3,3 C 75 % 1030,0 hPa 0,0 l/m 9,7 km/h (2 Bft) N-NO 22 0 min 0,0 UV-I 0 W/m -6,0 C -5,6 C 12,9 km/h (3 Bft)
27.02.2023 23:04 -2,2 C -3,3 C 75 % 1029,9 hPa 0,0 l/m 6,4 km/h (2 Bft) N-NO 22 0 min 0,0 UV-I 0 W/m -6,0 C -2,2 C 9,7 km/h (2 Bft)
27.02.2023 23:05 -2,1 C -3,3 C 75 % 1030,0 hPa 0,0 l/m 12,9 km/h (3 Bft) N-NO 22 0 min 0,0 UV-I 0 W/m -5,9 C -8,1 C 16,1 km/h (3 Bft)
27.02.2023 23:06 -2,1 C -3,3 C 75 % 1030,0 hPa 0,0 l/m 8,0 km/h (2 Bft) N-NO 22 0 min 0,0 UV-I 0 W/m -5,9 C -3,9 C 12,9 km/h (3 Bft)
27.02.2023 23:07 -2,2 C -2,8 C 75 % 1029,9 hPa 0,0 l/m 6,4 km/h (2 Bft) N-NO 22 0 min 0,0 UV-I 0 W/m -6,0 C -2,2 C 11,3 km/h (2 Bft)
27.02.2023 23:08 -2,1 C -2,8 C 75 % 1029,9 hPa 0,0 l/m 8,0 km/h (2 Bft) N-NO 22 0 min 0,0 UV-I 0 W/m -5,9 C -3,9 C 14,5 km/h (3 Bft)
27.02.2023 23:09 -2,1 C -2,8 C 75 % 1030,0 hPa 0,0 l/m 11,3 km/h (2 Bft) N-NO 22 0 min 0,0 UV-I 0 W/m -5,9 C -6,9 C 14,5 km/h (3 Bft)
27.02.2023 23:10 -2,1 C -2,8 C 75 % 1029,8 hPa 0,0 l/m 11,3 km/h (2 Bft) N-NO 22 0 min 0,0 UV-I 0 W/m -5,9 C -6,9 C 16,1 km/h (3 Bft)
27.02.2023 23:11 -2,1 C -2,8 C 75 % 1030,0 hPa 0,0 l/m 12,9 km/h (3 Bft) N-NO 22 0 min 0,0 UV-I 0 W/m -5,9 C -8,1 C 17,7 km/h (3 Bft)
27.02.2023 23:12 -2,1 C -2,8 C 75 % 1030,0 hPa 0,0 l/m 6,4 km/h (2 Bft) N 360 0 min 0,0 UV-I 0 W/m -5,9 C -2,1 C 12,9 km/h (3 Bft)
27.02.2023 23:13 -2,0 C -2,8 C 75 % 1030,0 hPa 0,0 l/m 4,8 km/h (1 Bft) N 360 0 min 0,0 UV-I 0 W/m -5,8 C -2,0 C 6,4 km/h (2 Bft)
27.02.2023 23:14 -2,0 C -2,8 C 74 % 1030,0 hPa 0,0 l/m 9,7 km/h (2 Bft) N-NO 22 0 min 0,0 UV-I 0 W/m -6,0 C -5,4 C 14,5 km/h (3 Bft)
27.02.2023 23:15 -1,9 C -2,8 C 74 % 1029,8 hPa 0,0 l/m 9,7 km/h (2 Bft) N-NO 22 0 min 0,0 UV-I 0 W/m -5,9 C -5,3 C 14,5 km/h (3 Bft)
27.02.2023 23:16 -1,9 C -2,8 C 75 % 1030,0 hPa 0,0 l/m 9,7 km/h (2 Bft) N-NO 22 0 min 0,0 UV-I 0 W/m -5,7 C -5,3 C 14,5 km/h (3 Bft)
27.02.2023 23:17 -1,9 C -2,8 C 75 % 1030,0 hPa 0,0 l/m 8,0 km/h (2 Bft) N-NO 22 0 min 0,0 UV-I 0 W/m -5,7 C -3,6 C 11,3 km/h (2 Bft)
27.02.2023 23:18 -1,9 C -2,8 C 75 % 1029,9 hPa 0,0 l/m 8,0 km/h (2 Bft) N-NO 22 0 min 0,0 UV-I 0 W/m -5,7 C -3,6 C 11,3 km/h (2 Bft)
27.02.2023 23:19 -1,9 C -2,8 C 75 % 1029,9 hPa 0,0 l/m 9,7 km/h (2 Bft) N-NO 22 0 min 0,0 UV-I 0 W/m -5,7 C -5,3 C 12,9 km/h (3 Bft)
27.02.2023 23:20 -1,9 C -2,8 C 75 % 1029,9 hPa 0,0 l/m 9,7 km/h (2 Bft) N-NO 22 0 min 0,0 UV-I 0 W/m -5,7 C -5,3 C 12,9 km/h (3 Bft)
27.02.2023 23:21 -1,9 C -2,8 C 75 % 1030,0 hPa 0,0 l/m 8,0 km/h (2 Bft) N-NO 22 0 min 0,0 UV-I 0 W/m -5,7 C -3,6 C 12,9 km/h (3 Bft)
27.02.2023 23:22 -1,9 C -2,8 C 75 % 1029,9 hPa 0,0 l/m 11,3 km/h (2 Bft) N-NO 22 0 min 0,0 UV-I 0 W/m -5,7 C -6,6 C 14,5 km/h (3 Bft)
27.02.2023 23:23 -1,9 C -2,8 C 75 % 1029,9 hPa 0,0 l/m 9,7 km/h (2 Bft) N-NO 22 0 min 0,0 UV-I 0 W/m -5,7 C -5,3 C 12,9 km/h (3 Bft)
27.02.2023 23:24 -1,9 C -2,8 C 74 % 1029,8 hPa 0,0 l/m 8,0 km/h (2 Bft) N-NO 22 0 min 0,0 UV-I 0 W/m -5,9 C -3,6 C 11,3 km/h (2 Bft)
27.02.2023 23:25 -2,0 C -2,8 C 74 % 1029,9 hPa 0,0 l/m 8,0 km/h (2 Bft) N 360 0 min 0,0 UV-I 0 W/m -6,0 C -3,7 C 14,5 km/h (3 Bft)
27.02.2023 23:26 -2,1 C -3,3 C 74 % 1030,1 hPa 0,0 l/m 9,7 km/h (2 Bft) N-NO 22 0 min 0,0 UV-I 0 W/m -6,1 C -5,5 C 14,5 km/h (3 Bft)
27.02.2023 23:27 -2,1 C -3,3 C 74 % 1030,0 hPa 0,0 l/m 8,0 km/h (2 Bft) N-NO 22 0 min 0,0 UV-I 0 W/m -6,1 C -3,9 C 12,9 km/h (3 Bft)
27.02.2023 23:28 -2,1 C -3,3 C 74 % 1030,0 hPa 0,0 l/m 6,4 km/h (2 Bft) N-NO 22 0 min 0,0 UV-I 0 W/m -6,1 C -2,1 C 9,7 km/h (2 Bft)
27.02.2023 23:29 -2,2 C -3,3 C 74 % 1030,0 hPa 0,0 l/m 6,4 km/h (2 Bft) N-NO 22 0 min 0,0 UV-I 0 W/m -6,2 C -2,2 C 11,3 km/h (2 Bft)
27.02.2023 23:30 -2,2 C -3,3 C 74 % 1030,0 hPa 0,0 l/m 6,4 km/h (2 Bft) N-NO 22 0 min 0,0 UV-I 0 W/m -6,2 C -2,2 C 11,3 km/h (2 Bft)
27.02.2023 23:31 -2,2 C -3,3 C 74 % 1030,0 hPa 0,0 l/m 9,7 km/h (2 Bft) N-NO 22 0 min 0,0 UV-I 0 W/m -6,2 C -5,6 C 16,1 km/h (3 Bft)
27.02.2023 23:32 -2,3 C -3,3 C 75 % 1030,0 hPa 0,0 l/m 9,7 km/h (2 Bft) N-NO 22 0 min 0,0 UV-I 0 W/m -6,1 C -5,7 C 12,9 km/h (3 Bft)
27.02.2023 23:33 -2,3 C -3,3 C 75 % 1030,0 hPa 0,0 l/m 6,4 km/h (2 Bft) NO 45 0 min 0,0 UV-I 0 W/m -6,1 C -2,3 C 9,7 km/h (2 Bft)
27.02.2023 23:34 -2,2 C -3,3 C 75 % 1030,0 hPa 0,0 l/m 6,4 km/h (2 Bft) N-NO 22 0 min 0,0 UV-I 0 W/m -6,0 C -2,2 C 9,7 km/h (2 Bft)
27.02.2023 23:35 -2,2 C -3,3 C 75 % 1030,0 hPa 0,0 l/m 8,0 km/h (2 Bft) NO 45 0 min 0,0 UV-I 0 W/m -6,0 C -4,0 C 9,7 km/h (2 Bft)
27.02.2023 23:36 -2,3 C -3,3 C 75 % 1030,0 hPa 0,0 l/m 6,4 km/h (2 Bft) N-NO 22 0 min 0,0 UV-I 0 W/m -6,1 C -2,3 C 8,0 km/h (2 Bft)
27.02.2023 23:37 -2,3 C -3,3 C 75 % 1030,0 hPa 0,0 l/m 9,7 km/h (2 Bft) N-NO 22 0 min 0,0 UV-I 0 W/m -6,1 C -5,7 C 12,9 km/h (3 Bft)
27.02.2023 23:38 -2,3 C -3,3 C 75 % 1030,0 hPa 0,0 l/m 9,7 km/h (2 Bft) NO 45 0 min 0,0 UV-I 0 W/m -6,1 C -5,7 C 17,7 km/h (3 Bft)
27.02.2023 23:39 -2,3 C -3,3 C 75 % 1030,0 hPa 0,0 l/m 11,3 km/h (2 Bft) N-NO 22 0 min 0,0 UV-I 0 W/m -6,1 C -7,1 C 17,7 km/h (3 Bft)
27.02.2023 23:40 -2,2 C -3,3 C 75 % 1030,0 hPa 0,0 l/m 8,0 km/h (2 Bft) N-NO 22 0 min 0,0 UV-I 0 W/m -6,0 C -4,0 C 11,3 km/h (2 Bft)
27.02.2023 23:41 -2,2 C -2,8 C 75 % 1030,0 hPa 0,0 l/m 9,7 km/h (2 Bft) N-NO 22 0 min 0,0 UV-I 0 W/m -6,0 C -5,6 C 14,5 km/h (3 Bft)
27.02.2023 23:42 -2,2 C -2,8 C 75 % 1030,0 hPa 0,0 l/m 8,0 km/h (2 Bft) N-NO 22 0 min 0,0 UV-I 0 W/m -6,0 C -4,0 C 14,5 km/h (3 Bft)
27.02.2023 23:43 -2,2 C -2,8 C 75 % 1030,0 hPa 0,0 l/m 9,7 km/h (2 Bft) N-NO 22 0 min 0,0 UV-I 0 W/m -6,0 C -5,6 C 14,5 km/h (3 Bft)
27.02.2023 23:44 -2,1 C -2,8 C 75 % 1030,1 hPa 0,0 l/m 9,7 km/h (2 Bft) N-NO 22 0 min 0,0 UV-I 0 W/m -5,9 C -5,5 C 12,9 km/h (3 Bft)
27.02.2023 23:45 -2,1 C -2,8 C 75 % 1030,0 hPa 0,0 l/m 14,5 km/h (3 Bft) N-NO 22 0 min 0,0 UV-I 0 W/m -5,9 C -9,2 C 19,3 km/h (3 Bft)
27.02.2023 23:46 -2,1 C -2,8 C 75 % 1030,0 hPa 0,0 l/m 9,7 km/h (2 Bft) N-NO 22 0 min 0,0 UV-I 0 W/m -5,9 C -5,5 C 14,5 km/h (3 Bft)
27.02.2023 23:47 -2,1 C -2,8 C 75 % 1030,1 hPa 0,0 l/m 8,0 km/h (2 Bft) N-NO 22 0 min 0,0 UV-I 0 W/m -5,9 C -3,9 C 12,9 km/h (3 Bft)
27.02.2023 23:48 -2,1 C -2,8 C 75 % 1030,0 hPa 0,0 l/m 8,0 km/h (2 Bft) N-NO 22 0 min 0,0 UV-I 0 W/m -5,9 C -3,9 C 9,7 km/h (2 Bft)
27.02.2023 23:49 -2,1 C -2,8 C 75 % 1030,0 hPa 0,0 l/m 8,0 km/h (2 Bft) N-NO 22 0 min 0,0 UV-I 0 W/m -5,9 C -3,9 C 12,9 km/h (3 Bft)
27.02.2023 23:50 -2,1 C -2,8 C 75 % 1030,0 hPa 0,0 l/m 8,0 km/h (2 Bft) N-NO 22 0 min 0,0 UV-I 0 W/m -5,9 C -3,9 C 14,5 km/h (3 Bft)
27.02.2023 23:51 -2,1 C -2,8 C 75 % 1030,0 hPa 0,0 l/m 11,3 km/h (2 Bft) N-NO 22 0 min 0,0 UV-I 0 W/m -5,9 C -6,9 C 14,5 km/h (3 Bft)
27.02.2023 23:52 -2,1 C -2,8 C 75 % 1030,0 hPa 0,0 l/m 8,0 km/h (2 Bft) N-NO 22 0 min 0,0 UV-I 0 W/m -5,9 C -3,9 C 12,9 km/h (3 Bft)
27.02.2023 23:53 -2,1 C -2,8 C 75 % 1030,0 hPa 0,0 l/m 8,0 km/h (2 Bft) N-NO 22 0 min 0,0 UV-I 0 W/m -5,9 C -3,9 C 11,3 km/h (2 Bft)
27.02.2023 23:54 -2,1 C -2,8 C 75 % 1029,9 hPa 0,0 l/m 8,0 km/h (2 Bft) N-NO 22 0 min 0,0 UV-I 0 W/m -5,9 C -3,9 C 12,9 km/h (3 Bft)
27.02.2023 23:55 -2,1 C -2,8 C 75 % 1030,0 hPa 0,0 l/m 8,0 km/h (2 Bft) N-NO 22 0 min 0,0 UV-I 0 W/m -5,9 C -3,9 C 12,9 km/h (3 Bft)
27.02.2023 23:56 -2,1 C -2,8 C 75 % 1030,0 hPa 0,0 l/m 4,8 km/h (1 Bft) N-NO 22 0 min 0,0 UV-I 0 W/m -5,9 C -2,1 C 6,4 km/h (2 Bft)
27.02.2023 23:57 -2,1 C -2,8 C 75 % 1030,0 hPa 0,0 l/m 6,4 km/h (2 Bft) N-NO 22 0 min 0,0 UV-I 0 W/m -5,9 C -2,1 C 12,9 km/h (3 Bft)
27.02.2023 23:58 -2,1 C -2,8 C 75 % 1030,0 hPa 0,0 l/m 11,3 km/h (2 Bft) N-NO 22 0 min 0,0 UV-I 0 W/m -5,9 C -6,9 C 16,1 km/h (3 Bft)
27.02.2023 23:59 -2,1 C -2,8 C 75 % 1030,0 hPa 0,0 l/m 4,8 km/h (1 Bft) NO 45 0 min 0,0 UV-I 0 W/m -5,9 C -2,1 C 8,0 km/h (2 Bft)
_ Min-Zeit 07:12 04:11 17:15 03:00 - 07:50 - - - - - 07:12 02:01 07:58
Minimum _ -5,4 C -6,7 C 60 % 1027,6 hPa - 4,8 km/h (1 Bft) - - - - - -8,0 C -16,3 C 6,4 km/h (2 Bft)
_ Max-Zeit 15:23 13:03 04:50 21:13 00:00 12:47 - - 09:30 12:52 13:28 13:28 17:47 11:48
Maximum _ 2,3 C 14,4 C 83 % 1030,3 hPa 0,0 l/m 30,6 km/h
N-NO (5 Bft)
- - 1 min 2,4 UV-I 589 W/m -3,4 C -1,2 C 41,8 km/h
N-NO (6 Bft)
Durchschnitt _ -1,8 C -0,1 C 73 % 1029,0 hPa #0,0 l/m 15,3 km/h (3 Bft) N-NO - #5:42 h 1,6 UV-I 289 W/m -6,0 C -8,9 C 20,7 km/h (4 Bft)